Date StartTime U_cm/s V_cm/s W_cm/s Ustd_cm/s Vstd_cm/s Wstd_cm/s Uvar_(cm/s)^2 Vvar_(cm/s)^2 Wvar_(cm/s)^2 KE_(m/s)^2 TurbulentKE_(m/s)^2 HorizWindSpeed_cm/s FrictionSpeec_cm/s DragCoef SpeedOfSound_m/s SonicTemperature_C Pressure_mb 
11/21/2013  00:00:00     -103.769      211.167      -24.537       72.358       79.420       43.106     5235.701     6307.504     1858.137        3.468        0.670      235.286       40.984        0.030      333.738        3.246      857.719
11/21/2013  00:01:00     -162.481      209.473      -46.934       74.356       94.095       39.694     5528.813     8853.828     1575.640        4.422        0.798      265.102       41.413        0.024      333.688        3.164      857.719
11/21/2013  00:02:00     -125.880      210.033      -10.788       80.458      134.777       60.742     6473.566    18164.760     3689.646        4.420        1.416      244.867       51.250        0.044      333.738        3.246      857.719
11/21/2013  00:03:00     -118.201      155.778      -13.411       54.956       93.264       43.230     3020.160     8698.119     1868.876        2.600        0.679      195.547       31.655        0.026      333.758        3.279      857.718
11/21/2013  00:04:00     -112.942      211.345      -14.811       78.219       76.090       51.569     6118.219     5789.661     2659.365        3.610        0.728      239.630       46.932        0.038      333.760        3.281      857.714
11/21/2013  00:05:00     -108.305      127.450      -14.513       80.336       60.763       44.371     6453.867     3692.186     1968.794        2.015        0.606      167.253       39.760        0.057      333.754        3.273      857.715
11/21/2013  00:06:00     -135.216      168.837      -19.902       79.820       95.062       42.797     6371.222     9036.763     1831.596        3.221        0.862      216.308       37.159        0.030      333.724        3.223      857.717
11/21/2013  00:07:00      -58.358       60.000        1.411       62.345       77.225       31.145     3886.871     5963.737      970.019        0.891        0.541       83.700       30.933        0.137      333.814        3.375      857.714
11/21/2013  00:08:00      -87.433      205.438      -21.661       78.368       92.078       42.623     6141.478     8478.437     1816.737        3.337        0.822      223.269       49.205        0.049      333.760        3.280      857.729
11/21/2013  00:09:00     -106.178      216.498      -22.996       68.305       69.910       39.475     4665.594     4887.400     1558.249        3.489        0.556      241.134       35.484        0.022      333.763        3.286      857.726
11/21/2013  00:10:00      -96.460      132.022      -14.883       52.992       67.184       29.204     2808.139     4513.738      852.846        1.756        0.409      163.506       30.345        0.034      333.775        3.309      857.736
11/21/2013  00:11:00      -68.545       67.548      -16.911       41.060       71.646       27.750     1685.916     5133.112      770.053        0.857        0.379       96.234       30.634        0.101      333.829        3.399      857.724
11/21/2013  00:12:00     -164.462      127.512      -28.998       84.555       93.322       42.055     7149.613     8709.053     1768.618        3.088        0.881      208.104       51.604        0.061      333.785        3.323      857.729
11/21/2013  00:13:00      -34.835       93.905       -3.676       62.731       63.345       46.822     3935.229     4012.625     2192.299        1.009        0.507      100.158       39.230        0.153      333.895        3.510      857.726
11/21/2013  00:14:00      -94.458      118.670       -5.917       84.679       67.624       46.191     7170.532     4572.993     2133.601        1.846        0.694      151.674       50.677        0.112      333.797        3.345      857.729
11/21/2013  00:15:00     -175.344      152.931      -38.138       71.420       71.317       39.666     5100.865     5086.101     1573.403        3.367        0.588      232.666       35.977        0.024      333.785        3.323      857.721
11/21/2013  00:16:00     -131.778      145.617      -18.732       85.886       99.958       46.127     7376.321     9991.619     2127.674        2.920        0.975      196.391       46.990        0.057      333.780        3.317      857.706
11/21/2013  00:17:00      -51.251      124.595      -10.638       59.715       76.630       37.960     3565.920     5872.081     1440.928        1.457        0.544      134.724       35.741        0.070      333.857        3.446      857.691
11/21/2013  00:18:00      -37.293      191.627       -8.200       48.198       69.485       36.810     2323.032     4828.105     1354.995        2.334        0.425      195.222       37.213        0.036      333.813        3.371      857.678
11/21/2013  00:19:00     -109.201      121.023      -16.991       61.773      110.600       44.463     3815.923    12232.290     1976.917        2.244        0.901      163.008       51.479        0.100      333.828        3.398      857.683
11/21/2013  00:20:00     -123.361      235.596      -32.024       67.909      103.393       54.801     4611.686    10690.094     3003.202        4.502        0.915      265.939       55.329        0.043      333.768        3.294      857.684
11/21/2013  00:21:00      -71.136      222.655      -21.408       58.958       97.574       49.196     3476.064     9520.647     2420.224        3.525        0.771      233.743       36.247        0.024      333.798        3.346      857.685
11/21/2013  00:22:00     -114.755      124.627      -18.094       71.178       77.544       40.257     5066.362     6013.099     1620.664        2.086        0.635      169.412       38.946        0.053      333.787        3.328      857.690
11/21/2013  00:23:00     -113.643      171.213      -18.433      100.552      140.478       43.546    10110.780    19733.943     1896.214        3.715        1.587      205.496       44.448        0.047      333.760        3.282      857.700
11/21/2013  00:24:00     -139.973      140.459      -27.726       86.426       86.072       49.684     7469.374     7408.346     2468.459        2.871        0.867      198.296       36.511        0.034      333.784        3.322      857.707
11/21/2013  00:25:00     -117.436      146.151      -21.330       78.967       77.473       44.267     6235.837     6002.028     1959.571        2.490        0.710      187.487       45.548        0.059      333.746        3.260      857.716
11/21/2013  00:26:00     -130.219      198.538      -24.798       91.007      111.671       55.944     8282.269    12470.368     3129.744        4.043        1.194      237.433       73.053        0.095      333.733        3.237      857.722
11/21/2013  00:27:00     -123.264      174.157      -30.332       80.314       67.182       45.909     6450.387     4513.453     2107.655        2.976        0.654      213.365       39.088        0.034      333.738        3.245      857.731
11/21/2013  00:28:00     -129.991      185.684      -27.374       63.385      104.898       49.204     4017.606    11003.569     2421.070        3.478        0.872      226.664       41.532        0.034      333.698        3.182      857.714
11/21/2013  00:29:00     -163.872      146.913      -18.623       95.899       85.731       59.317     9196.536     7349.827     3518.470        3.442        1.003      220.086       46.156        0.044      333.698        3.179      857.712
11/21/2013  00:30:00     -173.369      302.926      -42.145       98.503       97.553       60.114     9702.790     9516.546     3613.727        7.321        1.142      349.029       54.562        0.024      333.681        3.152      857.704
11/21/2013  00:31:00     -191.180      218.592      -41.678       92.670       95.206       52.158     8587.743     9064.253     2720.428        5.322        1.019      290.400       41.765        0.021      333.683        3.155      857.697
11/21/2013  00:32:00     -136.452      228.914      -39.246      109.128      105.015       60.336    11908.886    11028.088     3640.493        4.956        1.329      266.497       61.794        0.054      333.675        3.142      857.697
11/21/2013  00:33:00     -113.549      176.399       -9.883       83.589       95.404       51.358     6987.172     9101.976     2637.652        3.141        0.936      209.785       49.007        0.055      333.728        3.230      857.689
11/21/2013  00:34:00     -178.363      154.696      -33.856       82.053       80.881       54.591     6732.628     6541.796     2980.151        3.657        0.813      236.101       46.651        0.039      333.653        3.106      857.689
11/21/2013  00:35:00     -135.028      195.632      -20.679       94.821      120.137       53.343     8991.055    14432.872     2845.465        4.160        1.313      237.707       46.652        0.039      333.667        3.129      857.692
11/21/2013  00:36:00     -182.040      166.167      -29.975      117.933       91.805       59.285    13908.308     8428.228     3514.715        4.374        1.293      246.475       71.962        0.085      333.635        3.076      857.693
11/21/2013  00:37:00      -98.733      102.936       -6.109       89.212       83.558       45.374     7958.861     6981.897     2058.828        1.869        0.850      142.633       36.889        0.067      333.704        3.191      857.708
11/21/2013  00:38:00     -116.553      146.367      -18.752       71.261       85.170       45.074     5078.062     7253.918     2031.668        2.486        0.718      187.104       39.780        0.045      333.668        3.131      857.708
11/21/2013  00:39:00     -155.653      216.383      -30.409       96.354       84.273       52.001     9284.089     7102.002     2704.069        4.553        0.955      266.552       47.259        0.031      333.654        3.108      857.717
11/21/2013  00:40:00     -128.542       63.556      -25.923       73.168       58.178       36.880     5353.600     3384.647     1360.109        1.566        0.505      143.396       27.160        0.036      333.685        3.161      857.710
11/21/2013  00:41:00     -134.621      115.748      -31.200       49.187       63.632       33.385     2419.385     4048.974     1114.544        2.004        0.379      177.540       35.907        0.041      333.655        3.111      857.734
11/21/2013  00:42:00     -155.561      101.697      -21.597       87.664       72.097       45.729     7684.938     5197.915     2091.146        2.499        0.749      185.854       44.170        0.056      333.684        3.159      857.753
11/21/2013  00:43:00     -162.130      128.777      -23.182       74.511       66.210       40.991     5551.941     4383.807     1680.289        2.751        0.581      207.050       38.403        0.034      333.661        3.119      857.763
11/21/2013  00:44:00     -206.263      162.880      -38.204       81.064      101.122       45.923     6571.297    10225.654     2108.884        4.472        0.945      262.820       40.147        0.023      333.652        3.104      857.773
11/21/2013  00:45:00      -86.115       74.369      -12.226       69.689       56.431       32.380     4856.530     3184.426     1048.447        1.109        0.454      113.782       35.677        0.098      333.664        3.126      857.788
11/21/2013  00:46:00     -175.755      100.462      -29.508       72.760      106.266       44.222     5293.953    11292.490     1955.575        3.019        0.927      202.441       49.358        0.059      333.669        3.133      857.788
11/21/2013  00:47:00     -135.473      146.652      -37.298       80.350       88.820       42.674     6456.123     7888.914     1821.033        2.871        0.808      199.649       39.654        0.039      333.664        3.127      857.795
11/21/2013  00:48:00     -167.244      138.370      -26.540       86.171       72.543       48.058     7425.451     5262.457     2309.577        3.141        0.750      217.064       52.871        0.059      333.669        3.132      857.796
11/21/2013  00:49:00     -122.803       77.360      -25.835       99.155       77.293       46.702     9831.761     5974.264     2181.102        1.986        0.899      145.138       44.426        0.094      333.666        3.129      857.812
11/21/2013  00:50:00     -105.435      121.634      -24.962       94.071       52.809       38.887     8849.408     2788.830     1512.163        1.984        0.658      160.970       38.260        0.056      333.690        3.170      857.808
11/21/2013  00:51:00     -115.037       83.373      -21.017       61.383       55.548       31.964     3767.923     3085.613     1021.697        1.425        0.394      142.073       23.800        0.028      333.706        3.196      857.796
11/21/2013  00:52:00     -117.187      108.407      -20.176       81.276       80.299       44.519     6605.811     6447.932     1981.964        2.046        0.752      159.640       47.233        0.088      333.742        3.255      857.791
11/21/2013  00:53:00     -163.714      251.200      -30.100       84.148      112.966       49.877     7080.923    12761.318     2487.755        5.657        1.116      299.839       61.828        0.043      333.680        3.152      857.785
11/21/2013  00:54:00      -97.376      213.390      -24.071       50.719      141.873       39.892     2572.401    20128.025     1591.397        3.994        1.215      234.558       48.597        0.043      333.703        3.190      857.781
11/21/2013  00:55:00     -107.916       55.548       -0.982       67.885       56.092       41.711     4608.308     3146.284     1739.792        1.211        0.475      121.373       13.483        0.012      333.761        3.287      857.782
11/21/2013  00:56:00      -84.510      103.098      -15.492       48.576       50.672       35.368     2359.648     2567.645     1250.919        1.209        0.309      133.309       22.789        0.029      333.811        3.371      857.790
11/21/2013  00:57:00     -115.309      159.659      -19.007       75.046       93.231       52.363     5631.888     8692.026     2741.913        2.810        0.853      196.944       46.862        0.057      333.759        3.281      857.791
11/21/2013  00:58:00     -132.574      137.126      -18.343      102.422       69.421       42.026    10490.303     4819.339     1766.194        2.689        0.854      190.734       38.460        0.041      333.735        3.240      857.783
11/21/2013  00:59:00     -139.802      224.627      -29.626       94.775       90.118       56.421     8982.339     8121.226     3183.290        4.558        1.014      264.578       58.068        0.048      333.742        3.250      857.785
11/21/2013  01:00:00     -196.418      219.412      -45.984       67.196      104.707       49.694     4515.365    10963.647     2469.444        5.339        0.897      294.485       44.317        0.023      333.695        3.173      857.795
11/21/2013  01:01:00     -207.310      141.008      -42.528       82.836       72.797       54.911     6861.855     5299.384     3015.192        3.992        0.759      250.721       55.111        0.048      333.707        3.194      857.799
11/21/2013  01:02:00      -93.104      185.567      -17.669       54.394      139.989       44.177     2958.691    19596.812     1951.638        3.396        1.225      207.614       60.630        0.085      333.763        3.287      857.802
11/21/2013  01:03:00     -149.168      142.699      -29.651       68.841      104.351       46.571     4739.124    10889.119     2168.874        3.064        0.890      206.432       44.489        0.046      333.730        3.234      857.812
11/21/2013  01:04:00      -61.878      106.726       -3.259       49.274       65.577       37.604     2427.965     4300.344     1414.076        1.168        0.407      123.366       36.480        0.087      333.817        3.379      857.819
11/21/2013  01:05:00      -94.109      168.443      -14.066       85.089      106.489       42.402     7240.179    11339.961     1797.899        2.890        1.019      192.949       32.486        0.028      333.748        3.262      857.819
11/21/2013  01:06:00     -133.981      101.228      -19.866       62.370       72.880       36.824     3890.068     5311.440     1356.004        1.957        0.528      167.922       30.145        0.032      333.742        3.255      857.817
11/21/2013  01:07:00      -85.237      216.454      -25.058       75.041       97.438       38.261     5631.094     9494.161     1463.881        3.566        0.829      232.633       33.878        0.021      333.766        3.293      857.825
11/21/2013  01:08:00     -178.612      141.460      -45.132       89.941       88.175       39.822     8089.392     7774.830     1585.775        3.570        0.872      227.844       46.158        0.041      333.678        3.148      857.831
11/21/2013  01:09:00     -145.759      189.738      -29.749       78.905       75.244       41.709     6225.974     5661.638     1739.632        3.588        0.681      239.262       45.087        0.036      333.693        3.173      857.846
11/21/2013  01:10:00     -201.001       83.415      -33.702       82.398       99.457       48.989     6789.406     9891.735     2399.879        3.378        0.954      217.622       43.406        0.040      333.660        3.118      857.855
11/21/2013  01:11:00     -154.186      223.422      -43.938       98.230       82.686       48.658     9649.126     6836.947     2367.620        4.723        0.943      271.461       50.989        0.035      333.676        3.145      857.873
11/21/2013  01:12:00     -199.596      183.782      -50.692       67.895       95.591       45.097     4609.786     9137.649     2033.759        4.598        0.789      271.319       47.945        0.031      333.665        3.124      857.876
11/21/2013  01:13:00     -106.491      122.817      -18.471       77.938       64.353       41.849     6074.291     4141.253     1751.360        1.936        0.598      162.556       40.588        0.062      333.705        3.193      857.878
11/21/2013  01:14:00     -126.874      157.324      -28.061       51.657       84.850       39.748     2668.395     7199.594     1579.891        2.654        0.572      202.108       30.083        0.022      333.679        3.151      857.885
11/21/2013  01:15:00     -160.491      184.651      -46.162       74.227       67.303       41.155     5509.717     4529.716     1693.715        3.686        0.587      244.650       38.766        0.025      333.675        3.142      857.886
11/21/2013  01:16:00     -132.906      152.484      -19.845       77.972       78.403       42.124     6079.606     6146.980     1774.389        2.765        0.700      202.276       45.721        0.051      333.696        3.177      857.891
11/21/2013  01:17:00     -131.092      167.529      -34.645       56.803      108.929       41.877     3226.581    11865.452     1753.675        3.165        0.842      212.723       43.307        0.041      333.680        3.152      857.890
11/21/2013  01:18:00     -159.815      162.578      -35.203       74.731       78.003       44.790     5584.717     6084.474     2006.125        3.344        0.684      227.974       40.953        0.032      333.669        3.132      857.890
11/21/2013  01:19:00     -188.915      263.247      -43.220       59.584       78.650       47.370     3550.218     6185.786     2243.941        5.942        0.599      324.018       42.319        0.017      333.636        3.078      857.887
11/21/2013  01:20:00      -99.361      179.936       -8.853       80.089       81.070       49.413     6414.177     6572.289     2441.642        2.887        0.771      205.547       47.290        0.053      333.708        3.197      857.883
11/21/2013  01:21:00      -94.452      147.338      -18.145       65.059       88.571       33.342     4232.693     7844.747     1111.663        2.207        0.659      175.013       32.359        0.034      333.768        3.297      857.884
11/21/2013  01:22:00     -124.682       50.338       -8.541       68.251       34.112       32.716     4658.243     1163.604     1070.322        1.252        0.345      134.460       34.511        0.066      333.688        3.165      857.893
11/21/2013  01:23:00     -105.089      141.720      -22.285       58.159       79.231       42.712     3382.433     6277.580     1824.347        2.155        0.574      176.432       36.265        0.042      333.732        3.237      857.900
11/21/2013  01:24:00     -142.743      111.618       -3.358       82.504       57.123       42.454     6806.842     3262.997     1802.317        2.236        0.594      181.202       44.472        0.060      333.707        3.196      857.909
11/21/2013  01:25:00      -84.555      177.740      -26.880       86.998       73.602       38.645     7568.709     5417.230     1493.458        2.697        0.724      196.828       47.412        0.058      333.720        3.217      857.914
11/21/2013  01:26:00      -59.593       54.703       -9.624       48.278       44.867       28.159     2330.719     2013.004      792.953        0.589        0.257       80.893       27.300        0.114      333.735        3.243      857.916
11/21/2013  01:27:00      -64.171       67.442       -1.385       58.730       55.906       35.638     3449.189     3125.536     1270.083        0.825        0.392       93.093       28.112        0.091      333.750        3.268      857.923
11/21/2013  01:28:00      -87.081      106.917      -22.627       53.899       73.944       36.107     2905.071     5467.778     1303.694        1.460        0.484      137.893       32.894        0.057      333.768        3.299      857.921
11/21/2013  01:29:00      -78.245      137.108      -20.069       60.616       71.447       35.279     3674.280     5104.714     1244.636        1.767        0.501      157.864       36.075        0.052      333.723        3.222      857.923
11/21/2013  01:30:00      -28.006       98.172      -11.748       38.983       56.887       24.207     1519.654     3236.145      585.962        0.795        0.267      102.089       21.568        0.045      333.840        3.418      857.930
11/21/2013  01:31:00      -53.476       94.224       -1.207       31.607       37.598       27.175      999.026     1413.587      738.497        0.744        0.158      108.341       24.967        0.053      333.875        3.476      857.934
11/21/2013  01:32:00      -19.845      133.040       -2.825       36.615       70.546       30.813     1340.683     4976.697      949.423        1.268        0.363      134.512       34.742        0.067      333.759        3.283      857.933
11/21/2013  01:33:00      -59.751      118.562      -22.086       54.441       63.181       32.298     2963.867     3991.834     1043.187        1.306        0.400      132.767       24.169        0.033      333.789        3.332      857.943
11/21/2013  01:34:00      -28.665      151.869       -4.080       35.080       73.066       38.656     1230.614     5338.643     1494.300        1.598        0.403      154.551       40.619        0.069      333.766        3.294      857.948
11/21/2013  01:35:00      -24.602       71.000       -8.406       49.428       58.712       23.295     2443.118     3447.111      542.671        0.607        0.322       75.141       23.492        0.098      333.747        3.264      857.961
11/21/2013  01:36:00      -22.739      148.525      -15.428       35.255       40.051       22.004     1242.883     1604.118      484.160        1.307        0.167      150.255       16.649        0.012      333.754        3.276      857.968
11/21/2013  01:37:00     -104.457      122.326      -13.737       75.442       65.853       45.357     5691.490     4336.636     2057.271        1.907        0.604      160.857       42.621        0.070      333.786        3.328      857.981
11/21/2013  01:38:00      -58.469      127.577        3.546       83.739       82.648       52.786     7012.215     6830.730     2786.365        1.816        0.831      140.337       56.331        0.161      333.770        3.301      857.990
11/21/2013  01:39:00      -82.738      176.161      -23.971       50.452       87.016       44.595     2545.437     7571.716     1988.751        2.528        0.605      194.623       40.580        0.043      333.775        3.308      858.018
11/21/2013  01:40:00      -92.289      137.080      -22.340       90.345       98.328       47.410     8162.192     9668.351     2247.737        2.394        1.004      165.252       43.008        0.068      333.714        3.206      858.031
11/21/2013  01:41:00      -80.185      120.780       -8.685       80.812       67.213       41.494     6530.630     4517.608     1721.760        1.693        0.638      144.974       42.209        0.085      333.728        3.233      858.046
11/21/2013  01:42:00     -104.796      134.123      -16.220       65.078      101.933       48.121     4235.141    10390.352     2315.592        2.308        0.847      170.209       52.610        0.096      333.707        3.196      858.055
11/21/2013  01:43:00      -54.421      218.540      -19.071       55.257       78.709       39.170     3053.362     6195.143     1534.327        3.093        0.539      225.214       39.615        0.031      333.698        3.180      858.067
11/21/2013  01:44:00      -49.511      184.354      -17.905       55.373       76.945       36.630     3066.193     5920.545     1341.754        2.354        0.516      190.887       36.514        0.037      333.758        3.281      858.071
11/21/2013  01:45:00     -133.397       64.303        2.765       87.066       62.012       52.328     7580.539     3845.444     2738.185        1.805        0.708      148.086       26.543        0.032      333.752        3.271      858.078
11/21/2013  01:46:00     -106.240      112.411      -24.128       45.161       61.313       30.697     2039.518     3759.328      942.292        1.562        0.337      154.671       25.647        0.027      333.686        3.162      858.083
11/21/2013  01:47:00      -93.439       90.086      -24.524       45.230       48.698       32.543     2045.723     2371.526     1059.039        1.146        0.274      129.794       22.021        0.029      333.709        3.201      858.094
11/21/2013  01:48:00      -45.733      102.471      -12.314       50.672       61.813       36.011     2567.635     3820.879     1296.769        1.021        0.384      112.214       38.496        0.118      333.723        3.224      858.086
11/21/2013  01:49:00      -45.854      195.549      -11.609       70.153      105.328       46.977     4921.512    11094.046     2206.837        2.935        0.911      200.853       53.334        0.071      333.755        3.275      858.075
11/21/2013  01:50:00      -49.431      134.145       -6.306       28.691       86.118       25.298      823.157     7416.316      639.987        1.468        0.444      142.962       18.599        0.017      333.754        3.275      858.072
11/21/2013  01:51:00      -80.897      185.384      -28.387       76.803       66.053       48.457     5898.703     4362.974     2348.100        2.716        0.630      202.266       42.813        0.045      333.719        3.217      858.072
11/21/2013  01:52:00     -137.263      225.095      -33.518       55.964      104.397       45.948     3131.962    10898.687     2111.241        4.338        0.807      263.646       40.748        0.024      333.671        3.136      858.062
11/21/2013  01:53:00      -87.903       47.613       -5.036       94.705       63.195       43.130     8969.008     3993.648     1860.158        1.242        0.741       99.970       50.189        0.252      333.685        3.160      858.072
11/21/2013  01:54:00      -61.309       63.614       -4.003       60.044       60.728       37.009     3605.319     3687.848     1369.635        0.824        0.433       88.349       41.531        0.221      333.756        3.281      858.076
11/21/2013  01:55:00      -75.811      160.552      -17.305       58.379       63.308       37.203     3408.056     4007.961     1384.079        2.031        0.440      177.551       34.063        0.037      333.692        3.173      858.097
11/21/2013  01:56:00      -22.837      192.109      -18.556       36.889       61.893       31.738     1360.807     3830.708     1007.305        2.198        0.310      193.461       16.605        0.007      333.691        3.169      858.122
11/21/2013  01:57:00      -35.624      231.426      -19.813       36.744       58.665       31.898     1350.143     3441.530     1017.479        3.051        0.290      234.151       26.949        0.013      333.649        3.098      858.135
11/21/2013  01:58:00     -104.241      189.555      -27.089       81.840       82.936       50.069     6697.802     6878.345     2506.912        3.180        0.804      216.327       52.749        0.059      333.662        3.121      858.155
11/21/2013  01:59:00      -69.281      208.565      -19.286       43.446       73.154       33.850     1887.520     5351.525     1145.792        2.853        0.419      219.771       23.835        0.012      333.682        3.155      858.180
11/21/2013  02:00:00      -42.033      225.565      -19.639       46.166       82.120       42.374     2131.304     6743.638     1795.552        3.185        0.534      229.448       27.017        0.014      333.689        3.165      858.195
11/21/2013  02:01:00      -53.235      102.629       -2.569       44.772       80.046       35.276     2004.553     6407.321     1244.397        1.151        0.483      115.614       29.942        0.067      333.769        3.300      858.208
11/21/2013  02:02:00      -11.334       89.522       -4.881       47.324       48.036       25.620     2239.554     2307.418      656.366        0.668        0.260       90.237       23.080        0.065      333.791        3.337      858.207
11/21/2013  02:03:00       -6.775      127.133       -3.375       44.767       82.730       43.002     2004.091     6844.210     1849.191        1.346        0.535      127.314       49.414        0.151      333.686        3.163      858.201
11/21/2013  02:04:00      -27.799      140.845      -19.027       36.734       46.026       28.516     1349.393     2118.391      813.141        1.263        0.214      143.562       20.415        0.020      333.722        3.223      858.198
11/21/2013  02:05:00      -48.809      100.053      -10.972       43.990       37.700       27.533     1935.159     1421.276      758.085        0.831        0.206      111.323       19.207        0.030      333.827        3.398      858.188
11/21/2013  02:06:00      -44.739      216.202      -19.430       47.898       74.620       34.083     2294.205     5568.186     1161.630        2.907        0.451      220.782       30.998        0.020      333.713        3.206      858.193
11/21/2013  02:07:00        4.255      133.470      -13.833       42.891       86.438       33.644     1839.625     7471.584     1131.913        1.423        0.522      133.538       34.248        0.066      333.758        3.280      858.207
11/21/2013  02:08:00      -32.270      122.254       -7.099       31.043       71.178       27.212      963.687     5066.307      740.480        1.140        0.339      126.441       26.932        0.045      333.631        3.071      858.208
11/21/2013  02:09:00      -24.760      142.286      -14.789       40.151       95.181       32.183     1612.095     9059.494     1035.758        1.639        0.585      144.424       32.265        0.050      333.686        3.162      858.213
11/21/2013  02:10:00      -21.680      241.193      -29.742       56.918       85.963       29.183     3239.620     7389.647      851.629        3.550        0.574      242.165       27.749        0.013      333.631        3.070      858.229
11/21/2013  02:11:00      -52.769      200.627      -22.945       50.378       55.252       34.470     2537.926     3052.829     1188.204        2.517        0.339      207.451       29.754        0.021      333.686        3.160      858.237
11/21/2013  02:12:00      -66.840      164.234      -21.510       53.006       65.049       30.774     2809.589     4231.407      947.033        1.994        0.399      177.315       35.235        0.039      333.663        3.122      858.248
11/21/2013  02:13:00      -23.297       92.313       -6.749       60.652       75.903       40.004     3678.689     5761.257     1600.350        1.007        0.552       95.207       40.725        0.183      333.775        3.310      858.251
11/21/2013  02:14:00     -129.041      154.459      -31.899       68.774       99.623       44.678     4729.886     9924.808     1996.125        2.909        0.833      201.268       46.371        0.053      333.684        3.158      858.266
11/21/2013  02:15:00     -112.231      249.300      -35.685       62.683       86.792       44.762     3929.098     7532.791     2003.592        4.474        0.673      273.398       37.668        0.019      333.611        3.035      858.283
11/21/2013  02:16:00     -111.057      169.485      -23.361       87.773       89.085       43.935     7704.119     7936.172     1930.304        2.958        0.879      202.630       43.388        0.046      333.645        3.093      858.283
11/21/2013  02:17:00      -63.298      145.930      -11.465       57.677       57.869       37.456     3326.637     3348.787     1402.972        1.675        0.404      159.067       34.285        0.046      333.678        3.149      858.306
11/21/2013  02:18:00      -47.877      112.477      -16.019       51.829       51.611       24.288     2686.268     2663.723      589.925        1.057        0.297      122.242       27.967        0.052      333.801        3.354      858.324
11/21/2013  02:19:00      -31.717       32.307        1.148       39.446       40.590       27.962     1556.005     1647.510      781.862        0.302        0.199       45.273       19.571        0.187      333.780        3.320      858.328
11/21/2013  02:20:00      -71.350       82.682        5.410       72.582       69.712       47.984     5268.128     4859.725     2302.420        1.219        0.622      109.212       45.740        0.175      333.759        3.283      858.344
11/21/2013  02:21:00      -46.355      118.248       -0.498       43.985       90.991       34.863     1934.639     8279.385     1215.422        1.378        0.571      127.010       34.611        0.074      333.725        3.226      858.352
11/21/2013  02:22:00      -28.840       79.461        2.714       75.879       63.650       44.471     5757.694     4051.368     1977.632        0.947        0.589       84.533       38.675        0.209      333.697        3.181      858.357
11/21/2013  02:23:00     -106.687      133.721      -26.132       43.983       58.576       30.755     1934.493     3431.106      945.869        1.813        0.316      171.065       25.504        0.022      333.644        3.092      858.374
11/21/2013  02:24:00      -43.722      167.922      -21.215       44.344       73.593       30.481     1966.400     5415.960      929.063        1.943        0.416      173.521       25.785        0.022      333.689        3.166      858.396
11/21/2013  02:25:00      -82.310      107.405      -12.837       74.257       93.318       34.474     5514.140     8708.334     1188.447        1.694        0.771      135.317       28.703        0.045      333.719        3.217      858.400
11/21/2013  02:26:00     -113.223       78.753      -30.128       55.113       61.082       31.894     3037.389     3731.029     1017.251        1.386        0.389      137.918       30.974        0.050      333.623        3.058      858.406
11/21/2013  02:27:00      -32.474      157.746      -12.035       51.462       78.190       39.950     2648.323     6113.639     1595.993        1.822        0.518      161.054       12.823        0.006      333.719        3.216      858.406
11/21/2013  02:28:00      -54.419      166.249      -14.325       54.961      124.915       39.735     3020.703    15603.822     1578.873        2.550        1.010      174.929       49.547        0.080      333.707        3.197      858.407
11/21/2013  02:29:00     -110.879      254.933      -27.489       73.720       93.795       46.575     5434.696     8797.504     2169.257        4.722        0.820      278.002       47.489        0.029      333.643        3.087      858.404
11/21/2013  02:30:00     -120.192      177.423      -29.117       59.352       75.065       33.906     3522.612     5634.701     1149.632        2.854        0.515      214.302       26.307        0.015      333.603        3.023      858.404
11/21/2013  02:31:00      -90.695      131.225      -23.156       57.494       69.355       37.223     3305.547     4810.053     1385.528        1.774        0.475      159.517       32.461        0.041      333.695        3.176      858.401
11/21/2013  02:32:00     -108.124      107.373      -16.285       69.716       51.386       36.088     4860.268     2640.490     1302.373        1.614        0.440      152.381       26.542        0.030      333.681        3.154      858.403
11/21/2013  02:33:00      -67.825      155.106      -15.941       45.963       62.188       35.292     2112.608     3867.311     1245.550        1.807        0.361      169.287       29.506        0.030      333.732        3.240      858.402
11/21/2013  02:34:00     -115.216      228.622      -23.737       62.469       84.210       56.609     3902.338     7091.403     3204.601        4.015        0.710      256.013       54.937        0.046      333.628        3.064      858.392
11/21/2013  02:35:00     -121.610      193.957      -29.691       81.245       97.777       48.655     6600.779     9560.394     2367.343        3.591        0.926      228.928       45.092        0.039      333.614        3.040      858.394
11/21/2013  02:36:00      -80.340      120.422      -16.835       47.599       50.639       32.605     2265.647     2564.280     1063.078        1.356        0.295      144.761       21.495        0.022      333.718        3.216      858.383
11/21/2013  02:37:00      -83.500      161.364       -7.531       62.125      102.301       48.571     3859.467    10465.539     2359.101        2.487        0.834      181.688       36.904        0.041      333.630        3.069      858.375
11/21/2013  02:38:00      -54.901      171.210       -4.037       63.596       90.996       43.066     4044.433     8280.319     1854.680        2.326        0.709      179.797       40.465        0.051      333.667        3.130      858.378
11/21/2013  02:39:00      -31.880      160.186      -17.821       34.129       57.888       28.470     1164.769     3351.037      810.551        1.616        0.266      163.328       27.413        0.028      333.698        3.183      858.390
11/21/2013  02:40:00      -43.883      168.327      -20.515       46.824       51.898       30.056     2192.495     2693.370      903.337        1.823        0.289      173.953       28.001        0.026      333.745        3.260      858.404
11/21/2013  02:41:00      -77.899      200.999      -26.377       63.931       66.675       42.453     4087.150     4445.512     1802.292        2.875        0.517      215.567       37.355        0.030      333.678        3.148      858.419
11/21/2013  02:42:00      -98.777      192.609      -33.479       84.062       84.231       55.739     7066.379     7094.888     3106.785        3.262        0.863      216.460       50.417        0.054      333.630        3.067      858.424
11/21/2013  02:43:00     -108.137      312.698      -39.446       65.411      108.318       42.948     4278.646    11732.796     1844.511        6.444        0.893      330.868       40.276        0.015      333.574        2.974      858.434
11/21/2013  02:44:00      -98.513      306.453      -43.329       59.135       67.346       29.433     3496.947     4535.498      866.318        5.720        0.445      321.898       16.094        0.002      333.545        2.926      858.435
11/21/2013  02:45:00      -26.836      124.010        4.794       31.815       88.506       38.979     1012.176     7833.378     1519.389        1.324        0.518      126.880       42.998        0.115      333.721        3.221      858.439
11/21/2013  02:46:00      -64.578      171.490      -19.471       60.098       73.607       39.445     3611.752     5417.921     1555.935        2.227        0.529      183.246       35.879        0.038      333.634        3.074      858.452
11/21/2013  02:47:00      -74.431      189.612      -22.290       57.012       58.368       38.290     3250.396     3406.772     1466.127        2.505        0.406      203.698       32.449        0.025      333.603        3.023      858.458
11/21/2013  02:48:00      -78.235      195.509      -11.890       59.880       89.825       39.354     3585.602     8068.443     1548.726        2.884        0.660      210.581       40.511        0.037      333.660        3.118      858.459
11/21/2013  02:49:00      -67.456      361.302      -35.268       58.441       85.353       43.096     3415.343     7285.194     1857.277        7.444        0.628      367.545       30.858        0.007      333.537        2.912      858.456
11/21/2013  02:50:00      -85.461      211.837      -31.152       74.817       71.428       48.475     5597.523     5102.013     2349.807        3.310        0.652      228.426       42.914        0.035      333.599        3.016      858.454
11/21/2013  02:51:00      -44.887      281.172      -25.580       48.016       58.554       37.300     2305.568     3428.533     1391.253        4.442        0.356      284.732       31.537        0.012      333.555        2.941      858.452
11/21/2013  02:52:00      -73.012      112.873      -14.674       51.615       61.169       40.235     2664.061     3741.641     1618.832        1.315        0.401      134.428       36.313        0.073      333.596        3.012      858.450
11/21/2013  02:53:00      -26.993      144.977       -3.403       56.315       80.642       34.641     3171.350     6503.138     1199.990        1.631        0.544      147.468       34.322        0.054      333.596        3.014      858.462
11/21/2013  02:54:00     -102.185      102.247      -10.999       47.387       93.740       40.987     2245.570     8787.226     1679.946        1.686        0.636      144.555       36.467        0.064      333.593        3.008      858.455
11/21/2013  02:55:00     -102.273      144.316      -23.497       68.642       68.772       41.892     4711.744     4729.535     1754.953        2.152        0.560      176.881       41.349        0.055      333.589        3.002      858.464
11/21/2013  02:56:00     -152.768      129.324      -28.998       63.695       63.835       43.622     4057.034     4074.888     1902.917        2.547        0.502      200.157       43.897        0.048      333.514        2.876      858.468
11/21/2013  02:57:00     -104.265      124.617      -25.829       67.762       57.299       30.993     4591.662     3283.205      960.596        1.795        0.442      162.483       18.616        0.013      333.576        2.979      858.467
11/21/2013  02:58:00     -191.235      112.138      -36.606       78.172       96.778       45.514     6110.836     9365.941     2071.511        3.401        0.877      221.689       34.393        0.024      333.495        2.841      858.475
11/21/2013  02:59:00     -122.392       84.197      -12.058       69.929       51.832       46.237     4890.018     2686.527     2137.883        1.596        0.486      148.557       33.714        0.052      333.469        2.801      858.493
11/21/2013  03:00:00      -60.801      114.420      -18.417       95.073       96.197       49.236     9038.795     9253.870     2424.183        1.892        1.036      129.572       62.501        0.233      333.501        2.855      858.491
11/21/2013  03:01:00     -143.705      156.923      -19.629      107.512       86.704       59.753    11558.732     7517.556     3570.463        3.415        1.132      212.781       57.278        0.072      333.527        2.898      858.504
11/21/2013  03:02:00      -68.842      192.237      -16.332       56.577       91.967       48.638     3200.950     8457.913     2365.652        2.799        0.701      204.191       45.038        0.049      333.551        2.936      858.510
11/21/2013  03:03:00      -98.591      101.397      -15.447       64.168       88.720       53.295     4117.530     7871.263     2840.408        1.753        0.741      141.426       44.283        0.098      333.507        2.866      858.522
11/21/2013  03:04:00     -142.877      218.899      -24.045       59.825      119.270       50.779     3579.079    14225.225     2578.538        4.464        1.019      261.401       52.524        0.040      333.464        2.793      858.524
11/21/2013  03:05:00      -92.385      205.112      -24.786       61.216       84.624       51.775     3747.453     7161.161     2680.631        3.240        0.679      224.958       39.048        0.030      333.467        2.797      858.529
11/21/2013  03:06:00      -45.577      145.935        0.340       65.794      114.516       37.460     4328.794    13113.856     1403.269        2.111        0.942      152.887       41.998        0.075      333.557        2.948      858.532
11/21/2013  03:07:00     -175.013      172.273      -34.944       93.091      110.581       61.767     8665.983    12228.249     3815.157        4.311        1.235      245.576       66.765        0.074      333.428        2.735      858.537
11/21/2013  03:08:00      -65.595      123.538      -10.552       52.759       59.686       35.703     2783.470     3562.430     1274.681        1.365        0.381      139.873       37.414        0.072      333.461        2.789      858.558
11/21/2013  03:09:00     -114.753      277.984      -35.642       91.308      108.393       48.302     8337.092    11749.035     2333.063        5.706        1.121      300.738       47.425        0.025      333.424        2.729      858.568
11/21/2013  03:10:00     -122.752      220.735      -29.212       64.680       68.495       41.901     4183.539     4691.588     1755.680        3.764        0.532      252.571       37.344        0.022      333.388        2.666      858.566
11/21/2013  03:11:00     -130.007      191.080      -27.085       64.592      110.198       46.929     4172.151    12143.642     2202.311        3.633        0.926      231.113       47.459        0.042      333.391        2.673      858.556
11/21/2013  03:12:00     -126.995      151.554      -31.687       61.491       75.765       29.772     3781.132     5740.338      886.390        2.525        0.520      197.728       31.866        0.026      333.382        2.658      858.553
11/21/2013  03:13:00      -52.886      109.071       -9.209       50.268       61.237       27.686     2526.876     3749.960      766.507        1.091        0.352      121.217       25.156        0.043      333.468        2.803      858.563
11/21/2013  03:14:00      -56.768      144.772      -14.982       69.883       69.432       42.064     4883.610     4820.822     1769.376        1.794        0.574      155.504       37.843        0.059      333.515        2.879      858.575
11/21/2013  03:15:00      -71.176      180.309      -16.584       61.918       86.302       53.226     3833.815     7448.110     2833.032        2.598        0.706      193.849       53.832        0.077      333.478        2.816      858.584
11/21/2013  03:16:00      -98.445      126.249      -27.515       55.308       67.292       31.228     3058.922     4528.211      975.171        1.747        0.428      160.094       12.076        0.006      333.542        2.924      858.595
11/21/2013  03:17:00      -57.880      144.551      -17.017       61.159       76.544       33.154     3740.423     5859.036     1099.155        1.761        0.535      155.709       29.879        0.037      333.387        2.668      858.609
11/21/2013  03:18:00     -101.038      234.981      -19.032       65.995       74.465       47.477     4355.316     5545.036     2254.099        3.897        0.608      255.783       42.354        0.027      333.407        2.698      858.632
11/21/2013  03:19:00     -119.736      253.840      -24.008       70.616      101.413       49.691     4986.602    10284.632     2469.195        4.854        0.887      280.663       40.165        0.020      333.366        2.632      858.644
11/21/2013  03:20:00     -126.327      272.018      -29.466       75.025       86.422       50.162     5628.694     7468.708     2516.190        5.321        0.781      299.921       50.567        0.028      333.332        2.575      858.669
11/21/2013  03:21:00     -138.359      317.003      -36.936       67.161       90.295       56.924     4510.642     8153.200     3240.391        6.845        0.795      345.881       48.752        0.020      333.358        2.617      858.688
11/21/2013  03:22:00     -144.826      202.685      -20.404      110.238      102.175       60.786    12152.354    10439.658     3694.929        4.437        1.314      249.110       61.359        0.061      333.345        2.598      858.686
11/21/2013  03:23:00     -151.660      375.023      -42.056       79.318      121.186       58.874     6291.364    14686.066     3466.099        9.492        1.222      404.528       53.101        0.017      333.278        2.486      858.716
11/21/2013  03:24:00     -120.647      313.156      -38.941       91.191      125.533       64.388     8315.768    15758.491     4145.821        7.117        1.411      335.593       70.240        0.044      333.311        2.540      858.730
11/21/2013  03:25:00      -86.656      210.991      -15.408       80.745       94.414       54.964     6519.694     8914.023     3021.068        3.536        0.923      228.093       57.956        0.065      333.352        2.608      858.745
11/21/2013  03:26:00     -102.295      276.300      -27.277       65.897       93.637       50.334     4342.368     8767.858     2533.561        5.159        0.782      294.629       41.426        0.020      333.343        2.591      858.759
11/21/2013  03:27:00     -115.225      198.274      -22.710       71.569       94.043       40.596     5122.078     8844.072     1648.036        3.436        0.781      229.324       37.088        0.026      333.343        2.592      858.749
11/21/2013  03:28:00      -64.521      132.256      -17.843       68.242       51.257       40.366     4656.960     2627.322     1629.388        1.544        0.446      147.155       29.458        0.040      333.369        2.638      858.762
11/21/2013  03:29:00      -43.464      167.000      -12.969       62.909       90.439       43.100     3957.571     8179.160     1857.568        2.197        0.700      172.563       46.115        0.071      333.418        2.716      858.787
11/21/2013  03:30:00      -94.824      180.269      -29.316       93.044       84.967       53.151     8657.103     7219.411     2825.082        3.052        0.935      203.687       51.030        0.063      333.339        2.588      858.801
11/21/2013  03:31:00     -111.684      149.913      -23.553       73.794       85.845       45.451     5445.620     7369.313     2065.787        2.519        0.744      186.942       39.550        0.045      333.305        2.530      858.798
11/21/2013  03:32:00     -133.705      109.909      -20.423       73.000      109.301       51.223     5329.025    11946.605     2623.745        2.513        0.995      173.081       50.639        0.086      333.308        2.537      858.818
11/21/2013  03:33:00     -169.413      220.709      -42.716      106.362      102.319       52.337    11312.889    10469.253     2739.138        5.187        1.226      278.232       59.926        0.046      333.279        2.485      858.851
11/21/2013  03:34:00      -98.091      221.048      -15.596      105.062      158.054       68.415    11038.101    24981.088     4680.605        4.971        2.035      241.834       79.757        0.109      333.313        2.544      858.861
11/21/2013  03:35:00     -117.703      238.034      -19.434       86.598      117.003       62.329     7499.147    13689.766     3884.859        4.798        1.254      265.545       62.731        0.056      333.270        2.472      858.874
11/21/2013  03:36:00      -91.249      179.563      -11.089       90.856      127.781       63.817     8254.757    16328.066     4072.577        3.467        1.433      201.418       66.342        0.108      333.257        2.451      858.884
11/21/2013  03:37:00      -78.843      131.342      -20.045       63.937       92.426       53.937     4087.911     8542.554     2909.211        1.970        0.777      153.189       53.308        0.121      333.308        2.536      858.886
11/21/2013  03:38:00     -183.856      193.126      -37.401      126.598       92.395       52.410    16027.042     8536.868     2746.852        4.990        1.366      266.648       48.082        0.033      333.153        2.279      858.897
11/21/2013  03:39:00     -115.372      161.757      -32.183       90.544       67.413       37.934     8198.236     4544.569     1438.970        2.734        0.709      198.686       43.945        0.049      333.208        2.371      858.920
11/21/2013  03:40:00     -129.469      236.495      -36.355       89.195       96.542       49.048     7955.739     9320.366     2405.732        4.684        0.984      269.614       44.124        0.027      333.176        2.318      858.952
11/21/2013  03:41:00     -111.685      217.051      -31.249       82.923       80.101       48.058     6876.244     6416.171     2309.533        3.808        0.780      244.100       43.839        0.032      333.171        2.308      858.960
11/21/2013  03:42:00     -159.954      176.235      -31.225       68.319      119.675       53.975     4667.443    14322.221     2913.348        3.976        1.095      238.000       63.977        0.072      333.166        2.300      858.948
11/21/2013  03:43:00     -118.789      132.130      -31.349       93.564       63.755       43.022     8754.151     4064.703     1850.851        2.361        0.733      177.677       40.982        0.053      333.162        2.296      858.951
11/21/2013  03:44:00     -133.893      189.894      -30.165       61.153       92.772       44.309     3739.682     8606.661     1963.305        3.460        0.715      232.351       50.891        0.048      333.131        2.244      858.978
11/21/2013  03:45:00     -127.794      229.234      -27.988       98.816      109.231       52.887     9764.653    11931.338     2797.051        4.707        1.225      262.449       64.410        0.060      333.118        2.222      858.994
11/21/2013  03:46:00     -170.160      251.182      -35.072       99.241      128.150       61.072     9848.800    16422.404     3729.810        6.163        1.500      303.392       67.455        0.049      333.097        2.187      858.993
11/21/2013  03:47:00     -123.895      235.177      -32.614       91.330       97.071       53.358     8341.194     9422.837     2847.103        4.616        1.031      265.816       59.145        0.050      333.086        2.168      859.016
11/21/2013  03:48:00     -111.531      221.333      -24.442       66.708       90.266       50.291     4449.977     8148.027     2529.189        3.857        0.756      247.846       49.834        0.040      333.122        2.227      859.036
11/21/2013  03:49:00     -183.894      184.094      -40.929       74.131       95.189       51.748     5495.389     9060.940     2677.903        4.331        0.862      260.207       57.416        0.049      333.080        2.157      859.053
11/21/2013  03:50:00     -205.016      178.229      -50.423       66.315       77.770       52.557     4397.640     6048.242     2762.283        4.477        0.660      271.656       48.373        0.032      333.050        2.109      859.062
11/21/2013  03:51:00      -83.345      131.933       -0.155      129.573      100.125       59.062    16789.207    10025.099     3488.302        2.732        1.515      156.054       68.227        0.191      333.109        2.208      859.076
11/21/2013  03:52:00      -87.268      157.184      -22.987       64.166      100.860       48.806     4117.264    10172.707     2382.016        2.476        0.834      179.784       45.018        0.063      333.169        2.307      859.081
11/21/2013  03:53:00      -69.742      319.823      -19.008       62.422      119.262       47.598     3896.535    14223.373     2265.565        6.394        1.019      327.339       44.513        0.018      333.082        2.161      859.109
11/21/2013  03:54:00     -100.806      207.225      -22.515       49.791       75.961       44.914     2479.141     5770.127     2017.233        3.194        0.513      230.443       42.618        0.034      333.106        2.202      859.130
11/21/2013  03:55:00      -36.459      101.115      -14.842       36.029       55.019       29.069     1298.087     3027.133      844.979        0.847        0.259      107.488       23.867        0.049      333.204        2.366      859.136
11/21/2013  03:56:00      -59.050      188.591      -16.678       46.268      124.591       41.351     2140.726    15523.040     1709.880        2.935        0.969      197.620       45.458        0.053      333.163        2.296      859.126
11/21/2013  03:57:00      -62.866      168.165      -16.318       60.775      120.065       37.672     3693.606    14415.614     1419.210        2.601        0.976      179.532       45.792        0.065      333.163        2.297      859.152
11/21/2013  03:58:00      -34.981      230.936      -18.111       64.436       76.031       50.091     4151.962     5780.681     2509.148        3.366        0.622      233.570       37.594        0.026      333.071        2.143      859.160
11/21/2013  03:59:00      -49.251      187.668      -21.992       63.333       66.669       35.276     4011.035     4444.731     1244.401        2.391        0.485      194.023       29.728        0.023      333.126        2.234      859.154
11/21/2013  04:00:00      -69.536      181.688       -6.907       58.761       92.461       47.600     3452.814     8549.098     2265.764        2.608        0.713      194.540       50.249        0.067      333.109        2.207      859.179
11/21/2013  04:01:00     -116.202      257.599      -29.043       83.459      107.028       46.248     6965.453    11454.965     2138.894        5.063        1.028      282.595       50.758        0.032      333.057        2.121      859.196
11/21/2013  04:02:00     -112.857      185.537      -39.547       69.313       63.449       48.176     4804.242     4025.750     2320.956        2.994        0.558      217.165       38.541        0.031      333.075        2.149      859.210
11/21/2013  04:03:00     -145.409      149.850      -28.325       89.466       73.261       48.347     8004.207     5367.240     2337.470        3.005        0.785      208.804       44.340        0.045      333.061        2.128      859.223
11/21/2013  04:04:00     -124.957       98.877      -19.801       86.185       67.049       36.299     7427.821     4495.629     1317.606        1.951        0.662      159.346       21.340        0.018      333.180        2.326      859.220
11/21/2013  04:05:00     -189.092      257.335      -49.922      110.697       93.689       54.758    12253.930     8777.536     2998.389        6.424        1.201      319.338       50.309        0.025      333.020        2.059      859.225
11/21/2013  04:06:00      -71.086      279.278      -19.608       66.979      110.207       43.545     4486.163    12145.610     1896.200        5.098        0.926      288.183       36.397        0.016      333.052        2.111      859.238
11/21/2013  04:07:00      -73.744      106.335        0.457       67.946       86.527       41.719     4616.645     7486.989     1740.485        1.529        0.692      129.404       31.202        0.058      333.137        2.253      859.244
11/21/2013  04:08:00      -98.120      120.141      -25.703       71.703       84.714       47.296     5141.392     7176.416     2236.869        1.964        0.728      155.117       49.079        0.100      333.052        2.113      859.250
11/21/2013  04:09:00      -72.261      189.956      -28.270       61.892       84.950       40.026     3830.604     7216.424     1602.103        2.737        0.632      203.236       41.578        0.042      333.076        2.151      859.261
11/21/2013  04:10:00      -68.768       96.296       -0.753       72.185       86.940       46.030     5210.629     7558.488     2118.777        1.444        0.744      118.330       37.104        0.098      333.124        2.234      859.280
11/21/2013  04:11:00     -132.959      117.470      -27.592       82.231       64.656       40.888     6761.983     4180.402     1671.823        2.242        0.631      177.419       36.498        0.042      333.016        2.054      859.298
11/21/2013  04:12:00     -141.574      160.204      -16.261       89.620       84.888       64.649     8031.689     7206.041     4179.431        3.269        0.971      213.796       60.178        0.079      332.995        2.018      859.306
11/21/2013  04:13:00      -98.482      193.992      -16.015       91.954       91.423       54.090     8455.531     8358.194     2925.706        3.366        0.987      217.558       54.962        0.064      333.027        2.070      859.298
11/21/2013  04:14:00      -94.930      190.342      -26.061       73.009      130.771       42.267     5330.386    17100.978     1786.463        3.506        1.211      212.701       36.302        0.029      333.037        2.088      859.287
11/21/2013  04:15:00     -161.680      237.291      -37.906      109.885      117.174       65.450    12074.681    13729.834     4283.737        5.698        1.504      287.137       68.850        0.057      332.960        1.960      859.302
11/21/2013  04:16:00     -199.450      185.407      -57.775       93.135      105.789       45.037     8674.073    11191.290     2028.347        4.969        1.095      272.316       47.908        0.031      332.903        1.866      859.294
11/21/2013  04:17:00      -96.564      189.181      -25.503       73.854       80.206       43.914     5454.466     6432.967     1928.399        2.979        0.691      212.401       38.623        0.033      332.963        1.964      859.289
11/21/2013  04:18:00     -100.709      201.381      -20.221       85.509      107.916       52.261     7311.784    11645.806     2731.263        3.639        1.084      225.159       56.975        0.064      332.970        1.976      859.278
11/21/2013  04:19:00     -120.738      159.919      -23.122       89.312       87.926       42.008     7976.547     7730.903     1764.696        2.908        0.874      200.379       30.101        0.023      332.989        2.008      859.279
11/21/2013  04:20:00     -167.910      323.324      -39.138       80.440      101.475       48.141     6470.560    10297.162     2317.542        7.667        0.954      364.325       25.725        0.005      332.918        1.890      859.292
11/21/2013  04:21:00     -111.548      167.823      -27.935       64.525       79.728       47.456     4163.437     6356.498     2252.114        2.708        0.639      201.513       44.542        0.049      332.950        1.943      859.319
11/21/2013  04:22:00      -69.086      128.615      -20.597       51.643       59.484       40.154     2666.952     3538.383     1612.318        1.478        0.391      145.995       30.503        0.044      333.053        2.116      859.348
11/21/2013  04:23:00      -64.962      140.779       -9.661       84.053      128.107       51.702     7064.924    16411.407     2673.062        2.514        1.307      155.044       60.965        0.155      333.032        2.080      859.379
11/21/2013  04:24:00      -77.531      162.242      -16.138       65.415       95.521       41.897     4279.061     9124.234     1755.348        2.387        0.758      179.816       37.383        0.043      332.996        2.020      859.387
11/21/2013  04:25:00      -96.559      258.846      -23.335       61.808      121.644       50.377     3820.229    14797.350     2537.875        4.901        1.058      276.270       54.263        0.039      332.969        1.976      859.389
11/21/2013  04:26:00      -53.525      271.456      -32.372       62.628      136.330       38.367     3922.292    18585.926     1472.032        5.079        1.199      276.683       42.400        0.023      332.965        1.969      859.405
11/21/2013  04:27:00      -82.753      245.680      -29.011       55.535      100.958       46.622     3084.139    10192.522     2173.587        4.175        0.773      259.243       45.358        0.031      332.964        1.968      859.415
11/21/2013  04:28:00      -19.206      287.236      -39.675       49.619       77.489       37.069     2462.066     6004.539     1374.096        4.714        0.492      287.877       31.327        0.012      332.914        1.884      859.420
11/21/2013  04:29:00      -66.203      188.025      -23.512       68.066       66.341       32.920     4633.026     4401.163     1083.717        2.520        0.506      199.340       28.062        0.020      333.023        2.064      859.421
11/21/2013  04:30:00      -38.685      239.872      -30.699       70.575      153.933       44.520     4980.890    23695.300     1982.061        4.531        1.533      242.971       54.192        0.050      333.008        2.039      859.432
11/21/2013  04:31:00      -79.437      264.937      -26.250       69.838       84.429       48.459     4877.293     7128.252     2348.266        4.577        0.718      276.589       49.422        0.032      332.932        1.913      859.456
11/21/2013  04:32:00      -88.977      235.046      -29.405       90.279      104.358       50.283     8150.320    10890.526     2528.336        4.279        1.078      251.323       46.526        0.034      332.975        1.985      859.495
11/21/2013  04:33:00      -87.012      211.264      -13.809       80.102       92.438       59.752     6416.379     8544.844     3570.334        3.546        0.927      228.481       60.051        0.069      332.973        1.981      859.514
11/21/2013  04:34:00      -77.915      232.429      -12.143       57.637      140.964       53.096     3322.050    19870.723     2819.139        4.312        1.301      245.141       53.281        0.047      332.948        1.941      859.526
11/21/2013  04:35:00      -64.333      219.278      -20.389       70.884       89.790       40.266     5024.572     8062.287     1621.382        3.367        0.735      228.520       28.931        0.016      332.974        1.984      859.548
11/21/2013  04:36:00     -120.420      224.828      -10.501      103.471      122.439       64.856    10706.153    14991.231     4206.299        4.753        1.495      255.047       63.680        0.062      332.924        1.900      859.564
11/21/2013  04:37:00      -56.780      228.986      -23.262       45.453       62.154       35.830     2065.996     3863.102     1283.818        3.170        0.361      235.921       27.507        0.014      332.970        1.977      859.588
11/21/2013  04:38:00      -60.989      172.273      -10.586       50.976      155.020       42.117     2598.515    24031.158     1773.804        3.095        1.420      182.750       55.657        0.093      332.979        1.992      859.600
11/21/2013  04:39:00     -147.312      194.994      -30.355       91.759       84.156       62.421     8419.636     7082.310     3896.330        4.002        0.970      244.384       55.516        0.052      332.943        1.931      859.620
11/21/2013  04:40:00     -117.280      189.873      -28.020       74.223       58.552       47.036     5508.983     3428.319     2212.388        3.087        0.557      223.173       38.191        0.029      332.932        1.912      859.640
11/21/2013  04:41:00      -74.966      190.339      -21.044       65.130       64.491       41.790     4241.927     4159.053     1746.421        2.622        0.507      204.570       38.355        0.035      332.992        2.012      859.667
11/21/2013  04:42:00      -63.096      177.992       -5.109       48.653       95.028       43.932     2367.137     9030.231     1930.034        2.451        0.666      188.844       48.155        0.065      333.017        2.055      859.693
11/21/2013  04:43:00      -41.853      193.893      -21.529       54.807       98.435       41.444     3003.860     9689.376     1717.585        2.711        0.721      198.359       44.783        0.051      332.997        2.022      859.708
11/21/2013  04:44:00     -135.330      116.997      -22.200       70.751       98.224       41.281     5005.743     9647.992     1704.121        2.442        0.818      178.892       39.665        0.049      333.045        2.100      859.716
11/21/2013  04:45:00     -129.418      177.737      -28.260       79.975      132.846       50.113     6396.059    17648.121     2511.312        3.784        1.328      219.862       63.220        0.083      332.899        1.860      859.724
11/21/2013  04:46:00      -82.268      139.001      -18.749       75.771       76.173       42.223     5741.295     5802.393     1782.795        1.988        0.666      161.522       46.522        0.083      332.966        1.971      859.733
11/21/2013  04:47:00      -91.360      113.290      -12.490       60.151       73.262       39.924     3618.157     5367.305     1593.948        1.596        0.529      145.538       35.264        0.059      332.969        1.976      859.740
11/21/2013  04:48:00      -88.908      149.920      -10.367       73.117       50.485       40.786     5346.029     2548.714     1663.478        2.002        0.478      174.300       29.324        0.028      333.039        2.092      859.738
11/21/2013  04:49:00     -197.633      185.707      -49.674       79.504       74.736       45.077     6320.913     5585.474     2031.909        4.497        0.697      271.194       45.251        0.028      332.893        1.849      859.750
11/21/2013  04:50:00     -140.195      204.725      -27.106       70.834       79.386       48.980     5017.509     6302.181     2399.011        3.801        0.686      248.127       42.709        0.030      332.925        1.902      859.765
11/21/2013  04:51:00      -83.813      162.051      -10.403       60.196       54.105       33.334     3623.589     2927.373     1111.127        2.053        0.383      182.442       26.209        0.021      332.979        1.993      859.791
11/21/2013  04:52:00      -44.366      168.038       -9.857       49.082       96.309       39.226     2409.092     9275.363     1538.653        2.176        0.661      173.796       50.521        0.084      333.064        2.133      859.815
11/21/2013  04:53:00      -55.195      183.717       -1.441       51.862       81.074       47.420     2689.616     6572.943     2248.623        2.415        0.576      191.829       49.119        0.066      333.060        2.126      859.826
11/21/2013  04:54:00      -52.757      206.802      -19.278       66.817      113.957       53.353     4464.517    12986.158     2846.500        3.311        1.015      213.425       64.010        0.090      333.024        2.065      859.832
11/21/2013  04:55:00     -110.999      191.345      -11.011       70.822       83.765       47.208     5015.800     7016.608     2228.630        3.166        0.713      221.209       51.571        0.054      333.008        2.038      859.846
11/21/2013  04:56:00      -28.765      218.159      -20.385       59.020       80.534       42.021     3483.354     6485.788     1765.740        3.028        0.587      220.047       42.189        0.037      333.063        2.130      859.855
11/21/2013  04:57:00      -77.125      198.434      -19.602       48.872       79.663       43.957     2388.456     6346.160     1932.211        2.819        0.533      212.896       41.289        0.038      333.071        2.144      859.876
11/21/2013  04:58:00      -77.707      295.930      -33.975       53.016       81.099       42.974     2810.684     6577.075     1846.792        5.300        0.562      305.962       39.871        0.017      333.024        2.066      859.884
11/21/2013  04:59:00      -56.405      268.593      -31.683       63.855       61.783       35.693     4077.403     3817.185     1273.961        4.275        0.458      274.452       28.584        0.011      333.063        2.130      859.900
11/21/2013  05:00:00      -50.388      210.780      -28.152       72.679       71.622       43.727     5282.276     5129.779     1912.008        3.004        0.616      216.719       32.027        0.022      333.111        2.211      859.913
11/21/2013  05:01:00      -23.505      207.952      -15.470       63.590       92.059       45.679     4043.683     8474.782     2086.570        2.932        0.730      209.276       46.126        0.049      333.047        2.105      859.930
11/21/2013  05:02:00      -67.552      223.489      -16.774       63.272       62.555       39.934     4003.345     3913.161     1594.757        3.215        0.476      233.475       32.071        0.019      333.075        2.149      859.938
11/21/2013  05:03:00      -74.582      142.738       -8.547       66.974       91.572       44.033     4485.470     8385.519     1938.921        2.041        0.740      161.048       44.285        0.076      333.061        2.128      859.956
11/21/2013  05:04:00      -84.269      109.512       -7.854       56.642       56.795       35.808     3208.314     3225.668     1282.240        1.343        0.386      138.182       30.622        0.049      333.089        2.174      859.970
11/21/2013  05:05:00     -158.638      135.192      -51.334       78.049       80.881       42.427     6091.574     6541.736     1800.085        3.025        0.722      208.429       42.126        0.041      332.963        1.964      859.979
11/21/2013  05:06:00     -128.636      196.015      -24.375       75.573      106.919       61.511     5711.212    11431.751     3783.563        3.824        1.046      234.454       51.595        0.048      333.000        2.025      859.982
11/21/2013  05:07:00      -75.170      122.054      -17.162       68.008       77.074       38.501     4625.113     5940.476     1482.348        1.644        0.602      143.345       40.511        0.080      333.003        2.034      860.008
11/21/2013  05:08:00      -89.628      182.170      -15.818       87.201       85.995       48.670     7604.022     7395.174     2368.764        2.942        0.868      203.025       57.873        0.081      333.005        2.035      860.030
11/21/2013  05:09:00      -77.244      199.016      -22.114      112.583      119.308       46.796    12675.013    14234.478     2189.879        3.758        1.455      213.480       37.668        0.031      333.014        2.048      860.033
11/21/2013  05:10:00      -55.871      209.248      -13.260       60.039       75.203       41.476     3604.727     5655.456     1720.220        2.903        0.549      216.578       39.096        0.033      333.045        2.102      860.061
11/21/2013  05:11:00      -49.135      194.871      -22.122       85.465      133.623       46.145     7304.265    17855.002     2129.326        3.408        1.364      200.970       34.650        0.030      333.032        2.081      860.067
11/21/2013  05:12:00      -62.629      244.443      -21.057       51.480       70.042       38.524     2650.179     4905.949     1484.105        3.658        0.452      252.338       32.564        0.017      333.004        2.032      860.075
11/21/2013  05:13:00      -45.623      104.837        1.463       41.926       89.442       47.805     1757.792     7999.867     2285.300        1.256        0.602      114.334       52.381        0.210      333.074        2.149      860.098
11/21/2013  05:14:00      -65.562      164.684      -18.762       68.152       67.529       40.247     4644.717     4560.162     1619.813        2.130        0.541      177.254       37.022        0.044      333.060        2.127      860.118
11/21/2013  05:15:00      -71.863      196.155      -26.087       60.286       59.035       34.000     3634.352     3485.177     1156.029        2.630        0.414      208.905       23.626        0.013      332.981        1.996      860.127
11/21/2013  05:16:00     -111.629      143.666      -19.366       67.319       76.834       46.356     4531.841     5903.472     2148.888        2.303        0.629      181.937       38.663        0.045      333.003        2.033      860.137
11/21/2013  05:17:00      -51.562      160.026        1.445       84.657       92.775       51.247     7166.773     8607.274     2626.236        2.333        0.920      168.128       46.545        0.077      332.966        1.970      860.159
11/21/2013  05:18:00      -52.428      208.886      -26.773       58.515       63.348       35.108     3423.988     4013.015     1232.581        2.788        0.433      215.365       34.868        0.026      333.028        2.071      860.179
11/21/2013  05:19:00      -46.736      252.243      -28.171       61.494       72.293       37.583     3781.559     5226.349     1412.458        3.851        0.521      256.536       38.572        0.023      332.956        1.953      860.216
11/21/2013  05:20:00      -56.758      172.576        3.181       86.015      100.994       52.440     7398.542    10199.716     2749.953        2.668        1.017      181.670       51.004        0.079      333.002        2.029      860.241
11/21/2013  05:21:00      -71.906      159.677       -8.978       54.085       78.970       40.543     2925.235     6236.274     1643.721        2.077        0.540      175.120       38.296        0.048      333.008        2.040      860.266
11/21/2013  05:22:00      -37.259      116.621      -13.914       62.496       65.208       31.716     3905.694     4252.065     1005.909        1.217        0.458      122.428       35.692        0.085      333.022        2.064      860.287
11/21/2013  05:23:00      -78.799      132.166      -19.131       90.325       78.083       50.398     8158.552     6096.982     2539.909        2.042        0.840      153.874       44.824        0.085      333.008        2.041      860.306
11/21/2013  05:24:00      -49.551      187.178      -14.369       54.803      107.515       36.396     3003.345    11559.482     1324.681        2.679        0.794      193.626       46.843        0.059      332.976        1.988      860.313
11/21/2013  05:25:00      -48.480       38.958        0.261       35.059       30.558       24.487     1229.132      933.773      599.636        0.331        0.138       62.193       21.717        0.122      332.999        2.027      860.313
11/21/2013  05:26:00      -22.952      107.184       -7.170       57.780       95.894       41.744     3338.474     9195.714     1742.572        1.317        0.714      109.614       47.340        0.187      333.018        2.058      860.323
11/21/2013  05:27:00      -41.020      154.756      -12.622       42.004       82.871       42.900     1764.324     6867.588     1840.428        1.813        0.524      160.100       44.552        0.077      332.983        2.000      860.338
11/21/2013  05:28:00      -97.683      177.747      -15.443       95.259       93.927       49.669     9074.354     8822.264     2467.034        3.086        1.018      202.820       53.202        0.069      332.984        2.001      860.339
11/21/2013  05:29:00      -60.294      332.711      -28.160       73.021      106.921       50.051     5332.090    11432.197     2505.109        6.719        0.963      338.130       53.308        0.025      332.964        1.965      860.359
11/21/2013  05:30:00        5.927      322.996      -40.203       84.823       88.614       52.571     7194.908     7852.416     2763.701        6.189        0.891      323.050       44.817        0.019      332.974        1.981      860.383
11/21/2013  05:31:00      -14.411      212.544       -6.464       75.493      123.810       61.413     5699.258    15329.017     3771.545        3.511        1.240      213.032       70.308        0.109      332.924        1.902      860.402
11/21/2013  05:32:00      -76.351      302.684      -31.233      111.457      132.062       61.168    12422.724    17440.405     3741.574        6.601        1.680      312.165       72.713        0.054      332.918        1.891      860.429
11/21/2013  05:33:00      -86.542      356.756      -37.208       81.234      132.506       56.372     6599.002    17557.773     3177.804        8.174        1.367      367.102       63.685        0.030      332.902        1.865      860.454
11/21/2013  05:34:00      -74.304      303.191      -32.080       92.540      108.926       43.233     8563.733    11864.944     1869.056        6.038        1.115      312.163       39.898        0.016      332.926        1.903      860.482
11/21/2013  05:35:00     -119.938      367.014      -45.036      122.933      166.585       54.766    15112.488    27750.466     2999.302        9.848        2.293      386.114       58.911        0.023      332.870        1.811      860.501
11/21/2013  05:36:00     -155.709      337.044      -54.889      109.976      120.208       64.725    12094.644    14449.868     4189.277        8.579        1.537      371.274       52.525        0.020      332.844        1.768      860.508
11/21/2013  05:37:00      -35.345      160.544       -9.949       85.945       96.042       46.718     7386.523     9224.137     2182.557        2.295        0.940      164.389       53.995        0.108      332.870        1.813      860.535
11/21/2013  05:38:00      -38.712      248.581      -30.113       50.791       84.977       38.223     2579.743     7221.088     1461.013        3.773        0.563      251.577       39.869        0.025      332.825        1.736      860.534
11/21/2013  05:39:00       -2.692      150.422      -12.676       73.311       65.946       41.359     5374.567     4348.922     1710.569        1.711        0.572      150.446       35.047        0.054      332.883        1.835      860.547
11/21/2013  05:40:00      -49.582      292.371      -39.522       87.878      131.189       58.321     7722.586    17210.581     3401.293        5.891        1.417      296.545       61.445        0.043      332.858        1.791      860.578
11/21/2013  05:41:00      -12.391      424.000      -56.505      102.995      101.874       49.697    10607.966    10378.269     2469.763       10.328        1.173      424.181       46.373        0.012      332.789        1.676      860.593
11/21/2013  05:42:00      -27.079      204.393      -23.182       83.954      102.580       45.007     7048.331    10522.751     2025.644        3.132        0.980      206.179       45.568        0.049      332.931        1.912      860.615
11/21/2013  05:43:00      -44.871      270.852      -40.999       63.943      116.875       45.592     4088.670    13659.845     2078.673        4.844        0.991      274.544       60.887        0.049      332.823        1.733      860.650
11/21/2013  05:44:00      -47.756      168.458      -11.450       59.385       82.977       47.831     3526.556     6885.231     2287.816        2.174        0.635      175.096       46.734        0.071      332.925        1.904      860.658
11/21/2013  05:45:00      -54.520      189.302      -17.183       77.067      113.743       51.647     5939.392    12937.477     2667.427        3.032        1.077      196.997       56.104        0.081      332.883        1.834      860.667
11/21/2013  05:46:00      -20.313      217.528      -35.242       52.649       93.397       35.182     2771.935     8722.955     1237.796        3.085        0.637      218.474       42.103        0.037      332.789        1.678      860.676
11/21/2013  05:47:00        1.025      180.960      -25.695       71.505       91.294       40.018     5113.030     8334.568     1601.473        2.423        0.752      180.963       44.847        0.061      332.836        1.754      860.689
11/21/2013  05:48:00        5.998      225.299      -35.402       77.566       89.495       49.371     6016.468     8009.281     2437.469        3.425        0.823      225.379       47.184        0.044      332.826        1.737      860.693
11/21/2013  05:49:00      -10.272      270.499      -42.303       52.355       60.730       32.338     2741.074     3688.133     1045.756        4.127        0.374      270.694       19.696        0.005      332.722        1.564      860.691
11/21/2013  05:50:00      -12.026      195.559      -26.781       40.695       68.002       38.176     1656.095     4624.231     1457.428        2.342        0.387      195.928       35.970        0.034      332.752        1.616      860.721
11/21/2013  05:51:00      -81.039      180.045      -15.306       82.471       83.757       42.706     6801.463     7015.266     1823.782        2.743        0.782      197.442       32.730        0.027      332.814        1.719      860.719
11/21/2013  05:52:00     -124.870      140.460      -28.030       94.666       67.290       49.506     8961.595     4527.924     2450.809        2.602        0.797      187.940       40.528        0.047      332.795        1.690      860.744
11/21/2013  05:53:00       10.845      117.692      -11.888       42.327       82.767       34.540     1791.593     6850.353     1192.994        1.197        0.492      118.191       42.630        0.130      332.825        1.740      860.776
11/21/2013  05:54:00       -5.434      180.157      -16.369       60.231       71.258       40.774     3627.816     5077.762     1662.499        2.156        0.518      180.239       41.353        0.053      332.761        1.632      860.807
11/21/2013  05:55:00       20.383      135.415       -4.572       61.562       70.316       51.583     3789.885     4944.355     2660.758        1.508        0.570      136.940       47.539        0.121      332.757        1.626      860.813
11/21/2013  05:56:00      -46.338      123.020       -5.972       59.978       59.686       40.754     3597.315     3562.390     1660.927        1.307        0.441      131.457       47.658        0.131      332.857        1.792      860.833
11/21/2013  05:57:00      -47.873      118.442       -2.765       51.227       60.400       37.397     2624.187     3648.107     1398.564        1.200        0.384      127.751       33.476        0.069      332.829        1.746      860.856
11/21/2013  05:58:00       43.489      103.709      -14.982       58.847       59.407       37.918     3463.021     3529.140     1437.790        1.065        0.421      112.458       35.480        0.100      332.728        1.579      860.893
11/21/2013  05:59:00      -35.643      144.085      -25.640       53.066       66.870       27.508     2816.017     4471.649      756.691        1.536        0.402      148.428       25.435        0.029      332.731        1.584      860.913
11/21/2013  06:00:00      -33.405      133.954      -10.210       55.370       97.145       41.109     3065.808     9437.231     1689.981        1.668        0.710      138.057       43.574        0.100      332.782        1.668      860.932
11/21/2013  06:01:00       -1.872      166.006       -1.528       60.456       52.106       41.684     3654.942     2715.080     1737.515        1.783        0.405      166.017       36.934        0.049      332.835        1.757      860.957
11/21/2013  06:02:00      -19.005      161.378      -32.380       71.416       46.434       37.947     5100.275     2156.136     1440.001        1.807        0.435      162.493       25.099        0.024      332.780        1.664      860.958
11/21/2013  06:03:00        5.523      218.965      -30.135       67.320       99.161       46.373     4531.971     9832.933     2150.439        3.270        0.826      219.035       50.359        0.053      332.697        1.525      860.980
11/21/2013  06:04:00       -6.810      124.702      -16.251       75.802       69.841       35.045     5745.918     4877.824     1228.129        1.385        0.593      124.888       37.702        0.091      332.781        1.666      861.008
11/21/2013  06:05:00       19.584      130.974      -24.447       57.715       81.940       32.740     3331.054     6714.218     1071.933        1.462        0.556      132.430       34.796        0.069      332.701        1.533      861.003
11/21/2013  06:06:00      -18.528      256.244      -22.394       88.066      118.702       56.511     7755.677    14090.250     3193.470        4.577        1.252      256.913       65.960        0.066      332.707        1.541      861.021
11/21/2013  06:07:00       -4.187      240.632      -25.089       57.668      122.067       44.649     3325.553    14900.367     1993.549        3.938        1.011      240.668       58.810        0.060      332.694        1.520      861.038
11/21/2013  06:08:00      -40.317      115.025      -10.162       42.213       55.082       27.304     1781.969     3034.006      745.520        1.026        0.278      121.886       24.033        0.039      332.851        1.782      861.046
11/21/2013  06:09:00       16.172       84.145        9.866       68.122       53.611       41.672     4640.541     2874.106     1736.539        0.834        0.463       85.685       33.564        0.153      332.826        1.742      861.058
11/21/2013  06:10:00      -35.373      187.982       -3.000      119.668      132.596       60.592    14320.441    17581.763     3671.395        3.608        1.779      191.281       68.290        0.127      332.756        1.624      861.104
11/21/2013  06:11:00      -78.911      172.055      -18.358      128.809       89.929       56.044    16591.783     8087.144     3140.935        3.199        1.391      189.287       43.008        0.052      332.813        1.717      861.113
11/21/2013  06:12:00      -54.987      249.889      -29.200      118.589      114.462       66.654    14063.354    13101.651     4442.700        4.896        1.580      255.867       71.174        0.077      332.713        1.553      861.107
11/21/2013  06:13:00      -43.527      307.849      -41.595       62.419       84.310       41.384     3896.112     7108.176     1712.603        5.555        0.636      310.911       36.621        0.014      332.704        1.536      861.116
11/21/2013  06:14:00      -16.367      247.669      -31.290       41.893       57.224       25.320     1755.062     3274.550      641.110        3.413        0.284      248.209       22.771        0.008      332.650        1.447      861.146
11/21/2013  06:15:00       42.200      160.671      -16.694       58.854      103.580       47.057     3463.840    10728.726     2214.337        2.214        0.820      166.120       44.397        0.071      332.640        1.432      861.170
11/21/2013  06:16:00       80.527       87.938       -2.552       64.169       39.094       32.005     4117.640     1528.326     1024.304        1.045        0.334      119.238       22.895        0.037      332.631        1.420      861.179
11/21/2013  06:17:00       38.072      112.666       -4.352       43.232       69.194       42.090     1868.976     4787.807     1771.576        1.129        0.421      118.925       39.926        0.113      332.611        1.386      861.228
11/21/2013  06:18:00      119.277       68.938       25.574       72.666       50.148       36.680     5280.382     2514.849     1345.449        1.439        0.457      137.766       21.547        0.024      332.600        1.367      861.239
11/21/2013  06:19:00      126.227       98.865        8.038       62.772       52.007       46.369     3940.351     2704.731     2150.063        1.728        0.440      160.336       12.729        0.006      332.521        1.234      861.264
11/21/2013  06:20:00      103.271       46.045        1.079       56.153       49.315       30.741     3153.192     2432.008      945.037        0.966        0.327      113.071       14.202        0.016      332.585        1.343      861.294
11/21/2013  06:21:00       22.819       97.387      -15.096       29.026       86.761       34.235      842.496     7527.423     1172.038        0.989        0.477      100.024       32.893        0.108      332.508        1.215      861.313
11/21/2013  06:22:00       12.725      100.084       -6.570       39.852       64.803       31.758     1588.195     4199.459     1008.565        0.851        0.340      100.889       33.625        0.111      332.484        1.175      861.335
11/21/2013  06:23:00       89.050      126.752      -10.059       49.071       47.690       34.558     2407.922     2274.307     1194.229        1.499        0.294      154.907       30.222        0.038      332.478        1.165      861.358
11/21/2013  06:24:00       87.826      129.476       -8.353       64.270       54.582       41.697     4130.613     2979.242     1738.615        1.670        0.442      156.453       35.518        0.052      332.442        1.106      861.390
11/21/2013  06:25:00       61.774       84.633       -0.074       40.201       49.873       32.997     1616.159     2487.303     1088.801        0.808        0.260      104.780       18.648        0.032      332.429        1.086      861.396
11/21/2013  06:26:00       13.923      175.469      -26.777       26.089       48.972       18.644      680.629     2398.237      347.595        1.756        0.171      176.020       15.658        0.008      332.387        1.014      861.417
11/21/2013  06:27:00       18.007      107.748       -9.606       42.745       60.425       34.309     1827.162     3651.159     1177.079        0.934        0.333      109.242       36.493        0.112      332.418        1.067      861.446
11/21/2013  06:28:00      -10.610      170.775      -29.390       69.050       66.401       31.596     4767.885     4409.043      998.304        2.016        0.509      171.105       31.037        0.033      332.406        1.045      861.478
11/21/2013  06:29:00      -25.631      110.043       -2.175       84.091       80.333       40.736     7071.223     6453.313     1659.431        1.397        0.759      112.989       38.425        0.116      332.513        1.224      861.491
11/21/2013  06:30:00      -80.366      156.360      -30.809       55.642       70.425       32.770     3096.002     4959.693     1073.886        2.049        0.456      175.804       33.350        0.036      332.483        1.173      861.498
11/21/2013  06:31:00      -40.612      117.420        6.710       45.374       70.451       41.799     2058.834     4963.306     1747.126        1.212        0.438      124.245       47.287        0.145      332.518        1.232      861.515
11/21/2013  06:32:00       -3.906      196.693      -18.705       36.089       73.217       30.544     1302.429     5360.725      932.948        2.332        0.380      196.731       35.815        0.033      332.474        1.157      861.549
11/21/2013  06:33:00      -39.497      219.456      -29.022       58.003       74.228       35.078     3364.295     5509.822     1230.450        3.033        0.505      222.982       27.970        0.016      332.440        1.102      861.566
11/21/2013  06:34:00     -110.953      111.012      -24.088       54.419       65.850       31.981     2961.449     4336.277     1022.767        1.677        0.416      156.953       27.229        0.030      332.475        1.161      861.556
11/21/2013  06:35:00      -84.599      165.580      -20.203       67.615       88.301       48.582     4571.788     7797.100     2360.214        2.485        0.736      185.941       51.699        0.077      332.446        1.112      861.567
11/21/2013  06:36:00      -15.164      149.017        1.628       46.702       88.232       48.083     2181.053     7784.802     2311.986        1.736        0.614      149.787       56.281        0.141      332.499        1.200      861.611
11/21/2013  06:37:00       -7.753      182.732      -16.241       58.055       83.101       39.729     3370.399     6905.699     1578.425        2.278        0.593      182.896       36.476        0.040      332.432        1.088      861.616
11/21/2013  06:38:00      -37.110      129.609      -19.342       49.094       40.771       32.036     2410.241     1662.241     1026.299        1.182        0.255      134.817       26.806        0.040      332.476        1.163      861.634
11/21/2013  06:39:00       -7.249       65.771       -0.912       40.992       49.876       25.963     1680.304     2487.583      674.063        0.461        0.242       66.170       24.635        0.139      332.509        1.217      861.660
11/21/2013  06:40:00      -53.424      191.383      -28.173       53.053       57.645       24.262     2814.668     3322.927      588.661        2.350        0.336      198.699       14.753        0.006      332.449        1.116      861.687
11/21/2013  06:41:00      -33.742      163.421      -21.049       55.127       52.756       28.769     3038.949     2783.197      827.645        1.747        0.332      166.868       28.136        0.028      332.455        1.125      861.719
11/21/2013  06:42:00      -35.883      145.890      -16.933       52.369       60.139       28.493     2742.513     3616.691      811.863        1.501        0.359      150.238       27.283        0.033      332.524        1.242      861.740
11/21/2013  06:43:00      -99.903      145.621      -22.483       47.969       60.327       32.088     2301.070     3639.391     1029.617        1.933        0.349      176.596       24.485        0.019      332.478        1.166      861.769
11/21/2013  06:44:00      -94.235      117.634      -19.006       41.876       72.815       31.562     1753.596     5302.007      996.171        1.556        0.403      150.725       30.841        0.042      332.443        1.108      861.766
11/21/2013  06:45:00      -65.890      134.957      -14.828       37.794       45.909       31.396     1428.389     2107.622      985.681        1.365        0.226      150.183       28.715        0.037      332.543        1.274      861.801
11/21/2013  06:46:00      -29.304      221.522      -28.413       39.164       78.543       34.581     1533.819     6169.069     1195.812        2.982        0.445      223.451       33.787        0.023      332.541        1.269      861.840
11/21/2013  06:47:00      -47.728      193.557      -17.911       52.794       40.965       29.399     2787.163     1678.127      864.294        2.270        0.266      199.354       19.031        0.009      332.578        1.330      861.835
11/21/2013  06:48:00      -15.438      116.491        0.138       27.706       71.029       24.816      767.639     5045.107      615.822        1.012        0.321      117.509       31.314        0.071      332.515        1.228      861.813
11/21/2013  06:49:00      -22.758       15.181       14.658       36.385       28.567       27.379     1323.832      816.054      749.636        0.193        0.144       27.357       26.136        0.913      332.708        1.546      861.844
11/21/2013  06:50:00       -1.490        7.878        9.170       28.826       33.939       16.654      830.912     1151.885      277.347        0.120        0.113        8.018       19.793        6.095      332.608        1.381      861.868
11/21/2013  06:51:00       58.079       57.906        6.824       29.909       28.133       23.823      894.557      791.453      567.537        0.451        0.113       82.014       18.240        0.049      332.520        1.233      861.877
11/21/2013  06:52:00      -38.978      130.998       -6.861       43.450       86.354       30.877     1887.870     7457.072      953.404        1.451        0.515      136.674       31.332        0.053      332.622        1.402      861.912
11/21/2013  06:53:00      -52.229       89.131      -22.956       63.673       35.172       29.202     4054.258     1237.061      852.767        0.867        0.307      103.306       17.326        0.028      332.615        1.394      861.928
11/21/2013  06:54:00      -23.189       41.850      -17.199       48.523       28.508       28.706     2354.461      812.686      824.043        0.329        0.200       47.845       26.378        0.304      332.580        1.335      861.935
11/21/2013  06:55:00      -26.900       67.794       -4.814       48.601       35.929       21.204     2362.043     1290.859      449.608        0.472        0.205       72.936       16.952        0.054      332.615        1.393      861.954
11/21/2013  06:56:00       15.531       92.712       -6.106       30.195       32.386       21.508      911.742     1048.858      462.592        0.565        0.121       94.004       18.467        0.039      332.563        1.307      861.968
11/21/2013  06:57:00      -38.408       92.432      -14.521       45.938       45.198       38.710     2110.345     2042.877     1498.458        0.794        0.283      100.095       37.427        0.140      332.665        1.474      861.983
11/21/2013  06:58:00     -117.117      144.177      -31.041       69.248       74.237       40.306     4795.343     5511.130     1624.558        2.370        0.597      185.751       41.008        0.049      332.655        1.456      862.002
11/21/2013  06:59:00      -87.233      281.001      -40.111       54.633       75.305       32.377     2984.743     5670.792     1048.295        4.894        0.485      294.229       30.092        0.010      332.622        1.399      862.030
11/21/2013  07:00:00      -63.666      133.099      -19.659       50.586       82.737       31.505     2558.964     6845.463      992.596        1.627        0.520      147.543       35.036        0.056      332.727        1.576      862.057
11/21/2013  07:01:00       23.675      145.507      -15.352       39.640       88.946       37.317     1571.304     7911.378     1392.532        1.642        0.544      147.420       48.997        0.110      332.685        1.508      862.077
11/21/2013  07:02:00       -6.660      264.605      -46.062       46.300       55.691       24.710     2143.664     3101.446      610.602        3.902        0.293      264.688       15.784        0.004      332.572        1.318      862.097
11/21/2013  07:03:00      -41.233      158.540      -17.296       35.510       62.173       23.525     1260.943     3865.468      553.435        1.641        0.284      163.815       26.986        0.027      332.664        1.474      862.109
11/21/2013  07:04:00      -26.710      113.686      -14.350       40.825       67.591       20.982     1666.717     4568.567      440.229        1.026        0.334      116.781       19.897        0.029      332.728        1.580      862.120
11/21/2013  07:05:00       40.464      137.405      -19.672       54.507       71.738       36.946     2970.980     5146.295     1365.016        1.519        0.474      143.239       33.072        0.053      332.610        1.385      862.151
11/21/2013  07:06:00        5.405      146.551      -10.113       35.926       76.244       36.557     1290.708     5813.113     1336.443        1.502        0.422      146.650       41.988        0.082      332.604        1.375      862.164
11/21/2013  07:07:00      -42.015      147.299      -17.398       30.695       54.212       29.116      942.184     2938.891      847.765        1.425        0.236      153.174       33.594        0.048      332.741        1.602      862.175
11/21/2013  07:08:00      -12.763      129.625      -17.630       48.509       48.702       24.392     2353.100     2371.865      594.957        1.130        0.266      130.252       16.808        0.017      332.677        1.495      862.182
11/21/2013  07:09:00       14.380       94.883      -11.159       34.198       30.049       19.747     1169.522      902.959      389.942        0.590        0.123       95.967       18.015        0.035      332.662        1.470      862.188
11/21/2013  07:10:00        2.844       81.290       -9.849       18.038       38.549       16.436      325.352     1486.034      270.130        0.440        0.104       81.340       15.868        0.038      332.660        1.466      862.190
11/21/2013  07:11:00      -23.488      191.351      -23.150       45.804       59.007       24.037     2097.964     3481.806      577.758        2.193        0.308      192.788       27.055        0.020      332.637        1.427      862.216
11/21/2013  07:12:00     -117.889      129.412      -28.412       69.543       50.077       33.539     4836.216     2507.677     1124.849        1.996        0.423      175.058       38.962        0.050      332.643        1.437      862.238
11/21/2013  07:13:00      -28.977      159.444      -15.824       35.924      117.241       39.567     1290.564    13745.340     1565.533        2.155        0.830      162.055       48.983        0.091      332.683        1.504      862.241
11/21/2013  07:14:00      -65.627      200.200      -16.973       47.054       87.508       37.413     2214.052     7657.629     1399.756        2.797        0.564      210.682       37.150        0.031      332.647        1.443      862.257
11/21/2013  07:15:00      -53.580      127.787      -19.843       64.475       51.393       26.651     4157.031     2641.259      710.283        1.355        0.375      138.565       26.334        0.036      332.702        1.536      862.287
11/21/2013  07:16:00      -37.197      152.734      -12.919       42.771       63.615       44.370     1829.364     4046.926     1968.683        1.636        0.392      157.198       33.776        0.046      332.739        1.595      862.291
11/21/2013  07:17:00      -59.761       90.821       -6.547       38.441       50.951       24.796     1477.689     2595.969      614.861        0.827        0.234      108.719       20.549        0.036      332.762        1.636      862.305
11/21/2013  07:18:00      -54.923       51.575        1.205       37.739       32.731       22.149     1424.246     1071.319      490.563        0.433        0.149       75.343       21.325        0.080      332.679        1.498      862.313
11/21/2013  07:19:00     -100.685       83.859      -21.359       49.208       49.218       26.527     2421.436     2422.448      703.682        1.159        0.277      131.034       23.134        0.031      332.616        1.394      862.319
11/21/2013  07:20:00      -81.090       84.931      -10.742       66.037       45.045       37.529     4360.858     2029.020     1408.396        1.085        0.390      117.426       39.929        0.116      332.529        1.250      862.337
11/21/2013  07:21:00       -2.039      101.639       -9.710       42.028       63.381       33.730     1766.314     4017.173     1137.721        0.867        0.346      101.659       35.059        0.119      332.648        1.447      862.344
11/21/2013  07:22:00      -48.670      190.090      -18.661       55.319       75.947       30.784     3060.177     5767.940      947.679        2.431        0.489      196.221       29.320        0.022      332.561        1.302      862.362
11/21/2013  07:23:00      -48.969      109.372       -7.077       46.040       61.635       34.709     2119.712     3798.842     1204.689        1.077        0.356      119.834       42.778        0.127      332.675        1.493      862.382
11/21/2013  07:24:00      -51.036       94.952        2.570       45.219       59.226       40.274     2044.776     3507.775     1621.994        0.940        0.359      107.799       38.955        0.131      332.651        1.452      862.384
11/21/2013  07:25:00      -10.617      206.449      -12.580       40.220       57.491       43.329     1617.632     3305.243     1877.391        2.484        0.340      206.722       32.788        0.025      332.577        1.328      862.391
11/21/2013  07:26:00      -56.123      144.108      -19.066       65.666       63.643       36.495     4312.042     4050.477     1331.900        1.699        0.485      154.651       31.093        0.040      332.574        1.323      862.393
11/21/2013  07:27:00      -43.009      180.272      -20.493       39.265       56.891       24.397     1541.713     3236.628      595.191        2.007        0.269      185.332       23.193        0.016      332.574        1.324      862.402
11/21/2013  07:28:00      -63.897      190.232      -20.445       44.585       66.196       25.670     1987.848     4381.866      658.957        2.386        0.351      200.676       23.107        0.013      332.613        1.388      862.406
11/21/2013  07:29:00      -93.992      169.335      -25.578       50.494       90.159       39.837     2549.683     8128.607     1587.026        2.521        0.613      193.672       44.652        0.053      332.508        1.214      862.419
11/21/2013  07:30:00      -47.559      143.973      -18.797       50.551       82.582       34.167     2555.448     6819.710     1167.358        1.694        0.527      151.625       45.236        0.089      332.451        1.121      862.416
11/21/2013  07:31:00      -59.678      117.575      -14.115       48.544       69.059       27.700     2356.561     4769.178      767.308        1.274        0.395      131.854       26.996        0.042      332.576        1.328      862.423
11/21/2013  07:32:00     -101.192       94.708      -21.183       43.119       42.976       23.232     1859.229     1846.933      539.731        1.195        0.212      138.598       15.129        0.012      332.518        1.233      862.459
11/21/2013  07:33:00      -72.008      176.361      -14.200       44.861       43.398       31.362     2012.500     1883.425      983.573        2.068        0.244      190.495       18.887        0.010      332.506        1.211      862.472
11/21/2013  07:34:00      -47.376      174.936      -21.705       34.452       43.841       25.863     1186.930     1921.999      668.886        1.855        0.189      181.237       15.224        0.007      332.502        1.206      862.491
11/21/2013  07:35:00      -56.053      149.473      -22.121       55.161       50.370       22.279     3042.719     2537.089      496.359        1.602        0.304      159.637       17.160        0.012      332.620        1.401      862.510
11/21/2013  07:36:00     -113.907      123.338      -23.145       53.528       59.927       36.751     2865.196     3591.220     1350.655        1.826        0.390      167.890       32.427        0.037      332.460        1.136      862.526
11/21/2013  07:37:00      -34.902       95.403      -11.173       52.900       49.829       30.417     2798.449     2482.956      925.174        0.832        0.310      101.587       31.976        0.099      332.584        1.341      862.519
11/21/2013  07:38:00      -24.716       75.866      -18.534       43.740       85.904       21.040     1913.147     7379.507      442.668        0.822        0.487       79.791       24.483        0.094      332.528        1.249      862.518
11/21/2013  07:39:00      -31.548       81.263        6.957       54.082       63.260       35.561     2924.822     4001.784     1264.567        0.792        0.410       87.172       40.158        0.212      332.588        1.348      862.526
11/21/2013  07:40:00      -65.720      137.166      -20.603       45.829       53.714       29.494     2100.313     2885.221      869.890        1.471        0.293      152.097       22.646        0.022      332.585        1.343      862.541
11/21/2013  07:41:00      -77.801      104.509       -5.213       38.978       72.766       25.749     1519.288     5294.884      662.986        1.224        0.374      130.288       22.036        0.029      332.560        1.301      862.560
11/21/2013  07:42:00       35.581       71.973        3.065       55.742       40.818       25.407     3107.141     1666.142      645.494        0.594        0.271       80.288       26.612        0.110      332.533        1.255      862.573
11/21/2013  07:43:00       31.723       97.183        7.116       36.296       50.380       38.482     1317.390     2538.106     1480.834        0.792        0.267      102.229       33.574        0.108      332.486        1.180      862.572
11/21/2013  07:44:00        1.313      104.922       -6.019       37.832       51.524       24.577     1431.292     2654.731      604.033        0.787        0.235      104.930       26.309        0.063      332.476        1.163      862.557
11/21/2013  07:45:00       33.636       73.094       -4.236       63.038       52.622       39.548     3973.785     2769.047     1564.076        0.740        0.415       80.462       37.414        0.216      332.522        1.238      862.577
11/21/2013  07:46:00        6.659      142.459      -21.512       41.094       59.887       33.107     1688.691     3586.449     1096.047        1.359        0.319      142.614       31.984        0.050      332.604        1.374      862.594
11/21/2013  07:47:00      -16.100      165.431      -17.788       53.391       61.814       29.564     2850.552     3820.978      874.056        1.774        0.377      166.213       27.853        0.028      332.534        1.258      862.606
11/21/2013  07:48:00       22.167       38.901        1.821       27.155       34.062       24.055      737.381     1160.217      578.645        0.224        0.124       44.773       18.842        0.177      332.624        1.408      862.622
11/21/2013  07:49:00       40.447       58.186      -11.763       49.235       42.370       23.548     2424.037     1795.184      554.501        0.497        0.239       70.863       17.393        0.060      332.600        1.368      862.637
11/21/2013  07:50:00       37.933       64.537        3.415       41.520       41.346       30.841     1723.873     1709.453      951.158        0.500        0.219       74.860       22.527        0.091      332.581        1.336      862.644
11/21/2013  07:51:00       71.085       69.378       -6.675       45.722       40.212       28.168     2090.499     1617.022      793.421        0.720        0.225       99.329       27.944        0.079      332.566        1.310      862.670
11/21/2013  07:52:00      114.134       84.502       16.723       90.063       51.639       42.842     8111.296     2666.629     1835.447        1.653        0.631      142.011       28.592        0.041      332.582        1.338      862.694
11/21/2013  07:53:00      132.279       72.062       29.682       60.182       52.399       39.912     3621.893     2745.622     1592.945        1.576        0.398      150.634       23.976        0.025      332.610        1.384      862.706
11/21/2013  07:54:00      117.198      100.177       12.775       74.023       62.693       47.645     5479.343     3930.373     2270.052        1.780        0.584      154.178       40.572        0.069      332.626        1.410      862.731
11/21/2013  07:55:00      121.264      134.294       11.024      123.952       82.991       71.782    15364.208     6887.542     5152.625        3.013        1.370      180.942       45.881        0.064      332.602        1.368      862.743
11/21/2013  07:56:00       72.157       95.969       12.770       82.931       62.056       55.684     6877.522     3850.909     3100.731        1.420        0.691      120.070       38.065        0.101      332.597        1.362      862.764
11/21/2013  07:57:00      110.857      110.026       -8.466       77.626       60.515       44.602     6025.772     3662.027     1989.352        1.807        0.584      156.189       31.258        0.040      332.633        1.420      862.791
11/21/2013  07:58:00       79.379       84.621       23.396       62.066       50.518       53.366     3852.128     2552.102     2847.953        1.163        0.463      116.025       29.256        0.064      332.610        1.385      862.808
11/21/2013  07:59:00      124.514       86.264        9.684       65.679       47.258       47.776     4313.704     2233.321     2282.592        1.593        0.441      151.476       35.372        0.055      332.605        1.374      862.839
11/21/2013  08:00:00      122.762      106.627       19.261       82.125       54.189       47.259     6744.478     2936.499     2233.416        1.936        0.596      162.603       33.191        0.042      332.599        1.364      862.847
11/21/2013  08:01:00      189.421      165.006       11.076      103.739       84.072       82.484    10761.824     7068.168     6803.638        4.393        1.232      251.212       55.810        0.049      332.566        1.309      862.868
11/21/2013  08:02:00       89.109       90.920        7.112       73.484       69.305       56.552     5399.918     4803.162     3198.120        1.483        0.670      127.306       33.950        0.071      332.588        1.348      862.895
11/21/2013  08:03:00       46.148      100.522        6.614       58.077       79.179       48.469     3372.887     6269.301     2349.212        1.213        0.600      110.609       46.658        0.178      332.613        1.388      862.906
11/21/2013  08:04:00       63.680       84.307        9.066       53.696       51.110       45.422     2883.228     2612.213     2063.134        0.940        0.378      105.654       30.704        0.084      332.626        1.411      862.928
11/21/2013  08:05:00       58.621       91.734       -9.117       49.514       57.906       39.347     2451.634     3353.104     1548.149        0.964        0.368      108.865       32.099        0.087      332.627        1.413      862.944
11/21/2013  08:06:00       36.172       76.310       -6.241       49.578       33.472       31.373     2457.951     1120.365      984.273        0.587        0.228       84.449       23.803        0.079      332.662        1.470      862.979
11/21/2013  08:07:00       53.943      118.073       -9.015       87.405       55.245       45.016     7639.584     3052.013     2026.439        1.482        0.636      129.812       36.776        0.080      332.677        1.493      863.005
11/21/2013  08:08:00       80.123       93.889        4.304       67.763      113.501       50.435     4591.829    12882.427     2543.728        1.763        1.001      123.430       42.816        0.120      332.704        1.538      863.037
11/21/2013  08:09:00       -5.510      172.914      -12.048       90.261       99.607       60.292     8147.067     9921.508     3635.078        2.588        1.085      173.001       62.272        0.130      332.616        1.393      863.058
11/21/2013  08:10:00     -112.709      155.584      -18.437       76.808       72.987       38.910     5899.541     5327.051     1513.991        2.499        0.637      192.119       29.044        0.023      332.517        1.228      863.078
11/21/2013  08:11:00     -121.141      217.565      -31.426       51.218       66.120       39.415     2623.254     4371.805     1553.560        3.577        0.427      249.017       31.525        0.016      332.357        0.962      863.084
11/21/2013  08:12:00      -40.346      229.787      -30.558       51.726       49.533       28.816     2675.555     2453.500      830.364        3.066        0.298      233.302       21.357        0.008      332.422        1.070      863.118
11/21/2013  08:13:00      -79.298      255.600      -32.076       69.550       50.188       30.483     4837.260     2518.810      929.241        4.047        0.414      267.618       23.003        0.007      332.276        0.828      863.124
11/21/2013  08:14:00     -127.508      141.688      -41.416       55.301       46.422       29.059     3058.171     2154.969      844.417        2.205        0.303      190.614       25.766        0.018      332.360        0.971      863.137
11/21/2013  08:15:00      -71.459       81.598       -6.224       46.504       62.191       39.876     2162.647     3867.687     1590.128        0.971        0.381      108.464       42.468        0.153      332.414        1.061      863.135
11/21/2013  08:16:00      -63.931      124.181      -15.524       39.937       46.477       27.212     1594.932     2160.116      740.486        1.212        0.225      139.671       23.800        0.029      332.387        1.017      863.158
11/21/2013  08:17:00      -95.867       97.147      -14.490       73.823       82.710       46.248     5449.814     6841.003     2138.849        1.663        0.721      136.484       58.997        0.187      332.427        1.082      863.174
11/21/2013  08:18:00      -24.935      174.330      -16.516       33.561       66.821       23.624     1126.343     4465.050      558.100        1.872        0.307      176.104       26.249        0.022      332.401        1.037      863.201
11/21/2013  08:19:00      -59.301      185.891      -23.583       46.583       41.162       28.701     2170.007     1694.280      823.732        2.166        0.234      195.120       22.699        0.014      332.393        1.025      863.215
11/21/2013  08:20:00      -37.562      211.865      -27.940       69.130       85.193       36.963     4778.897     7257.878     1366.290        3.024        0.670      215.169       36.695        0.029      332.446        1.113      863.208
11/21/2013  08:21:00       54.045      104.679        3.461       48.764       85.672       45.778     2377.934     7339.686     2095.606        1.285        0.591      117.807       46.609        0.157      332.517        1.230      863.210
11/21/2013  08:22:00       15.552      140.896       -7.958       53.958       65.654       41.378     2911.504     4310.419     1712.162        1.454        0.447      141.751       42.020        0.088      332.548        1.280      863.235
11/21/2013  08:23:00       43.218      134.345       14.471       85.480       74.110       51.453     7306.893     5492.287     2647.380        1.778        0.772      141.125       45.352        0.103      332.550        1.283      863.246
11/21/2013  08:24:00      131.061      194.494      -12.011       98.585      101.187       62.720     9718.928    10238.853     3933.767        3.952        1.195      234.531       56.447        0.058      332.526        1.243      863.239
11/21/2013  08:25:00      109.473      164.499      -26.356       97.211       74.110       63.030     9450.051     5492.252     3972.802        2.932        0.946      197.596       43.363        0.048      332.546        1.277      863.261
11/21/2013  08:26:00      132.161      100.026       12.888       73.310       53.426       38.498     5374.341     2854.299     1482.081        1.867        0.486      165.745       23.272        0.020      332.575        1.325      863.292
11/21/2013  08:27:00      130.324      109.861       17.308       78.299       61.136       53.719     6130.728     3737.598     2885.783        2.105        0.638      170.452       36.723        0.046      332.609        1.381      863.307
11/21/2013  08:28:00       57.319      118.722       -1.454       68.572       70.616       46.680     4702.059     4986.667     2179.007        1.462        0.593      131.834       44.670        0.115      332.562        1.304      863.283
11/21/2013  08:29:00       97.235       87.828        5.287       69.580       54.990       41.312     4841.395     3023.849     1706.671        1.338        0.479      131.028       25.971        0.039      332.598        1.363      863.276
11/21/2013  08:30:00      221.765      151.657        8.323      103.790       84.679       57.757    10772.462     7170.598     3335.833        4.676        1.064      268.663       34.025        0.016      332.559        1.297      863.284
11/21/2013  08:31:00      241.425      156.976       26.294      125.284       76.715       72.673    15696.158     5885.147     5281.345        5.524        1.343      287.971       21.959        0.006      332.468        1.147      863.290
11/21/2013  08:32:00      216.035      168.336       19.900      144.375       80.228       63.057    20844.146     6436.458     3976.230        5.332        1.563      273.876       43.707        0.025      332.430        1.086      863.295
11/21/2013  08:33:00       46.844      250.073      -24.770      102.021      148.368       66.404    10408.192    22013.086     4409.478        5.108        1.842      254.423       64.084        0.063      332.372        0.991      863.300
11/21/2013  08:34:00       89.056      163.363      -20.399       65.758       89.801       54.070     4324.129     8064.149     2923.526        2.517        0.766      186.061       49.576        0.071      332.412        1.057      863.309
11/21/2013  08:35:00       70.352      109.950        2.271       80.582       82.297       57.029     6493.417     6772.800     3252.299        1.678        0.826      130.531       53.397        0.167      332.416        1.064      863.334
11/21/2013  08:36:00      114.622      183.451        5.222      105.448      119.323       78.610    11119.380    14238.056     6179.594        3.917        1.577      216.316       73.323        0.115      332.394        1.027      863.343
11/21/2013  08:37:00       89.783      148.720        1.731       99.893      116.263       70.816     9978.632    13516.985     5014.949        2.934        1.426      173.720       65.286        0.141      332.361        0.971      863.346
11/21/2013  08:38:00      162.828      206.984      -13.250      117.700       89.611       61.078    13853.253     8030.134     3730.466        4.757        1.281      263.354       45.288        0.030      332.360        0.969      863.355
11/21/2013  08:39:00      234.872      165.317       30.031      111.033       86.531       65.344    12328.394     7487.541     4269.808        5.374        1.204      287.219       47.140        0.027      332.328        0.916      863.343
11/21/2013  08:40:00      201.126      187.976        8.696      154.443       98.556       66.845    23852.675     9713.328     4468.288        5.694        1.902      275.294       56.980        0.043      332.320        0.903      863.347
11/21/2013  08:41:00       34.641      203.943      -25.726       62.914      105.500       45.658     3958.202    11130.187     2084.608        3.031        0.859      206.864       54.306        0.069      332.344        0.943      863.353
11/21/2013  08:42:00      138.325      154.379        5.903       90.759      104.046       58.157     8237.131    10825.653     3382.236        3.272        1.122      207.284       58.852        0.081      332.365        0.977      863.368
11/21/2013  08:43:00       83.282      100.542        5.242       95.440       76.747       51.976     9108.882     5890.046     2701.455        1.738        0.885      130.555       43.670        0.112      332.357        0.965      863.391
11/21/2013  08:44:00       69.279      157.513       -4.294       84.604      106.591       58.437     7157.819    11361.600     3414.922        2.578        1.097      172.075       50.727        0.087      332.367        0.982      863.393
11/21/2013  08:45:00       32.929      260.867      -30.891       65.680      103.773       48.843     4313.895    10768.788     2385.608        4.378        0.873      262.937       46.789        0.032      332.327        0.916      863.389
11/21/2013  08:46:00       34.763      133.928      -11.631       54.990       81.824       40.661     3023.887     6695.100     1653.348        1.532        0.569      138.365       42.661        0.095      332.317        0.899      863.387
11/21/2013  08:47:00       84.520      139.690        1.910       82.915      109.004       56.358     6874.830    11881.821     3176.262        2.429        1.097      163.269       59.082        0.131      332.276        0.833      863.364
11/21/2013  08:48:00       57.521       65.319        4.557       67.644       56.635       46.896     4575.694     3207.522     2199.250        0.879        0.499       87.036       39.042        0.201      332.308        0.886      863.360
11/21/2013  08:49:00      107.732       65.060        5.446       74.252       45.660       34.206     5513.404     2084.806     1170.028        1.232        0.438      125.853       25.166        0.040      332.340        0.937      863.363
11/21/2013  08:50:00      142.566      113.357       28.098      101.355       86.631       57.528    10272.839     7504.987     3309.496        2.752        1.054      182.140       31.076        0.029      332.343        0.941      863.375
11/21/2013  08:51:00      163.915      115.326       26.737       93.562       64.148       57.491     8753.910     4114.912     3305.214        2.853        0.809      200.420       39.405        0.039      332.354        0.961      863.389
11/21/2013  08:52:00       82.355      154.302      -13.012       81.998       95.874       51.125     6723.719     9191.914     2613.788        2.464        0.926      174.904       48.165        0.076      332.331        0.921      863.407
11/21/2013  08:53:00      134.032      101.088        4.857       86.273       75.024       47.589     7443.090     5628.655     2264.689        2.177        0.767      167.879       41.587        0.061      332.382        1.007      863.412
11/21/2013  08:54:00      117.461      145.118       12.922       87.698       93.276       78.647     7690.969     8700.495     6185.282        2.880        1.129      186.699       65.578        0.123      332.390        1.019      863.426
11/21/2013  08:55:00       98.140      127.262       10.772       76.673       87.382       57.367     5878.788     7635.599     3290.934        2.137        0.840      160.708       52.613        0.107      332.395        1.029      863.441
11/21/2013  08:56:00      197.889      161.492        6.547       86.973       64.260       56.375     7564.355     4129.330     3178.134        4.007        0.744      255.421       39.851        0.024      332.357        0.963      863.449
11/21/2013  08:57:00      125.979      142.133        6.680      101.539       90.251       79.902    10310.213     8145.224     6384.325        3.047        1.242      189.927       67.118        0.125      332.399        1.035      863.451
11/21/2013  08:58:00      220.543      167.142       14.131      143.659       98.563       75.330    20637.868     9714.593     5674.545        5.639        1.801      276.723       60.958        0.049      332.378        0.998      863.456
11/21/2013  08:59:00      123.034      165.022       -4.704       81.424      106.983       78.268     6629.787    11445.340     6125.908        3.329        1.210      205.839       72.039        0.122      332.381        1.004      863.442
11/21/2013  09:00:00      193.287      126.267       33.358      150.108       99.144       79.125    22532.428     9829.493     6260.721        4.651        1.931      230.875       51.306        0.049      332.365        0.978      863.475
11/21/2013  09:01:00      145.616      216.301      -12.644      101.619      138.366       79.957    10326.498    19145.265     6393.091        5.200        1.793      260.749       87.272        0.112      332.313        0.891      863.496
11/21/2013  09:02:00       54.639      166.589      -11.306       91.654      100.903       53.774     8400.483    10181.397     2891.643        2.616        1.074      175.320       43.779        0.062      332.363        0.974      863.513
11/21/2013  09:03:00       74.128      156.142       -3.040       83.624      127.609       58.767     6992.910    16284.176     3453.530        2.830        1.337      172.845       61.870        0.128      332.372        0.990      863.531
11/21/2013  09:04:00      107.187      122.826        5.129      109.575       97.306       67.954    12006.725     9468.466     4617.740        2.634        1.305      163.019       60.150        0.136      332.363        0.976      863.533
11/21/2013  09:05:00       99.788      185.222       -6.569      104.494      135.735       72.902    10918.994    18424.096     5314.677        3.948        1.733      210.392       68.613        0.106      332.330        0.918      863.541
11/21/2013  09:06:00       50.524      142.531       -9.940       64.650       95.741       56.509     4179.573     9166.329     3193.256        1.975        0.827      151.221       56.769        0.141      332.348        0.949      863.542
11/21/2013  09:07:00      113.553      141.051        0.946       99.703       93.256       61.166     9940.716     8696.626     3741.301        2.758        1.119      181.079       56.733        0.098      332.355        0.961      863.543
11/21/2013  09:08:00       73.365      252.374      -36.690      101.020      110.196       62.831    10205.113    12143.134     3947.685        4.835        1.315      262.822       60.612        0.053      332.346        0.946      863.547
11/21/2013  09:09:00      181.357      151.863       15.031      125.589       96.659       79.484    15772.708     9342.890     6317.684        4.380        1.572      236.543       67.481        0.081      332.318        0.900      863.568
11/21/2013  09:10:00       99.353      157.642       12.178      112.013       99.328       68.390    12546.956     9866.085     4677.173        3.097        1.355      186.338       52.350        0.079      332.342        0.939      863.583
11/21/2013  09:11:00       74.756      102.530      -11.332       61.405       61.166       50.262     3770.600     3741.243     2526.235        1.313        0.502      126.889       37.535        0.088      332.407        1.049      863.601
11/21/2013  09:12:00      151.904      164.403       13.297      118.316       91.631       68.765    13998.778     8396.328     4728.566        3.870        1.356      223.838       55.747        0.062      332.395        1.026      863.602
11/21/2013  09:13:00       87.509      104.416        4.736       74.986       84.428       65.377     5622.856     7128.124     4274.165        1.780        0.851      136.237       59.319        0.190      332.396        1.030      863.608
11/21/2013  09:14:00       43.958       98.708       -6.820       69.868       75.847       44.319     4881.532     5752.754     1964.138        1.216        0.630      108.054       37.505        0.120      332.426        1.080      863.630
11/21/2013  09:15:00        9.761      179.775       -5.598       69.946      115.497       53.870     4892.451    13339.629     2901.971        2.679        1.057      180.039       56.530        0.099      332.455        1.127      863.643
11/21/2013  09:16:00       95.287      273.347      -32.786       84.986      142.267       71.466     7222.600    20239.858     5107.408        5.872        1.628      289.479       64.662        0.050      332.384        1.009      863.639
11/21/2013  09:17:00      114.236      152.618      -10.819       78.234       82.544       70.325     6120.581     6813.559     4945.628        2.717        0.894      190.636       59.862        0.099      332.415        1.060      863.649
11/21/2013  09:18:00       80.710      174.245       -3.870       76.494      110.446       61.251     5851.365    12198.243     3751.695        2.934        1.090      192.030       60.477        0.099      332.427        1.081      863.654
11/21/2013  09:19:00       97.635      129.731      -11.346       61.944       92.791       49.195     3837.085     8610.159     2420.160        2.068        0.743      162.366       39.451        0.059      332.449        1.118      863.661
11/21/2013  09:20:00      122.190      102.029        0.936       84.672       71.135       46.869     7169.339     5060.233     2196.708        1.988        0.721      159.186       36.762        0.053      332.463        1.140      863.669
11/21/2013  09:21:00       87.088      135.699        8.241       89.114       99.577       54.461     7941.223     9915.545     2965.948        2.344        1.041      161.241       49.452        0.094      332.452        1.122      863.675
11/21/2013  09:22:00       75.926      136.718       -9.078       89.057      108.409       57.794     7931.093    11752.467     3340.141        2.378        1.151      156.386       51.946        0.110      332.420        1.070      863.658
11/21/2013  09:23:00       67.865       69.254       -7.714       60.864       41.363       32.914     3704.477     1710.925     1083.363        0.798        0.325       96.963       13.330        0.019      332.487        1.181      863.658
11/21/2013  09:24:00      102.123       92.885       10.137       92.260       76.036       49.172     8511.897     5781.452     2417.863        1.793        0.836      138.047       43.748        0.100      332.492        1.189      863.654
11/21/2013  09:25:00      140.312      119.327       10.374       50.977       55.451       50.467     2598.705     3074.830     2546.870        2.113        0.411      184.191       34.193        0.034      332.484        1.174      863.653
11/21/2013  09:26:00      157.379      114.971        6.715       96.291       88.857       51.978     9271.880     7895.560     2701.709        2.895        0.993      194.901       47.937        0.060      332.466        1.144      863.649
11/21/2013  09:27:00      123.909       99.027        8.382       88.613       57.319       61.201     7852.258     3285.447     3745.530        2.005        0.744      158.618       37.274        0.055      332.486        1.179      863.638
11/21/2013  09:28:00      135.701      103.688       16.691       91.006       66.807       55.673     8282.081     4463.210     3099.463        2.264        0.792      170.780       38.544        0.051      332.465        1.143      863.649
11/21/2013  09:29:00      102.699      147.973        3.719       88.421       79.812       72.092     7818.269     6369.932     5197.303        2.592        0.969      180.120       54.451        0.091      332.413        1.059      863.668
11/21/2013  09:30:00      200.196      169.967        4.505      132.395      109.564       72.583    17528.401    12004.223     5268.364        5.189        1.740      262.616       53.124        0.041      332.406        1.045      863.690
11/21/2013  09:31:00      168.792      190.894       12.105      107.012       92.817       84.067    11451.632     8615.056     7067.268        4.610        1.357      254.817       58.245        0.052      332.373        0.989      863.692
11/21/2013  09:32:00      166.849       86.535       14.084       90.434       61.788       58.487     8178.337     3817.818     3420.774        2.547        0.771      187.955       41.978        0.050      332.460        1.135      863.698
11/21/2013  09:33:00      222.439      143.888       63.846      100.452       87.267       72.470    10090.569     7615.473     5251.944        4.860        1.148      264.920       38.572        0.021      332.457        1.129      863.709
11/21/2013  09:34:00      149.729       95.210       20.957      112.375      113.422       69.362    12628.087    12864.457     4811.028        3.111        1.515      177.436       61.425        0.120      332.502        1.204      863.730
11/21/2013  09:35:00      205.628      184.550        2.322      137.210      101.453       96.077    18826.540    10292.634     9230.800        5.734        1.917      276.300       77.386        0.078      332.373        0.991      863.744
11/21/2013  09:36:00       94.471      238.290      -26.863       80.991      141.372       64.278     6559.570    19986.090     4131.648        4.855        1.534      256.334       70.875        0.076      332.381        1.005      863.753
11/21/2013  09:37:00       53.586      226.217      -28.868       92.681      111.535       77.472     8589.796    12439.970     6001.905        4.095        1.352      232.477       73.703        0.101      332.359        0.968      863.781
11/21/2013  09:38:00       54.098      197.397      -14.844       65.959      142.749       64.131     4350.610    20377.407     4112.843        3.547        1.442      204.676       74.303        0.132      332.411        1.054      863.805
11/21/2013  09:39:00       53.140       65.288        3.974       52.210       51.470       31.396     2725.847     2649.123      985.689        0.673        0.318       84.180       26.196        0.097      332.500        1.201      863.829
11/21/2013  09:40:00       88.359       81.104       18.711       94.396       54.223       44.817     8910.674     2940.157     2008.520        1.429        0.693      119.939       27.838        0.054      332.491        1.188      863.847
11/21/2013  09:41:00      195.045      105.019       38.778       98.042       61.235       57.777     9612.158     3749.685     3338.182        3.363        0.835      221.521       24.000        0.012      332.514        1.223      863.865
11/21/2013  09:42:00      316.028      205.156       43.912      132.996       88.774       77.603    17687.924     7880.896     6022.253        8.773        1.580      376.780       51.241        0.018      332.362        0.971      863.853
11/21/2013  09:43:00      294.127      201.211       30.222      123.015       83.704       81.043    15132.792     7006.416     6567.938        7.830        1.435      356.365       34.735        0.010      332.351        0.952      863.849
11/21/2013  09:44:00      274.812      178.448       66.694      119.153       82.928       87.572    14197.464     6876.998     7668.810        7.027        1.437      327.667       48.291        0.022      332.362        0.973      863.866
11/21/2013  09:45:00      135.705      111.625       71.607      118.962       98.359       80.639    14151.875     9674.503     6502.694        3.316        1.516      175.716       75.103        0.183      332.448        1.115      863.871
11/21/2013  09:46:00      183.777      150.165       36.677       73.633       56.624       67.014     5421.808     3206.316     4490.915        3.539        0.656      237.326       40.798        0.030      332.415        1.061      863.907
11/21/2013  09:47:00      166.614       98.949       64.720      156.794       81.031       91.069    24584.432     6566.033     8293.622        4.058        1.972      193.781      100.968        0.271      332.437        1.098      863.927
11/21/2013  09:48:00      167.585      134.178       28.428      146.768       96.783       85.432    21540.799     9366.885     7298.568        4.254        1.910      214.682       45.979        0.046      332.437        1.097      863.953
11/21/2013  09:49:00      101.773       97.269       -6.644       75.467       57.705       40.924     5695.261     3329.921     1674.800        1.528        0.535      140.780       29.015        0.042      332.487        1.180      863.975
11/21/2013  09:50:00       76.381      153.490        1.412       80.282      121.603       51.128     6445.165    14787.331     2614.105        2.662        1.192      171.445       59.721        0.121      332.452        1.122      863.987
11/21/2013  09:51:00      110.019      123.858       24.334       82.505       73.947       61.223     6806.996     5468.193     3748.211        2.203        0.801      165.665       45.823        0.077      332.486        1.179      863.986
11/21/2013  09:52:00       99.029       81.314       -5.796       50.040       55.918       35.245     2504.012     3126.779     1242.214        1.166        0.344      128.136       24.994        0.038      332.522        1.238      864.008
11/21/2013  09:53:00      163.529      116.099       24.923       99.969       69.902       59.007     9993.705     4886.286     3481.829        2.960        0.918      200.551       34.740        0.030      332.460        1.135      864.026
11/21/2013  09:54:00      190.438      138.347       37.417       81.445       70.027       65.728     6633.229     4903.731     4320.189        3.633        0.793      235.386       26.350        0.013      332.438        1.098      864.038
11/21/2013  09:55:00      155.049      118.672       16.976       75.043       56.787       50.445     5631.470     3224.716     2544.728        2.490        0.570      195.251       31.287        0.026      332.455        1.125      864.053
11/21/2013  09:56:00      257.391      177.132       14.139      132.014       71.939       71.835    17427.624     5175.228     5160.323        6.279        1.388      312.451       54.795        0.031      332.404        1.042      864.043
11/21/2013  09:57:00      200.101      141.197       20.980       57.442       46.260       41.827     3299.632     2139.963     1749.539        3.380        0.359      244.902       26.226        0.011      332.456        1.127      864.052
11/21/2013  09:58:00      105.335       84.879       11.439       75.780       78.069       57.299     5742.657     6094.705     3283.153        1.677        0.756      135.278       51.522        0.145      332.552        1.287      864.074
11/21/2013  09:59:00      223.359      220.552       15.944      167.351      100.603       83.236    28006.204    10120.883     6928.181        7.191        2.253      313.899       71.886        0.052      332.441        1.103      864.090
11/21/2013  10:00:00      189.921      125.957       19.470      133.099      102.132       54.657    17715.435    10431.047     2987.441        4.172        1.557      227.893       31.493        0.019      332.465        1.145      864.091
11/21/2013  10:01:00      307.200      221.460       41.612      112.353       92.278       82.421    12623.257     8515.281     6793.255        8.653        1.397      378.704       46.603        0.015      332.415        1.060      864.094
11/21/2013  10:02:00      186.235      150.062       15.570      139.551      100.190       78.999    19474.439    10038.049     6240.831        4.659        1.788      239.170       57.811        0.058      332.418        1.065      864.094
11/21/2013  10:03:00      180.466      167.685       11.528      129.363       98.360       75.270    16734.740     9674.741     5665.548        4.644        1.604      246.346       56.409        0.052      332.427        1.080      864.112
11/21/2013  10:04:00      163.379      139.608       12.802      102.574       68.023       68.055    10521.429     4627.069     4631.533        3.306        0.989      214.902       37.531        0.031      332.423        1.074      864.113
11/21/2013  10:05:00      135.898      112.374       20.277       96.512       60.167       54.976     9314.500     3620.012     3022.363        2.373        0.798      176.341       34.922        0.039      332.442        1.106      864.108
11/21/2013  10:06:00      165.472      104.607       27.272      117.390       83.054       54.648    13780.428     6898.022     2986.452        3.136        1.183      195.764       29.447        0.023      332.524        1.240      864.107
11/21/2013  10:07:00       91.170      153.281        0.998      123.189      151.831       62.371    15175.535    23052.672     3890.133        3.695        2.106      178.345       80.743        0.205      332.560        1.300      864.110
11/21/2013  10:08:00       68.347      190.352       -8.368       97.188      137.593       55.540     9445.540    18931.837     3084.743        3.621        1.573      202.251       60.690        0.090      332.518        1.229      864.117
11/21/2013  10:09:00      139.841      128.494       17.542      118.456       95.216       75.543    14031.788     9066.129     5706.711        3.258        1.440      189.911       58.696        0.096      332.489        1.185      864.114
11/21/2013  10:10:00       54.828      153.118      -12.577       63.060       74.113       47.867     3976.611     5492.795     2291.218        1.918        0.588      162.639       44.528        0.075      332.519        1.231      864.111
11/21/2013  10:11:00       79.526      112.770        7.195       90.501       93.427       47.201     8190.344     8728.626     2227.902        1.912        0.957      137.991       39.501        0.082      332.558        1.296      864.115
11/21/2013  10:12:00      149.807      108.560       20.496       93.023       65.770       57.158     8653.282     4325.671     3267.040        2.544        0.812      185.007       23.516        0.016      332.624        1.406      864.117
11/21/2013  10:13:00      203.886      174.186       13.180      108.591       74.220       74.373    11792.041     5508.659     5531.302        4.745        1.142      268.160       49.769        0.034      332.532        1.253      864.119
11/21/2013  10:14:00      214.101      178.877       30.684      115.452       77.891       77.921    13329.258     6067.024     6071.708        5.212        1.273      278.991       48.303        0.030      332.456        1.127      864.153
11/21/2013  10:15:00      199.719      190.194       -7.595      135.077      110.221       95.344    18245.838    12148.709     9090.494        5.779        1.974      275.792       68.561        0.062      332.468        1.147      864.162
11/21/2013  10:16:00      150.830      166.945       -6.269      104.464      110.415       75.646    10912.819    12191.567     5722.255        3.974        1.441      224.990       69.802        0.096      332.473        1.155      864.191
11/21/2013  10:17:00      289.282      204.317       30.424      133.069       88.671       81.474    17707.469     7862.616     6637.997        7.928        1.610      354.161       51.626        0.021      332.394        1.025      864.204
11/21/2013  10:18:00      191.673      109.838       32.223      109.198       72.549       58.444    11924.136     5263.294     3415.697        3.522        1.030      220.914       35.416        0.026      332.539        1.265      864.205
11/21/2013  10:19:00      189.460      120.682       14.057      117.426       75.812       60.094    13788.763     5747.438     3611.269        3.690        1.157      224.631       36.853        0.027      332.539        1.266      864.205
11/21/2013  10:20:00      217.849      171.991       24.102      122.225       89.422       73.537    14938.836     7996.295     5407.724        5.298        1.417      277.560       57.650        0.043      332.511        1.218      864.221
11/21/2013  10:21:00      123.140      138.078        7.867       79.507       63.325       61.400     6321.351     4010.108     3770.018        2.419        0.705      185.011       32.406        0.031      332.503        1.206      864.221
11/21/2013  10:22:00       53.829      191.216        4.131       82.167      126.041       88.095     6751.462    15886.352     7760.674        3.493        1.520      198.648       84.055        0.179      332.446        1.113      864.229
11/21/2013  10:23:00       92.469      138.081      -18.326       71.914      123.961       58.907     5171.625    15366.402     3470.003        2.598        1.200      166.184       63.579        0.146      332.541        1.268      864.218
11/21/2013  10:24:00      180.855      108.546       16.081      102.842       63.059       64.369    10576.529     3976.414     4143.336        3.172        0.935      210.929       38.509        0.033      332.592        1.352      864.201
11/21/2013  10:25:00      204.242      162.984       15.140      128.659       95.047       64.809    16553.146     9033.980     4200.219        4.914        1.489      261.301       38.467        0.022      332.504        1.209      864.206
11/21/2013  10:26:00      148.693      190.298        8.847      147.545      114.443       78.370    21769.432    13097.139     6141.855        4.970        2.050      241.502       61.940        0.066      332.459        1.133      864.199
11/21/2013  10:27:00      137.435      125.559       24.351       95.092       63.733       69.591     9042.480     4061.884     4842.962        2.659        0.897      186.154       49.321        0.070      332.495        1.192      864.201
11/21/2013  10:28:00       59.661      123.467        4.426       66.346       74.770       54.069     4401.787     5590.614     2923.452        1.587        0.646      137.126       41.293        0.091      332.539        1.266      864.198
11/21/2013  10:29:00      117.299      101.602       14.953       81.808       66.045       51.015     6692.470     4361.968     2602.524        1.898        0.683      155.184       42.614        0.075      332.611        1.385      864.188
11/21/2013  10:30:00      218.758      108.869       16.797      100.548       75.944       62.341    10109.897     5767.560     3886.386        3.987        0.988      244.351       38.045        0.024      332.549        1.281      864.180
11/21/2013  10:31:00      102.150      129.474        3.768       77.070       90.004       62.235     5939.748     8100.652     3873.221        2.256        0.896      164.918       57.179        0.120      332.589        1.347      864.194
11/21/2013  10:32:00      142.840      123.870        7.972       68.156       77.436       59.790     4645.301     5996.286     3574.820        2.501        0.711      189.068       32.473        0.029      332.606        1.377      864.190
11/21/2013  10:33:00       72.514      224.686      -24.391      102.655      130.855       66.517    10537.961    17122.986     4424.515        4.420        1.604      236.098       60.363        0.065      332.577        1.327      864.182
11/21/2013  10:34:00      126.206       94.285        8.138       87.407       85.788       71.491     7639.907     7359.567     5110.999        2.249        1.006      157.536       35.950        0.052      332.693        1.520      864.205
11/21/2013  10:35:00      189.663      162.460       19.227      106.790       89.229       78.783    11404.011     7961.865     6206.713        4.415        1.279      249.730       48.674        0.038      332.595        1.356      864.199
11/21/2013  10:36:00      195.787      149.385       16.316      118.932       83.674       58.834    14144.892     7001.303     3461.489        4.276        1.230      246.269       34.288        0.019      332.615        1.390      864.205
11/21/2013  10:37:00      205.000      212.357       11.514      146.750      123.640       81.115    21535.460    15286.732     6579.634        6.532        2.170      295.162       77.873        0.070      332.556        1.292      864.204
11/21/2013  10:38:00      238.193      193.166        7.041      155.635       97.102       75.283    24222.372     9428.851     5667.531        6.670        1.966      306.674       50.504        0.027      332.616        1.392      864.193
11/21/2013  10:39:00      237.791      162.847        4.180      135.106       85.583       67.021    18253.660     7324.476     4491.829        5.657        1.503      288.208       48.660        0.029      332.736        1.590      864.190
11/21/2013  10:40:00      177.634      139.118        8.801      101.865       84.067       62.862    10376.427     7067.229     3951.653        3.619        1.070      225.627       56.128        0.062      332.779        1.661      864.185
11/21/2013  10:41:00      244.213      167.225       48.312      120.630       77.640       65.549    14551.611     6027.940     4296.671        5.740        1.244      295.980       37.610        0.016      332.678        1.494      864.163
11/21/2013  10:42:00      247.968      228.795        9.427      145.294      114.389       85.319    21110.229    13084.821     7279.303        7.769        2.074      337.395       70.019        0.043      332.671        1.482      864.141
11/21/2013  10:43:00       72.291      314.446      -20.823       93.980      141.499       84.813     8832.332    20022.028     7193.271        7.028        1.802      322.649       87.149        0.073      332.665        1.472      864.149
11/21/2013  10:44:00       78.045      246.679      -18.413      104.765      134.440       97.966    10975.684    18074.232     9597.351        5.296        1.932      258.730       89.463        0.120      332.691        1.515      864.157
11/21/2013  10:45:00      137.593      152.968       15.333       97.618       92.567       71.492     9529.326     8568.700     5111.136        3.288        1.160      205.746       62.585        0.093      332.808        1.709      864.176
11/21/2013  10:46:00       79.133       74.685       -2.338      103.054       71.070       48.077    10620.155     5050.943     2311.431        1.491        0.899      108.811       27.018        0.062      332.819        1.729      864.180
11/21/2013  10:47:00       37.911      188.155      -19.590       69.342      138.497       61.106     4808.372    19181.408     3733.977        3.247        1.386      191.936       67.220        0.123      332.801        1.699      864.192
11/21/2013  10:48:00      133.926      114.630       25.877      154.371       89.147       65.037    23830.424     7947.166     4229.816        3.387        1.800      176.284       50.597        0.082      332.807        1.709      864.169
11/21/2013  10:49:00      324.509      165.088        9.380      132.310       94.386       83.418    17505.892     8908.642     6958.636        8.300        1.669      364.088       56.438        0.024      332.688        1.510      864.180
11/21/2013  10:50:00      260.674      199.249       12.253      123.271       85.803       87.557    15195.834     7362.083     7666.245        6.901        1.511      328.102       38.825        0.014      332.625        1.405      864.173
11/21/2013  10:51:00      248.752      156.924       42.684      103.252       74.438       67.156    10660.877     5541.001     4509.918        5.451        1.036      294.113       44.098        0.022      332.605        1.372      864.156
11/21/2013  10:52:00      233.415      136.684       39.336      102.386       74.917       68.460    10482.838     5612.506     4686.721        4.774        1.039      270.491       52.044        0.037      332.654        1.454      864.152
11/21/2013  10:53:00      215.950      105.082       30.947      142.894       90.058       69.563    20418.755     8110.425     4839.062        4.599        1.668      240.159       40.906        0.029      332.717        1.559      864.137
11/21/2013  10:54:00      234.630      192.945       21.118      130.749      104.526       87.763    17095.216    10925.771     7702.360        6.422        1.786      303.774       51.483        0.029      332.621        1.400      864.137
11/21/2013  10:55:00      224.816      121.619       36.054      126.818       85.922       70.136    16082.806     7382.625     4919.098        4.750        1.419      255.604       39.497        0.024      332.763        1.634      864.137
11/21/2013  10:56:00      211.909      141.945       43.910      125.352       94.394       72.831    15713.075     8910.319     5304.341        4.845        1.496      255.057       44.739        0.031      332.707        1.542      864.118
11/21/2013  10:57:00      104.479       77.985       19.754       94.187       54.101       56.863     8871.217     2926.869     3233.432        1.621        0.752      130.375       19.946        0.023      332.856        1.792      864.104
11/21/2013  10:58:00      167.647      122.074       18.145      121.383       85.094       64.577    14733.794     7241.017     4170.216        3.474        1.307      207.383       49.690        0.057      332.857        1.790      864.106
11/21/2013  10:59:00      169.435      170.042       19.720      110.596      101.690       78.153    12231.471    10340.775     6107.842        4.334        1.434      240.046       64.324        0.072      332.712        1.549      864.124
11/21/2013  11:00:00      198.409      175.271       -0.065      124.988       92.479       69.818    15621.955     8552.330     4874.578        4.956        1.452      264.738       49.495        0.035      332.716        1.556      864.118
11/21/2013  11:01:00       97.325      134.017       -5.312       97.077       92.671       70.487     9423.998     8587.937     4968.392        2.522        1.149      165.628       43.670        0.070      332.810        1.714      864.127
11/21/2013  11:02:00      148.676      205.910        2.520      135.310      112.566       90.115    18308.738    12671.018     8120.750        5.180        1.955      253.975       78.387        0.095      332.584        1.339      864.107
11/21/2013  11:03:00      105.754      219.792      -14.224       98.256      132.872       91.460     9654.146    17654.965     8364.849        4.768        1.784      243.911       80.890        0.110      332.643        1.436      864.098
11/21/2013  11:04:00      103.809      113.478       21.392       88.554       86.479       74.601     7841.816     7478.652     5565.255        2.249        1.044      153.797       51.312        0.111      332.683        1.504      864.095
11/21/2013  11:05:00      124.695      169.808       -0.550      117.024      107.304       84.679    13694.706    11514.093     7170.565        3.838        1.619      210.674       62.034        0.087      332.596        1.359      864.078
11/21/2013  11:06:00      144.250      127.586       10.866       92.789       82.026       63.037     8609.754     6728.281     3973.610        2.825        0.966      192.578       52.795        0.075      332.571        1.317      864.071
11/21/2013  11:07:00      118.865      163.992        1.217       94.431      162.200       63.007     8917.249    26308.821     3969.873        4.010        1.960      202.539       78.402        0.150      332.734        1.587      864.061
11/21/2013  11:08:00       66.816      195.421        1.773      106.769      157.639       90.502    11399.676    24849.908     8190.572        4.354        2.222      206.528       97.270        0.222      332.609        1.380      864.074
11/21/2013  11:09:00      135.849      171.586        8.941      106.296      129.120       86.575    11298.866    16672.044     7495.272        4.171        1.773      218.853       86.516        0.156      332.573        1.321      864.070
11/21/2013  11:10:00       78.855      160.336        1.671       99.656      104.415       63.405     9931.259    10902.399     4020.173        2.839        1.243      178.678       58.193        0.106      332.763        1.635      864.070
11/21/2013  11:11:00      176.729      136.736       50.830      113.263       74.430       78.523    12828.554     5539.822     6165.800        3.852        1.227      223.449       47.532        0.045      332.837        1.756      864.056
11/21/2013  11:12:00      200.768      151.847       21.300      102.196       74.505       66.401    10444.007     5550.935     4409.030        4.211        1.020      251.725       26.946        0.011      332.692        1.517      864.091
11/21/2013  11:13:00       78.555       69.478       24.134       59.355       47.941       40.858     3523.064     2298.356     1669.400        0.953        0.375      104.872       24.891        0.056      332.818        1.729      864.088
11/21/2013  11:14:00      128.634       99.238       16.738      100.744       82.209       66.276    10149.353     6758.392     4392.565        2.398        1.065      162.465       48.402        0.089      332.688        1.511      864.087
11/21/2013  11:15:00      169.747       99.538       13.869       97.673       64.807       56.395     9540.059     4199.917     3180.404        2.791        0.846      196.779       32.062        0.027      332.686        1.507      864.079
11/21/2013  11:16:00      199.095      134.082       12.706      105.899       77.435       87.074    11214.585     5996.150     7581.857        4.128        1.240      240.035       49.163        0.042      332.696        1.523      864.079
11/21/2013  11:17:00      181.530      132.227       16.155       78.483       71.274       70.980     6159.630     5079.976     5038.119        3.348        0.814      224.582       52.072        0.054      332.667        1.475      864.093
11/21/2013  11:18:00      114.428      154.612       -3.734       80.268       91.728       68.979     6443.017     8413.945     4758.053        2.831        0.981      192.351       64.228        0.111      332.697        1.526      864.102
11/21/2013  11:19:00      125.178      171.099        3.044      131.334      118.563      100.646    17248.643    14057.269    10129.673        4.319        2.072      212.001       80.538        0.144      332.611        1.383      864.091
11/21/2013  11:20:00      258.650      195.024       25.892      147.339      114.697       90.280    21708.721    13155.386     8150.493        7.430        2.151      323.936       72.559        0.050      332.571        1.317      864.089
11/21/2013  11:21:00      198.989      159.880        3.718      152.032       77.401       59.649    23113.838     5990.986     3557.956        4.891        1.633      255.261       39.488        0.024      332.752        1.616      864.092
11/21/2013  11:22:00      292.435      173.048       47.361       95.532       81.818       76.787     9126.433     6694.113     5896.205        6.971        1.086      339.800       53.008        0.024      332.697        1.525      864.082
11/21/2013  11:23:00      189.604      142.813      106.969      166.170      125.667       96.186    27612.479    15792.281     9251.677        6.021        2.633      237.372       92.201        0.151      332.682        1.501      864.062
11/21/2013  11:24:00      130.211       87.382       69.001      134.894       94.266       80.908    18196.419     8886.047     6546.110        3.148        1.681      156.814       73.601        0.220      332.778        1.661      864.056
11/21/2013  11:25:00      224.423      104.722       50.714      119.090       91.269       84.219    14182.543     8330.053     7092.902        4.675        1.480      247.654       67.856        0.075      332.651        1.449      864.054
11/21/2013  11:26:00      214.461      165.542        7.058      106.616       77.798       61.978    11366.931     6052.555     3841.217        4.735        1.063      270.920       41.400        0.023      332.605        1.373      864.070
11/21/2013  11:27:00      227.302      195.415      146.848      139.083      120.879      119.159    19344.149    14611.676    14198.862        7.978        2.408      299.755      108.548        0.131      332.716        1.555      864.055
11/21/2013  11:28:00      195.380      162.070       90.076      147.766      103.668      112.358    21834.763    10747.045    12624.398        5.887        2.260      253.850       95.927        0.143      332.800        1.695      864.064
11/21/2013  11:29:00      149.087      101.975       47.004       86.614       90.947       72.533     7502.018     8271.396     5261.080        2.793        1.052      180.626       37.608        0.043      332.864        1.803      864.091
11/21/2013  11:30:00      194.329      148.093       48.908      133.714       86.499       95.274    17879.412     7482.140     9077.186        4.826        1.722      244.326       54.270        0.049      332.730        1.580      864.092
11/21/2013  11:31:00      229.974      121.077       12.332      111.012       83.421       67.531    12323.601     6959.041     4560.450        4.577        1.192      259.899       45.278        0.030      332.760        1.628      864.097
11/21/2013  11:32:00      197.302      149.697       11.272      128.339       81.630       76.342    16470.950     6663.504     5828.152        4.521        1.448      247.664       50.091        0.041      332.712        1.550      864.113
11/21/2013  11:33:00      184.802       83.905       38.807      117.852       81.365       59.032    13889.084     6620.268     3484.800        3.334        1.200      202.957       25.751        0.016      332.767        1.640      864.121
11/21/2013  11:34:00      114.944      101.237       22.234      108.178       68.577       60.334    11702.445     4702.756     3640.176        2.200        1.002      153.170       18.876        0.015      332.801        1.699      864.129
11/21/2013  11:35:00      269.499      175.092       26.009      135.247       86.235       75.999    18291.642     7436.514     5775.811        6.773        1.575      321.383       33.870        0.011      332.688        1.510      864.144
11/21/2013  11:36:00      299.073      158.452       46.604      109.415       95.090       76.505    11971.739     9042.046     5853.050        7.179        1.343      338.455       43.709        0.017      332.634        1.421      864.141
11/21/2013  11:37:00      161.746       95.322       19.413      103.068       79.431       49.809    10622.919     6309.337     2480.934        2.752        0.971      187.744       26.870        0.020      332.697        1.526      864.146
11/21/2013  11:38:00       60.268      140.715        2.030       75.982      111.583       71.425     5773.331    12450.872     5101.489        2.338        1.166      153.078       63.334        0.171      332.708        1.545      864.150
11/21/2013  11:39:00      103.660      122.440        7.616      100.271       95.039       56.814    10054.301     9032.377     3227.874        2.405        1.116      160.427       46.697        0.085      332.687        1.508      864.120
11/21/2013  11:40:00       65.134      159.449        9.193      126.572      115.525       73.219    16020.374    13345.966     5361.036        3.223        1.736      172.240       59.318        0.119      332.625        1.406      864.072
11/21/2013  11:41:00      171.298      142.936       -1.170      110.360       78.438       56.115    12179.415     6152.572     3148.916        3.562        1.074      223.100       33.854        0.023      332.598        1.362      864.059
11/21/2013  11:42:00      195.498      123.888       42.302      113.806       66.355       62.145    12951.796     4403.040     3862.031        3.828        1.061      231.447       49.190        0.045      332.681        1.499      864.035
11/21/2013  11:43:00      178.324      161.394        4.898      107.599       80.329       70.648    11577.492     6452.814     4991.164        4.044        1.151      240.515       43.042        0.032      332.630        1.414      864.018
11/21/2013  11:44:00      167.911      205.753        6.149      128.444      123.163       97.080    16497.910    15169.108     9424.484        5.582        2.055      265.572       86.426        0.106      332.539        1.266      864.038
11/21/2013  11:45:00       97.503      174.461        0.659      101.390      102.154       73.057    10279.908    10435.372     5337.284        3.299        1.303      199.858       64.284        0.103      332.655        1.457      864.043
11/21/2013  11:46:00       76.409      212.281       -6.330      113.024      148.406       71.645    12774.494    22024.336     5132.974        4.543        1.997      225.613       73.966        0.107      332.670        1.480      864.043
11/21/2013  11:47:00      115.298      117.358        6.092       74.503       86.034       61.551     5550.706     7401.913     3788.468        2.192        0.837      164.519       49.916        0.092      332.735        1.589      864.052
11/21/2013  11:48:00       66.744      214.867      -12.159       83.794      122.644       75.345     7021.486    15041.616     5676.874        3.925        1.387      224.994       74.766        0.110      332.541        1.267      864.065
11/21/2013  11:49:00       43.376      207.297      -16.963       78.768      103.570       61.705     6204.349    10726.812     3807.519        3.294        1.037      211.786       59.230        0.078      332.608        1.379      864.071
11/21/2013  11:50:00       46.645      176.222      -16.665       83.435      120.816       58.205     6961.347    14596.419     3387.767        2.922        1.247      182.291       75.125        0.170      332.689        1.512      864.070
11/21/2013  11:51:00       49.182      159.733      -14.758       84.589      130.867       65.871     7155.246    17126.259     4338.981        2.838        1.431      167.133       62.667        0.141      332.567        1.312      864.053
11/21/2013  11:52:00       94.820      168.537       -3.940      102.208      119.925       86.611    10446.520    14382.059     7501.441        3.486        1.617      193.379       79.592        0.169      332.433        1.089      864.042
11/21/2013  11:53:00      137.066       96.371       21.273      105.751       86.712       67.455    11183.201     7518.895     4550.142        2.588        1.163      167.555       48.434        0.084      332.505        1.211      864.030
11/21/2013  11:54:00       50.949      178.227      -24.111       58.660      147.419       56.226     3441.024    21732.411     3161.357        3.163        1.417      185.367       76.729        0.171      332.539        1.265      864.031
11/21/2013  11:55:00      185.303      142.302       26.713      100.599       82.436       50.809    10120.162     6795.638     2581.588        3.740        0.975      233.639       38.111        0.027      332.527        1.246      864.040
11/21/2013  11:56:00      191.611      170.676       11.229      133.232       83.477       63.599    17750.768     6968.416     4044.893        4.736        1.438      256.603       40.468        0.025      332.477        1.163      864.041
11/21/2013  11:57:00       74.553       94.690       19.314       70.665       78.509       63.469     4993.513     6163.675     4028.279        1.504        0.759      120.517       35.749        0.088      332.590        1.350      864.073
11/21/2013  11:58:00      157.575      108.998       26.818       99.752       64.904       58.258     9950.422     4212.521     3393.998        2.749        0.878      191.600       41.575        0.047      332.718        1.561      864.099
11/21/2013  11:59:00      133.839      170.325       16.108      127.214      108.023       68.667    16183.373    11669.040     4715.135        3.987        1.628      216.618       61.091        0.080      332.565        1.307      864.123
11/21/2013  12:00:00      189.822      129.872       29.170      120.240       91.473       60.439    14457.574     8367.271     3652.924        4.011        1.324      229.998       42.512        0.034      332.407        1.048      864.103
11/21/2013  12:01:00      135.506      132.549       -1.238      117.766       94.406       46.838    13868.768     8912.438     2193.799        3.045        1.249      189.555       40.380        0.045      332.552        1.286      864.072
11/21/2013  12:02:00      133.495      200.505      -12.125      112.839      116.150       69.069    12732.559    13490.715     4770.459        4.458        1.550      240.880       56.489        0.055      332.536        1.260      864.075
11/21/2013  12:03:00      200.350      157.911       12.589      136.675       98.850       74.826    18679.994     9771.400     5598.994        4.964        1.703      255.100       59.244        0.054      332.520        1.234      864.089
11/21/2013  12:04:00      146.859       88.467       15.161       86.867       79.975       62.129     7545.944     6395.983     3860.070        2.371        0.890      171.446       51.394        0.090      332.580        1.334      864.099
11/21/2013  12:05:00       27.376      184.837      -28.197       97.680      108.606       45.584     9541.435    11795.199     2077.878        2.956        1.171      186.854       38.174        0.042      332.615        1.390      864.107
11/21/2013  12:06:00       61.666      170.574       -8.298       72.844      103.011       71.816     5306.243    10611.285     5157.582        2.702        1.054      181.379       69.523        0.147      332.653        1.454      864.105
11/21/2013  12:07:00       70.889      327.514      -37.274       88.764      131.830       77.002     7878.994    17379.043     5929.325        7.243        1.559      335.097       73.293        0.048      332.439        1.098      864.097
11/21/2013  12:08:00      126.856      195.080      -10.678      124.999       92.231       71.785    15624.809     8506.522     5153.018        4.177        1.464      232.699       50.478        0.047      332.567        1.311      864.087
11/21/2013  12:09:00      265.896      160.317       41.386       97.667       88.880       71.863     9538.858     7899.641     5164.304        6.035        1.130      310.487       41.292        0.018      332.542        1.269      864.084
11/21/2013  12:10:00      210.731      168.390        6.450      123.695       85.515       83.114    15300.462     7312.735     6907.972        5.116        1.476      269.746       63.606        0.056      332.475        1.159      864.079
11/21/2013  12:11:00      245.782      192.955       31.860      133.693      104.710       85.935    17873.884    10964.241     7384.749        6.743        1.811      312.474       52.756        0.029      332.516        1.227      864.070
11/21/2013  12:12:00      117.687      139.922       14.242       95.052       90.802       67.813     9034.806     8245.048     4598.622        2.775        1.094      182.834       62.671        0.117      332.426        1.079      864.064
11/21/2013  12:13:00      152.131      139.999       16.344      105.879       77.718       71.023    11210.314     6040.086     5044.246        3.265        1.115      206.745       54.910        0.071      332.451        1.120      864.039
11/21/2013  12:14:00      114.965      146.456        2.825       97.315       99.034       73.277     9470.278     9807.683     5369.506        2.966        1.232      186.189       51.562        0.077      332.531        1.251      864.028
11/21/2013  12:15:00       87.021      245.705      -20.092       75.122      122.421       84.032     5643.317    14986.928     7061.448        4.801        1.385      260.660       74.822        0.082      332.423        1.072      864.027
11/21/2013  12:16:00       53.541      300.245      -33.819       87.430      151.174       81.719     7644.048    22853.668     6678.051        6.566        1.859      304.981       85.939        0.079      332.452        1.122      864.031
11/21/2013  12:17:00       40.600      186.498        2.060       86.020      131.250       77.137     7399.521    17226.520     5950.156        3.350        1.529      190.866       75.583        0.157      332.429        1.084      864.030
11/21/2013  12:18:00       35.698      215.820      -19.341       56.801       94.594       50.842     3226.365     8947.960     2584.871        3.149        0.738      218.752       54.994        0.063      332.530        1.251      864.034
11/21/2013  12:19:00       71.257       73.329        4.054       59.389       63.458       38.192     3527.038     4026.910     1458.647        0.974        0.451      102.248       34.707        0.115      332.657        1.462      864.039
11/21/2013  12:20:00      141.802      144.639        8.113       98.446       79.703       63.349     9691.567     6352.573     4013.123        3.057        1.003      202.554       51.383        0.064      332.552        1.287      864.036
11/21/2013  12:21:00      113.197      206.185        6.021      113.234      128.616       80.921    12821.988    16542.059     6548.228        4.563        1.796      235.215       77.110        0.107      332.531        1.251      864.044
11/21/2013  12:22:00      147.169      237.379        3.388      132.257      166.357      101.309    17492.013    27674.580    10263.438        6.671        2.772      279.298      101.635        0.132      332.463        1.139      864.030
11/21/2013  12:23:00       63.471      222.677      -21.199       87.607      155.621       78.635     7675.039    24218.026     6183.423        4.606        1.904      231.546       77.686        0.113      332.502        1.203      864.042
11/21/2013  12:24:00       46.596      143.044      -14.422       74.790       97.977       64.095     5593.474     9599.474     4108.182        2.107        0.965      150.442       61.735        0.168      332.459        1.134      864.059
11/21/2013  12:25:00      136.613      107.025       22.760      100.632       58.840       59.422    10126.754     3462.094     3530.977        2.387        0.856      173.544       38.910        0.050      332.493        1.191      864.073
11/21/2013  12:26:00       68.649      124.714       18.480       86.208      111.077       66.626     7431.744    12338.093     4439.035        2.240        1.210      142.360       66.107        0.216      332.546        1.277      864.085
11/21/2013  12:27:00       73.197      151.416        2.631       82.359       89.106       63.287     6782.979     7939.879     4005.189        2.351        0.936      168.180       54.432        0.105      332.583        1.339      864.082
11/21/2013  12:28:00      147.867      116.224       21.415       97.995       73.391       54.022     9603.012     5386.307     2918.329        2.687        0.895      188.077       28.128        0.022      332.679        1.495      864.085
11/21/2013  12:29:00      204.148      162.431       54.801      119.289       86.106       82.569    14229.941     7414.172     6817.612        4.976        1.423      260.884       49.084        0.035      332.561        1.300      864.078
11/21/2013  12:30:00      290.647      168.801       49.263      167.362      104.690       84.065    28010.007    10959.956     7066.904        8.071        2.302      336.110       66.387        0.039      332.527        1.244      864.085
11/21/2013  12:31:00      269.113      150.346       18.665      131.664       97.772       75.694    17335.312     9559.390     5729.598        6.399        1.631      308.262       54.524        0.031      332.567        1.311      864.101
11/21/2013  12:32:00      120.640      107.152        5.473       81.402       72.057       60.116     6626.246     5192.154     3613.919        2.075        0.772      161.355       38.723        0.058      332.596        1.359      864.127
11/21/2013  12:33:00       56.439      122.494       -7.257       67.865       91.597       58.870     4605.608     8390.100     3465.661        1.735        0.823      134.871       53.937        0.160      332.543        1.273      864.114
11/21/2013  12:34:00       86.029      221.459      -24.144       74.835      153.938       73.059     5600.256    23696.812     5337.670        4.582        1.732      237.582       78.621        0.110      332.499        1.199      864.072
11/21/2013  12:35:00       98.991      137.540        0.865       91.450       91.958       69.794     8363.125     8456.278     4871.264        2.520        1.085      169.459       58.412        0.119      332.544        1.273      864.070
11/21/2013  12:36:00      109.443      114.537        7.988       94.209       62.216       54.161     8875.364     3870.873     2933.374        2.042        0.784      158.419       31.599        0.040      332.519        1.233      864.083
11/21/2013  12:37:00       30.237       58.700       16.124       47.676       62.252       35.655     2273.037     3875.349     1271.257        0.602        0.371       66.030       32.087        0.236      332.735        1.590      864.099
11/21/2013  12:38:00       93.455       60.094       25.163       77.007       42.342       35.086     5930.148     1792.850     1231.001        1.096        0.448      111.109       23.102        0.043      332.813        1.720      864.105
11/21/2013  12:39:00      180.081      110.875       32.563       89.863       75.018       52.335     8075.273     5627.674     2738.929        3.111        0.822      211.477       38.237        0.033      332.686        1.506      864.111
11/21/2013  12:40:00      131.004      146.251        7.320      115.710       82.584       49.350    13388.915     6820.154     2435.423        3.062        1.132      196.345       46.346        0.056      332.702        1.535      864.124
11/21/2013  12:41:00      101.120      117.109       -5.357       83.019       83.438       52.385     6892.153     6961.820     2744.177        2.028        0.830      154.725       47.233        0.093      332.848        1.776      864.134
11/21/2013  12:42:00      148.253      102.916       19.916       99.718       73.254       54.086     9943.667     5366.146     2925.284        2.560        0.912      180.473       28.727        0.025      332.917        1.892      864.147
11/21/2013  12:43:00       72.235       75.292       10.181       57.436       52.599       38.913     3298.936     2766.679     1514.226        0.928        0.379      104.340       18.033        0.030      332.937        1.924      864.166
11/21/2013  12:44:00       58.274       50.351        9.153       70.052       43.053       40.647     4907.299     1853.570     1652.173        0.721        0.421       77.014       37.339        0.235      333.015        2.053      864.184
11/21/2013  12:45:00       91.957      202.104      -22.911       81.045      145.314       55.052     6568.266    21116.295     3030.685        4.027        1.536      222.041       72.519        0.107      332.843        1.769      864.210
11/21/2013  12:46:00       98.453      172.542        2.637       90.506      143.566       77.379     8191.293    20611.167     5987.456        3.712        1.739      198.655       82.059        0.171      332.751        1.615      864.201
11/21/2013  12:47:00       79.530      258.612      -32.641      111.261      147.211       89.791    12378.985    21670.954     8062.470        5.818        2.106      270.564       83.046        0.094      332.722        1.566      864.213
11/21/2013  12:48:00      247.518      171.870       20.321       99.936       74.129       68.740     9987.259     5495.104     4725.223        5.571        1.010      301.338       37.185        0.015      332.553        1.287      864.240
11/21/2013  12:49:00      212.035      138.888       31.452       87.688       64.635       46.386     7689.264     4177.710     2151.658        3.963        0.701      253.473       24.722        0.010      332.702        1.533      864.248
11/21/2013  12:50:00      185.445      113.485       25.579      104.586       72.921       65.697    10938.274     5317.470     4316.067        3.424        1.029      217.414       42.975        0.039      332.694        1.519      864.237
11/21/2013  12:51:00      157.852      121.706       13.653      134.316       68.147       61.644    18040.748     4643.988     3799.956        3.319        1.324      199.323       38.194        0.037      332.806        1.707      864.237
11/21/2013  12:52:00      177.568      152.469       17.830      142.687       97.906       82.070    20359.650     9585.528     6735.450        4.588        1.834      234.045       57.800        0.061      332.787        1.674      864.262
11/21/2013  12:53:00      145.842      133.442       17.499       94.356       92.581       74.398     8902.976     8571.308     5535.071        3.119        1.150      197.678       51.044        0.067      332.733        1.586      864.271
11/21/2013  12:54:00      153.251       98.847       26.296       92.702       51.393       50.543     8593.654     2641.288     2554.603        2.387        0.689      182.364       34.012        0.035      332.895        1.854      864.299
11/21/2013  12:55:00      124.961       54.317       26.566       95.714       75.193       54.918     9161.078     5653.916     3016.019        1.855        0.892      136.256       33.810        0.062      333.006        2.038      864.312
11/21/2013  12:56:00      181.055       98.545       51.458      127.663       89.265       66.713    16297.854     7968.260     4450.651        3.692        1.436      206.136       74.043        0.129      332.895        1.852      864.292
11/21/2013  12:57:00      212.502      142.845       42.678      143.304       94.967       80.520    20535.959     9018.765     6483.470        5.170        1.802      256.051       51.484        0.040      332.972        1.980      864.301
11/21/2013  12:58:00      235.535      165.723       48.034      168.213      124.831       83.973    28295.605    15582.737     7051.508        6.808        2.546      287.995       44.551        0.024      332.928        1.907      864.316
11/21/2013  12:59:00      194.950      167.109       36.693      130.527      116.062       90.400    17037.356    13470.431     8172.143        5.297        1.934      256.770       68.175        0.070      332.859        1.793      864.331
11/21/2013  13:00:00      134.703      184.075        4.345      128.963      117.692       92.820    16631.534    13851.464     8615.594        4.557        1.955      228.098       70.511        0.096      332.857        1.789      864.328
11/21/2013  13:01:00      275.174      197.834       40.043      166.204      115.001       96.176    27623.653    13225.317     9249.839        8.327        2.505      338.909       59.671        0.031      332.939        1.925      864.339
11/21/2013  13:02:00      215.006      162.580       12.483      141.044      122.174       84.042    19893.468    14926.530     7063.010        5.734        2.094      269.555       52.676        0.038      332.946        1.937      864.347
11/21/2013  13:03:00      187.300      152.384       31.829      165.326       85.400       73.687    27332.834     7293.118     5429.814        4.968        2.003      241.458       61.536        0.065      332.844        1.769      864.342
11/21/2013  13:04:00      137.392      128.596       38.264      115.257       88.653       67.698    13284.211     7859.384     4583.085        3.130        1.286      188.185       51.073        0.074      332.857        1.789      864.349
11/21/2013  13:05:00      271.539      163.854       17.704      126.712       78.105       67.982    16055.994     6100.321     4621.612        6.383        1.339      317.146       36.223        0.013      332.751        1.614      864.361
11/21/2013  13:06:00      273.440      214.838        9.447      176.906      141.715      126.101    31295.595    20083.272    15901.567        9.413        3.364      347.742       99.689        0.082      332.764        1.636      864.369
11/21/2013  13:07:00      263.156      142.402       27.509      129.112       99.982       80.718    16670.000     9996.466     6515.388        6.173        1.659      299.215       38.915        0.017      332.877        1.822      864.376
11/21/2013  13:08:00      244.823      161.880        6.904      146.629       93.031       71.557    21500.109     8654.685     5120.431        6.073        1.764      293.502       36.395        0.015      332.810        1.713      864.399
11/21/2013  13:09:00      265.086      174.004       17.230      130.448      107.136       85.405    17016.561    11478.055     7293.934        6.831        1.789      317.093       46.232        0.021      332.790        1.679      864.405
11/21/2013  13:10:00      164.551      110.828       12.984      122.466      104.596       60.827    14997.863    10940.337     3699.932        3.458        1.482      198.393       51.998        0.069      332.861        1.796      864.419
11/21/2013  13:11:00      228.213      142.947       38.131      103.968       76.534       56.617    10809.265     5857.498     3205.507        4.692        0.994      269.286       34.483        0.016      332.864        1.801      864.419
11/21/2013  13:12:00      272.474      138.612       36.090      109.649       81.469       55.460    12022.843     6637.142     3075.805        5.824        1.087      305.705       25.593        0.007      332.863        1.800      864.428
11/21/2013  13:13:00      182.070      131.302       16.614       98.723       81.076       61.613     9746.139     6573.372     3796.118        3.539        1.006      224.477       39.509        0.031      332.979        1.991      864.418
11/21/2013  13:14:00      182.607      126.628       26.623       99.739       83.013       77.043     9947.960     6891.209     5935.629        3.643        1.139      222.216       50.378        0.051      332.899        1.858      864.402
11/21/2013  13:15:00      174.302      112.288       36.684      141.740      114.410       72.563    20090.368    13089.545     5265.453        4.138        1.922      207.340       65.001        0.098      332.930        1.911      864.396
11/21/2013  13:16:00      225.924      145.773       22.210      118.321       75.432       74.320    13999.851     5690.048     5523.531        4.899        1.261      268.871       36.818        0.019      332.851        1.780      864.419
11/21/2013  13:17:00      370.770      235.376       31.998      196.923      124.908       98.199    38778.765    15601.960     9642.983       12.895        3.201      439.173       58.947        0.018      332.602        1.367      864.413
11/21/2013  13:18:00      257.547      186.555       22.451      108.308      100.736       84.870    11730.554    10147.748     7202.838        6.535        1.454      318.015       58.291        0.034      332.599        1.364      864.397
11/21/2013  13:19:00      203.673      140.480       22.175      107.952       93.805       79.041    11653.657     8799.417     6247.445        4.420        1.335      247.421       55.388        0.050      332.666        1.474      864.386
11/21/2013  13:20:00      163.036       94.770       31.812      127.209       94.304       65.326    16182.217     8893.332     4267.465        3.295        1.467      188.579       41.038        0.047      332.784        1.670      864.401
11/21/2013  13:21:00      189.664      116.380       34.882      157.912      111.551       75.333    24936.295    12443.583     5675.123        4.689        2.153      222.523       52.189        0.055      332.749        1.612      864.424
11/21/2013  13:22:00      270.440      168.991       26.973      133.735       69.450       79.517    17885.044     4823.368     6322.885        6.572        1.452      318.898       44.663        0.020      332.710        1.546      864.453
11/21/2013  13:23:00      289.446      180.197       42.094      153.490      131.252       89.677    23559.305    17227.148     8041.883        8.342        2.441      340.954       66.289        0.038      332.606        1.374      864.471
11/21/2013  13:24:00      296.925      175.475       58.147      138.465      114.556       91.567    19172.426    13122.970     8384.507        8.150        2.034      344.900       58.901        0.029      332.606        1.374      864.462
11/21/2013  13:25:00      233.611      164.050       65.592      177.036      115.920      106.438    31341.598    13437.343    11329.015        7.094        2.805      285.459       90.212        0.100      332.579        1.331      864.469
11/21/2013  13:26:00      103.708       94.463       52.811       65.268       95.337       71.226     4259.888     9089.050     5073.111        2.044        0.921      140.281       43.752        0.097      332.709        1.546      864.461
11/21/2013  13:27:00      121.904      118.575       68.284      141.870       84.377       84.177    20126.987     7119.423     7085.756        3.395        1.717      170.060       73.807        0.188      332.713        1.552      864.477
11/21/2013  13:28:00      278.440      186.293       39.133      123.252      120.800       99.218    15190.935    14592.690     9844.122        7.669        1.981      335.014       48.792        0.021      332.561        1.301      864.483
11/21/2013  13:29:00      253.524      156.216       64.203      114.436       93.549       97.588    13095.558     8751.423     9523.348        6.208        1.569      297.788       48.772        0.027      332.617        1.394      864.477
11/21/2013  13:30:00      249.905      100.625       22.151      113.025       83.717       56.928    12774.609     7008.523     3240.761        4.804        1.151      269.403       30.657        0.013      332.655        1.456      864.480
11/21/2013  13:31:00      211.732      118.365       35.782      113.879       83.674       52.835    12968.460     7001.294     2791.566        4.144        1.138      242.571       42.107        0.030      332.689        1.513      864.511
11/21/2013  13:32:00      111.612       58.534       24.240       90.380       62.113       40.186     8168.467     3857.987     1614.901        1.505        0.682      126.029       22.220        0.031      332.808        1.710      864.525
11/21/2013  13:33:00      162.998      134.273       -0.242      133.805      105.924       76.075    17903.718    11219.846     5787.417        3.975        1.746      211.181       53.008        0.063      332.727        1.575      864.526
11/21/2013  13:34:00      299.184      173.276       74.406      125.260      105.688       84.806    15690.175    11169.861     7191.977        7.956        1.703      345.739       46.415        0.018      332.640        1.431      864.500
11/21/2013  13:35:00      206.651      149.382       21.858      116.239       77.770       77.526    13511.570     6048.121     6010.348        4.553        1.279      254.990       34.840        0.019      332.701        1.532      864.505
11/21/2013  13:36:00      100.233      120.983        1.358      102.655       81.326       63.052    10538.081     6613.982     3975.567        2.290        1.056      157.110       44.809        0.081      332.789        1.680      864.516
11/21/2013  13:37:00      165.255      148.368       21.227      117.757       86.258       84.325    13866.759     7440.389     7110.676        3.909        1.421      222.087       57.826        0.068      332.771        1.647      864.536
11/21/2013  13:38:00      192.677      110.014       37.935      128.999       97.757       66.424    16640.723     9556.372     4412.196        4.063        1.530      221.873       24.073        0.012      332.818        1.726      864.533
11/21/2013  13:39:00      260.338      209.405       10.832      179.316      115.045       95.797    32154.118    13235.437     9177.007        8.314        2.728      334.105       58.979        0.031      332.761        1.632      864.547
11/21/2013  13:40:00       95.239      117.078       94.536      137.868       77.292       88.494    19007.665     5974.020     7831.192        3.226        1.641      150.923       75.600        0.251      332.855        1.788      864.547
11/21/2013  13:41:00       77.493      121.632       24.470      129.851      114.217       80.312    16861.183    13045.430     6449.992        2.887        1.818      144.220       62.389        0.187      332.838        1.759      864.573
11/21/2013  13:42:00       23.958      361.108      -45.722      100.643      154.816       85.839    10129.016    23967.864     7368.354        8.726        2.073      361.902       83.466        0.053      332.679        1.495      864.564
11/21/2013  13:43:00      110.183      135.647       14.891       97.656       89.837       77.073     9536.614     8070.697     5940.313        2.715        1.177      174.759       63.676        0.133      332.754        1.621      864.548
11/21/2013  13:44:00      205.828      131.465       31.017      119.592       95.824       86.320    14302.242     9182.259     7451.129        4.577        1.547      244.230       58.686        0.058      332.732        1.584      864.549
11/21/2013  13:45:00      135.758       85.690       16.726      122.467       90.698       76.500    14998.094     8226.078     5852.305        2.756        1.454      160.540       47.912        0.089      332.675        1.489      864.561
11/21/2013  13:46:00       68.024      173.703      -19.513       76.661      149.606       61.966     5876.840    22382.091     3839.753        3.363        1.605      186.548       73.554        0.155      332.778        1.661      864.575
11/21/2013  13:47:00       95.184      242.414      -10.959       87.495      169.499       97.650     7655.331    28729.791     9535.498        5.692        2.296      260.431      100.903        0.150      332.621        1.402      864.561
11/21/2013  13:48:00       76.582      189.086      -12.275       92.406      131.808       73.915     8538.894    17373.244     5463.417        3.657        1.569      204.006       74.999        0.135      332.708        1.543      864.547
11/21/2013  13:49:00      157.350      175.334        5.538      133.401      105.085       93.299    17795.958    11042.763     8704.720        4.653        1.877      235.587       69.302        0.087      332.714        1.552      864.558
11/21/2013  13:50:00      158.575      221.319        7.191      157.152      142.974      114.043    24696.760    20441.503    13005.871        6.615        2.907      272.265       99.966        0.135      332.749        1.612      864.527
11/21/2013  13:51:00      244.371      149.625       47.547      111.250       78.741       72.743    12376.588     6200.127     5291.565        5.411        1.193      286.540       25.104        0.008      332.729        1.579      864.533
11/21/2013  13:52:00      321.465      211.392       75.565      146.303      113.109       88.819    21404.672    12793.611     7888.900        9.790        2.104      384.742       76.187        0.039      332.680        1.498      864.507
11/21/2013  13:53:00      234.159      153.756       44.958      121.006       93.551       98.761    14642.353     8751.782     9753.688        5.681        1.657      280.128       67.661        0.058      332.765        1.637      864.512
11/21/2013  13:54:00      188.292      111.928       74.001      116.875       89.346       88.203    13659.795     7982.693     7779.732        4.143        1.471      219.047       64.059        0.086      332.762        1.634      864.535
11/21/2013  13:55:00      144.662       91.956       24.751       68.160       51.635       54.639     4645.757     2666.158     2985.367        2.014        0.515      171.415       32.796        0.037      332.719        1.563      864.548
11/21/2013  13:56:00      164.341      118.875       68.836       86.764       72.624       77.413     7527.957     5274.248     5992.792        3.233        0.940      202.828       40.979        0.041      332.830        1.745      864.538
11/21/2013  13:57:00      270.461      161.011       36.597      125.923       81.670       77.605    15856.538     6670.047     6022.545        6.448        1.427      314.759       41.589        0.017      332.712        1.549      864.541
11/21/2013  13:58:00      183.388      123.450       51.858      126.273       92.478       80.807    15944.832     8552.149     6529.778        4.129        1.551      221.068       37.863        0.029      332.819        1.726      864.553
11/21/2013  13:59:00      160.227      164.704       10.084      134.055       89.194       76.610    17970.853     7955.488     5869.056        4.234        1.590      229.783       59.104        0.066      332.728        1.575      864.572
11/21/2013  14:00:00      109.607      186.100        0.678      129.891      143.234       91.756    16871.631    20515.944     8419.218        4.622        2.290      215.979       87.366        0.164      332.754        1.619      864.559
11/21/2013  14:01:00      241.710      191.337        8.981      154.357       97.155       84.448    23826.187     9439.135     7131.474        6.775        2.020      308.275       50.907        0.027      332.739        1.594      864.577
11/21/2013  14:02:00      304.908      230.062       36.970      146.619      102.616       76.021    21497.209    10530.069     5779.212        9.253        1.890      381.965       44.227        0.013      332.744        1.604      864.590
11/21/2013  14:03:00      283.473      191.671       13.595      118.055       97.852       74.088    13937.023     9575.085     5488.970        7.313        1.450      342.191       55.680        0.026      332.718        1.559      864.592
11/21/2013  14:04:00      382.963      276.440       22.643      182.864      131.061       94.703    33439.085    17176.888     8968.609       14.158        2.979      472.313       36.787        0.006      332.684        1.502      864.596
11/21/2013  14:05:00      283.527      200.800       43.082      120.836      100.740       84.625    14601.401    10148.529     7161.420        7.723        1.596      347.431       56.924        0.027      332.723        1.568      864.600
11/21/2013  14:06:00      106.482       66.958       14.045       68.939       65.520       60.147     4752.556     4292.852     3617.697        1.434        0.633      125.784       25.169        0.040      332.870        1.813      864.602
11/21/2013  14:07:00      113.611      104.145       30.301       79.020       60.965       56.897     6244.139     3716.679     3237.213        1.893        0.660      154.122       21.417        0.019      332.869        1.812      864.611
11/21/2013  14:08:00      255.389      268.659       19.081      197.187      171.388      119.326    38882.903    29373.919    14238.633       11.011        4.125      370.676       98.371        0.070      332.749        1.611      864.609
11/21/2013  14:09:00      198.227      104.434       44.289      165.865       91.978       65.803    27511.270     8459.889     4329.992        4.622        2.015      224.054       56.950        0.065      332.860        1.795      864.614
11/21/2013  14:10:00      286.838      228.293       28.898      122.682      107.852      101.127    15050.894    11632.016    10226.688        8.606        1.845      366.598       73.070        0.040      332.770        1.645      864.637
11/21/2013  14:11:00      178.402      136.878       29.473      151.676       92.735       68.060    23005.639     8599.781     4632.203        4.383        1.812      224.862       54.234        0.058      332.852        1.782      864.645
11/21/2013  14:12:00      243.647      188.031       29.889      155.517      109.191       92.965    24185.391    11922.694     8642.408        7.017        2.238      307.765       49.228        0.026      332.788        1.677      864.670
11/21/2013  14:13:00      326.902      220.825       34.005      121.063      117.997      115.389    14656.162    13923.306    13314.669        9.933        2.095      394.498       68.210        0.030      332.765        1.637      864.672
11/21/2013  14:14:00      334.783      222.446       33.381      198.821      152.874       94.360    39529.612    23370.426     8903.729       11.723        3.590      401.948       53.899        0.018      332.736        1.589      864.687
11/21/2013  14:15:00      440.350      306.625       67.589      148.943      117.219      104.127    22183.903    13740.396    10842.377       16.962        2.338      536.589       51.814        0.009      332.612        1.385      864.673
11/21/2013  14:16:00      327.067      183.585       48.310      128.209      124.366       85.466    16437.461    15466.779     7304.498        9.110        1.960      375.069       69.568        0.034      332.759        1.628      864.671
11/21/2013  14:17:00      293.957      196.656       30.656      147.277      114.736      110.693    21690.607    13164.242    12252.918        8.656        2.355      353.673       57.941        0.027      332.698        1.526      864.681
11/21/2013  14:18:00      243.935      191.574       47.454      157.526       86.390      104.824    24814.499     7463.288    10988.022        7.085        2.163      310.169       45.404        0.021      332.720        1.563      864.681
11/21/2013  14:19:00      226.406      103.716       37.900      138.088       79.535       72.006    19068.305     6325.877     5184.904        4.701        1.529      249.031       64.213        0.066      332.777        1.658      864.670
11/21/2013  14:20:00      203.496      129.659       31.576      120.402       80.782       67.577    14496.671     6525.674     4566.674        4.240        1.279      241.293       18.807        0.006      332.787        1.674      864.697
11/21/2013  14:21:00      150.986      133.061       77.463      109.573      104.876       89.244    12006.281    10999.036     7964.435        3.873        1.548      201.252       70.656        0.123      332.818        1.724      864.680
11/21/2013  14:22:00      134.012       76.056       46.817      107.105       66.111       71.375    11471.547     4370.630     5094.420        2.343        1.047      154.090       51.237        0.111      332.824        1.736      864.685
11/21/2013  14:23:00       98.592       78.540       15.192       80.175       71.959       54.288     6427.985     5178.145     2947.196        1.533        0.728      126.051       23.445        0.035      332.885        1.838      864.691
11/21/2013  14:24:00       85.923      113.152       88.314      112.564       89.571      101.722    12670.629     8023.004    10347.355        2.951        1.552      142.078       73.330        0.266      332.891        1.845      864.677
11/21/2013  14:25:00      289.997      168.078       23.745      138.459       94.376       70.546    19170.928     8906.901     4976.752        7.298        1.653      335.184       33.848        0.010      332.741        1.598      864.693
11/21/2013  14:26:00       79.280       84.813       19.637      121.033       79.491       62.882    14648.930     6318.823     3954.140        1.939        1.246      116.098       31.049        0.072      332.885        1.838      864.690
11/21/2013  14:27:00       92.888      133.939      -10.406       59.697       71.559       53.701     3563.777     5120.694     2883.828        1.912        0.578      162.996       47.195        0.084      332.858        1.794      864.708
11/21/2013  14:28:00      295.109      228.775       12.143      165.475      125.357      110.218    27382.101    15714.295    12147.971        9.740        2.762      373.400       69.542        0.035      332.705        1.538      864.721
11/21/2013  14:29:00      327.411      244.347       17.376      142.071      114.330       84.591    20184.090    13071.353     7155.712       10.380        2.021      408.538       64.742        0.025      332.640        1.431      864.725
11/21/2013  14:30:00      321.653      168.150       40.543      126.862      109.175       70.605    16093.972    11919.165     4985.036        8.318        1.650      362.953       34.273        0.009      332.695        1.521      864.725
11/21/2013  14:31:00      141.725       87.773       40.246      141.127       85.783       67.738    19916.759     7358.769     4588.419        3.063        1.593      166.703       34.160        0.042      332.798        1.693      864.739
11/21/2013  14:32:00      204.641      157.330        4.218      149.812       94.007       77.791    22443.785     8837.356     6051.483        5.198        1.867      258.129       51.249        0.039      332.770        1.646      864.761
11/21/2013  14:33:00      149.291      124.184       31.809      133.211       89.529       73.497    17745.117     8015.433     5401.826        3.494        1.558      194.189       51.267        0.070      332.766        1.642      864.763
11/21/2013  14:34:00      226.647       89.587       36.514      145.990       83.436       67.116    21312.942     6961.525     4504.540        4.675        1.639      243.710       43.187        0.031      332.775        1.655      864.749
11/21/2013  14:35:00      113.821       90.970        7.989       95.592       89.843       57.591     9137.922     8071.852     3316.776        2.091        1.026      145.708       41.006        0.079      332.830        1.746      864.742
11/21/2013  14:36:00      115.038      163.752      -14.401       79.534      102.893       57.539     6325.653    10586.951     3310.793        3.024        1.011      200.121       51.655        0.067      332.802        1.699      864.766
11/21/2013  14:37:00      219.888      186.914       21.309      145.197       92.551       95.816    21082.187     8565.739     9180.762        6.128        1.941      288.596       59.415        0.042      332.768        1.643      864.804
11/21/2013  14:38:00      329.614      218.570       37.812      151.014      114.780       89.137    22805.127    13174.486     7945.392       10.088        2.196      395.498       63.445        0.026      332.697        1.526      864.799
11/21/2013  14:39:00      233.681      166.100       26.932      105.405       74.713       75.105    11110.220     5582.062     5640.747        5.262        1.117      286.699       46.774        0.027      332.714        1.553      864.810
11/21/2013  14:40:00       90.891      327.156      -32.643      106.568      145.082       78.877    11356.815    21048.728     6221.565        7.748        1.931      339.548       80.992        0.057      332.661        1.466      864.798
11/21/2013  14:41:00      238.873      148.487       30.753      110.918       74.588       78.411    12302.829     5563.413     6148.308        5.203        1.201      281.263       41.240        0.021      332.630        1.414      864.790
11/21/2013  14:42:00      229.620      152.569       40.071      163.116      107.694       78.815    26606.789    11598.042     6211.812        6.100        2.221      275.686       45.736        0.028      332.705        1.539      864.794
11/21/2013  14:43:00      234.803      201.122        5.979      146.968      124.834       96.791    21599.558    15583.542     9368.479        7.108        2.328      309.164       83.708        0.073      332.686        1.507      864.821
11/21/2013  14:44:00      294.024      224.320       16.474      126.772       84.043       99.697    16071.088     7063.144     9939.486        8.505        1.654      369.824       64.820        0.031      332.647        1.441      864.830
11/21/2013  14:45:00      249.653      196.328       13.217      172.590      105.392       80.247    29787.467    11107.385     6439.569        7.418        2.367      317.602       51.121        0.026      332.582        1.336      864.822
11/21/2013  14:46:00       89.410      167.299       -2.021       72.842       99.829       65.442     5305.910     9965.916     4282.619        2.777        0.978      189.693       55.961        0.087      332.668        1.478      864.827
11/21/2013  14:47:00      173.236      135.110       17.240       88.098       87.630       60.451     7761.313     7678.946     3654.340        3.382        0.955      219.694       46.063        0.044      332.747        1.608      864.851
11/21/2013  14:48:00      143.920       99.710       26.735      134.862       67.929       52.308    18187.665     4614.375     2736.134        2.845        1.277      175.086       28.540        0.027      332.813        1.719      864.880
11/21/2013  14:49:00      206.609      111.897       40.390      102.248       66.734       54.371    10454.722     4453.465     2956.216        3.735        0.893      234.964       24.411        0.011      332.775        1.653      864.884
11/21/2013  14:50:00       51.538       72.807       44.350       82.451       53.494       48.033     6798.112     2861.661     2307.131        1.094        0.598       89.202       37.467        0.176      332.920        1.897      864.882
11/21/2013  14:51:00      140.644      142.103       17.515      105.242       88.098       69.337    11075.981     7761.326     4807.655        3.196        1.182      199.935       52.397        0.069      332.747        1.609      864.884
11/21/2013  14:52:00      103.453      161.468        5.237      103.968      137.393       66.561    10809.306    18876.967     4430.412        3.545        1.706      191.766       73.642        0.147      332.732        1.583      864.909
11/21/2013  14:53:00      204.376      150.865       13.007      122.356       85.560       75.047    14971.085     7320.551     5631.981        4.631        1.396      254.027       52.488        0.043      332.764        1.637      864.921
11/21/2013  14:54:00      171.846      162.939       14.448      126.545       95.652       86.271    16013.722     9149.353     7442.766        4.444        1.630      236.813       57.381        0.059      332.782        1.667      864.925
11/21/2013  14:55:00      224.439      190.552       21.923      165.673      123.685      106.668    27447.533    15297.898    11378.165        7.063        2.706      294.420       77.277        0.069      332.653        1.451      864.950
11/21/2013  14:56:00      222.280      129.029       24.043      122.056       92.881       63.470    14897.678     8626.825     4028.403        4.709        1.378      257.015       41.367        0.026      332.688        1.512      864.949
11/21/2013  14:57:00      159.117      100.042       32.422      109.531       88.200       60.730    11997.086     7779.266     3688.115        2.992        1.173      187.953       34.566        0.034      332.760        1.631      864.942
11/21/2013  14:58:00      229.124      142.691        8.091       92.498       80.645       59.148     8555.953     6503.646     3498.544        4.574        0.928      269.923       44.017        0.027      332.723        1.569      864.940
11/21/2013  14:59:00      203.683      149.978        8.228      117.693       90.353       73.374    13851.629     8163.688     5383.672        4.572        1.370      252.943       43.706        0.030      332.711        1.548      864.940
11/21/2013  15:00:00      171.254      133.326        9.864      125.909       79.898       58.329    15853.061     6383.678     3402.265        3.641        1.282      217.034       43.687        0.041      332.723        1.568      864.933
11/21/2013  15:01:00      195.909      115.795       26.494      106.342       97.532       69.232    11308.675     9512.566     4793.050        3.905        1.281      227.572       55.702        0.060      332.778        1.659      864.936
11/21/2013  15:02:00      182.106      134.172       36.264      118.545       88.402       67.652    14052.857     7814.938     4576.780        3.946        1.322      226.197       41.000        0.033      332.785        1.671      864.948
11/21/2013  15:03:00      190.244      139.862       14.762      115.061       85.666       70.545    13239.026     7338.663     4976.531        4.076        1.278      236.123       48.138        0.042      332.806        1.705      864.954
11/21/2013  15:04:00      145.819      143.782        1.208      102.847       77.243       62.482    10577.497     5966.472     3904.053        3.119        1.022      204.784       49.074        0.057      332.736        1.591      864.958
11/21/2013  15:05:00      143.123      157.431       -5.461      111.377      100.518       89.021    12404.933    10103.911     7924.711        3.786        1.522      212.764       67.249        0.100      332.717        1.558      864.943
11/21/2013  15:06:00      206.764      117.948       24.627      134.496       89.232       70.038    18089.278     7962.436     4905.379        4.411        1.548      238.040       48.694        0.042      332.761        1.633      864.954
11/21/2013  15:07:00      140.978      125.699       10.134      108.741       54.701       62.620    11824.711     2992.219     3921.300        2.725        0.937      188.878       34.400        0.033      332.800        1.695      864.946
11/21/2013  15:08:00      114.395       85.395       10.325      111.457       86.836       68.184    12422.724     7540.439     4649.093        2.254        1.231      142.753       44.503        0.097      332.805        1.705      864.921
11/21/2013  15:09:00      251.083      158.790       48.896      115.889       80.879       72.232    13430.283     6541.493     5217.446        5.791        1.259      297.081       31.571        0.011      332.821        1.729      864.937
11/21/2013  15:10:00      186.071      140.911       24.532      103.209       84.277       75.291    10652.021     7102.565     5668.765        3.925        1.171      233.406       49.783        0.045      332.812        1.717      864.948
11/21/2013  15:11:00       99.510       75.792       97.121      102.541       91.887       73.435    10514.748     8443.270     5392.717        2.471        1.218      125.086       71.734        0.329      332.904        1.870      864.943
11/21/2013  15:12:00      204.120      155.121       35.924      156.810      105.208       94.950    24589.294    11068.682     9015.581        5.584        2.234      256.374       68.710        0.072      332.798        1.692      864.992
11/21/2013  15:13:00      302.329      189.901       43.475      195.007      170.012      124.154    38027.764    28904.085    15414.330       10.583        4.117      357.023       82.448        0.053      332.785        1.670      864.987
11/21/2013  15:14:00      122.773      136.772        7.357      124.496       96.134       68.190    15499.302     9241.831     4649.818        3.161        1.470      183.793       64.612        0.124      332.814        1.719      865.011
11/21/2013  15:15:00      173.982      139.806       33.103      161.373      128.744       60.616    26041.116    16575.004     3674.241        4.859        2.315      223.193       42.876        0.037      332.862        1.799      865.023
11/21/2013  15:16:00      166.692      132.938       17.036      136.731      108.061       77.293    18695.437    11677.107     5974.148        4.104        1.817      213.211       55.263        0.067      332.809        1.711      865.016
11/21/2013  15:17:00      191.827      165.633       14.450      125.721       79.811       73.513    15805.654     6369.750     5404.211        4.600        1.379      253.440       52.594        0.043      332.727        1.575      865.005
11/21/2013  15:18:00      201.238      133.482       44.544      137.652       94.769       76.345    18948.159     8981.147     5828.584        4.702        1.688      241.484       34.920        0.021      332.797        1.691      865.010
11/21/2013  15:19:00      267.403      197.482       45.912      205.273       96.373       95.323    42137.195     9287.835     9086.410        8.655        3.026      332.421       80.207        0.058      332.819        1.727      865.001
11/21/2013  15:20:00      243.568      178.298       22.738      120.070       83.333       68.917    14416.696     6944.409     4749.608        5.887        1.306      301.853       34.155        0.013      332.786        1.673      865.038
11/21/2013  15:21:00      183.961      138.190        3.867       94.491       70.437       65.395     8928.599     4961.321     4276.460        3.556        0.908      230.083       39.036        0.029      332.855        1.787      865.069
11/21/2013  15:22:00      213.878      165.115       25.138      165.545      107.463       74.223    27405.264    11548.232     5509.052        5.904        2.223      270.197       47.001        0.030      332.796        1.689      865.077
11/21/2013  15:23:00      198.478      143.658       20.566      113.021       82.584       64.702    12773.720     6820.157     4186.313        4.211        1.189      245.012       42.616        0.030      332.812        1.715      865.089
11/21/2013  15:24:00      182.632      135.296        3.325       98.703       83.218       71.739     9742.320     6925.227     5146.530        3.674        1.091      227.287       46.146        0.041      332.872        1.816      865.108
11/21/2013  15:25:00      249.311      187.905       44.129      158.902      109.416      103.396    25249.944    11971.856    10690.669        7.365        2.396      312.193       88.329        0.080      332.837        1.757      865.098
11/21/2013  15:26:00      248.529      172.270       40.228      107.074       81.388       88.912    11464.754     6623.963     7905.287        5.952        1.300      302.396       36.263        0.014      332.793        1.683      865.105
11/21/2013  15:27:00      344.217      199.997       42.289      156.742      110.073      104.557    24568.193    12116.124    10932.162       10.394        2.381      398.101       68.332        0.029      332.800        1.695      865.086
11/21/2013  15:28:00      249.685      206.090       21.885      142.839      104.181       82.641    20402.950    10853.613     6829.584        7.168        1.904      323.752       42.033        0.017      332.788        1.676      865.092
11/21/2013  15:29:00       99.528      132.064       71.174      124.126       76.010       84.253    15407.268     5777.589     7098.489        3.034        1.414      165.369       66.072        0.160      332.892        1.848      865.093
11/21/2013  15:30:00      221.553      155.237       30.612      101.164       77.899       63.798    10234.134     6068.202     4070.229        4.724        1.019      270.526       39.297        0.021      332.875        1.819      865.102
11/21/2013  15:31:00      277.516      214.607       31.631      148.554      108.201       80.578    22068.322    11707.532     6492.863        8.216        2.013      350.815       50.873        0.021      332.846        1.770      865.116
11/21/2013  15:32:00      139.583      148.785       10.265      105.529       80.886       70.061    11136.291     6542.592     4908.519        3.215        1.129      204.010       51.645        0.064      332.846        1.772      865.116
11/21/2013  15:33:00      222.232      144.295       66.942      170.454       83.959       73.638    29054.620     7049.052     5422.548        5.810        2.076      264.968       75.592        0.081      332.889        1.841      865.108
11/21/2013  15:34:00      187.621      113.510       33.801      110.725       72.368       61.862    12260.065     5237.191     3826.880        3.527        1.066      219.286       37.862        0.030      332.848        1.777      865.116
11/21/2013  15:35:00      173.349      102.814       21.251      134.188       90.968       60.912    18006.394     8275.200     3710.233        3.553        1.500      201.545       32.652        0.026      332.865        1.803      865.141
11/21/2013  15:36:00      343.821      210.516       45.491      109.178       88.844       75.050    11919.832     7893.252     5632.570        9.502        1.272      403.150       36.572        0.008      332.779        1.660      865.153
11/21/2013  15:37:00      291.325      167.258       29.966      112.745       91.490       73.358    12711.332     8370.341     5381.375        7.010        1.323      335.925       49.312        0.022      332.809        1.710      865.190
11/21/2013  15:38:00      184.335      110.652       26.262       82.057       66.721       59.669     6733.369     4451.742     3560.357        3.083        0.737      214.996       36.127        0.028      332.859        1.793      865.200
11/21/2013  15:39:00      237.591      171.899       35.385       99.669       79.814       68.511     9933.842     6370.266     4693.747        5.412        1.050      293.256       45.520        0.024      332.787        1.673      865.221
11/21/2013  15:40:00       86.204      104.818        4.450       87.289       75.626       64.586     7619.319     5719.340     4171.349        1.797        0.876      135.712       45.131        0.111      332.821        1.734      865.219
11/21/2013  15:41:00       75.854       67.937        8.763       79.899       60.801       34.763     6383.928     3696.766     1208.451        1.087        0.564      101.830       33.042        0.105      332.820        1.732      865.221
11/21/2013  15:42:00      180.692      127.203       55.139      112.323       72.519       67.174    12616.419     5259.058     4512.409        3.712        1.119      220.976       59.773        0.073      332.863        1.800      865.209
11/21/2013  15:43:00      245.383      146.900       62.883      113.763       91.509       73.957    12942.059     8373.919     5469.668        5.626        1.339      285.993       29.053        0.010      332.789        1.677      865.199
11/21/2013  15:44:00      227.350      182.322       21.316      134.093       98.802       75.979    17980.859     9761.933     5772.863        5.944        1.676      291.426       41.111        0.020      332.775        1.654      865.222
11/21/2013  15:45:00      180.588      115.372       37.152       96.078       68.580       68.578     9231.076     4703.166     4703.003        3.297        0.932      214.296       38.960        0.033      332.832        1.749      865.200
11/21/2013  15:46:00      198.674      117.962       33.476       96.881       74.991       71.579     9385.891     5623.607     5123.550        3.732        1.007      231.055       39.710        0.030      332.870        1.811      865.211
11/21/2013  15:47:00      143.295      114.432       15.045       81.870       68.543       54.712     6702.694     4698.097     2993.451        2.412        0.720      183.380       24.437        0.018      332.841        1.764      865.209
11/21/2013  15:48:00      190.724      150.555        7.839      133.514       75.698       57.333    17826.116     5730.168     3287.123        4.297        1.342      242.987       37.511        0.024      332.814        1.721      865.213
11/21/2013  15:49:00      155.358      148.260        3.556      106.553       66.286       60.577    11353.462     4393.844     3669.629        3.277        0.971      214.749       47.521        0.049      332.807        1.708      865.238
11/21/2013  15:50:00      203.652      138.307       42.994      110.654       77.674       70.397    12244.199     6033.299     4955.680        4.284        1.162      246.177       42.616        0.030      332.809        1.710      865.261
11/21/2013  15:51:00      257.079      157.864       28.665      101.165       82.847       66.797    10234.427     6863.629     4461.783        5.669        1.078      301.679       30.178        0.010      332.832        1.750      865.284
11/21/2013  15:52:00      242.251      160.654       55.581      142.321      100.883       73.468    20255.404    10177.316     5397.598        6.170        1.792      290.681       33.833        0.014      332.808        1.708      865.273
11/21/2013  15:53:00      257.535      164.640       52.157       91.387       70.357       70.649     8351.609     4950.059     4991.315        5.722        0.915      305.664       58.537        0.037      332.792        1.681      865.292
11/21/2013  15:54:00      134.634       52.235       56.351      133.872       79.896       68.241    17921.596     6383.347     4656.898        2.649        1.448      144.412       40.769        0.080      332.798        1.692      865.279
11/21/2013  15:55:00      229.527      136.994       20.603       94.869       72.010       56.880     9000.176     5185.396     3235.328        4.464        0.871      267.301       31.153        0.014      332.819        1.727      865.287
11/21/2013  15:56:00      187.113      123.926       57.566       80.714       78.218       70.923     6514.784     6118.012     5030.101        3.567        0.883      224.430       48.693        0.047      332.821        1.730      865.283
11/21/2013  15:57:00      205.811      135.722       43.254      104.406       70.890       64.222    10900.632     5025.416     4124.451        4.135        1.003      246.533       32.657        0.018      332.826        1.739      865.296
11/21/2013  15:58:00      220.444      125.874       24.404       99.006       83.782       56.977     9802.252     7019.459     3246.390        4.255        1.003      253.850       41.961        0.027      332.837        1.755      865.308
11/21/2013  15:59:00      244.724      124.935       27.773       80.621       66.251       59.583     6499.820     4389.227     3550.161        4.535        0.722      274.770       35.067        0.016      332.854        1.785      865.302
11/21/2013  16:00:00      242.077      174.533       30.505       83.471       73.194       78.783     6967.468     5357.401     6206.819        5.426        0.927      298.434       31.663        0.011      332.816        1.722      865.286
11/21/2013  16:01:00      154.606      156.079      -13.519      110.348       70.852       75.900    12176.607     5020.041     5760.739        3.570        1.148      219.690       51.568        0.055      332.814        1.717      865.297
11/21/2013  16:02:00      223.098      155.381       17.340      115.171       76.131       57.582    13264.322     5795.908     3315.678        4.829        1.119      271.875       40.073        0.022      332.813        1.716      865.304
11/21/2013  16:03:00      147.414      103.080       14.191       95.830       66.517       56.255     9183.414     4424.526     3164.575        2.466        0.839      179.878       51.239        0.081      332.866        1.807      865.324
11/21/2013  16:04:00      134.507      104.608       21.565      100.056       76.271       65.142    10011.199     5817.203     4243.485        2.478        1.004      170.397       44.177        0.067      332.878        1.826      865.327
11/21/2013  16:05:00      162.993      111.014       13.855       75.084       54.347       55.701     5637.567     2953.574     3102.638        2.539        0.585      197.208       29.517        0.022      332.902        1.865      865.340
11/21/2013  16:06:00      163.057       99.732       32.277       64.640       57.202       61.847     4178.319     3272.043     3825.013        2.442        0.564      191.139       28.146        0.022      332.906        1.871      865.364
11/21/2013  16:07:00      131.224       71.299       12.817       54.059       43.718       46.232     2922.395     1911.289     2137.437        1.472        0.349      149.343       19.289        0.017      332.896        1.858      865.381
11/21/2013  16:08:00      141.025       88.898       21.068       94.291       67.719       45.470     8890.807     4585.798     2067.530        2.189        0.777      166.706       23.784        0.020      332.887        1.841      865.382
11/21/2013  16:09:00      198.536       97.227       30.828       97.904       79.965       57.216     9585.227     6394.385     3273.698        3.453        0.963      221.065       27.328        0.015      332.903        1.867      865.391
11/21/2013  16:10:00      205.151       99.773       42.604      129.909       95.983       66.691    16876.464     9212.699     4447.755        4.219        1.527      228.126       54.503        0.057      332.872        1.815      865.385
11/21/2013  16:11:00      155.568      109.262       33.566      155.307       81.431       72.042    24120.143     6631.024     5190.112        3.660        1.797      190.105       51.994        0.075      332.893        1.851      865.408
11/21/2013  16:12:00      250.838      185.900       33.611       96.074       84.773       70.107     9230.143     7186.492     4914.981        5.997        1.067      312.216       55.697        0.032      332.863        1.800      865.417
11/21/2013  16:13:00      110.918      138.816       -6.658       94.525       80.141       76.180     8934.991     6422.550     5803.365        2.638        1.058      177.687       61.606        0.120      332.886        1.839      865.430
11/21/2013  16:14:00      198.273      208.912       18.181      115.695       88.246       78.300    13385.332     7787.363     6130.832        5.529        1.365      288.022       62.306        0.047      332.874        1.818      865.447
11/21/2013  16:15:00       74.939      165.391       -4.000       90.072      105.677       65.878     8113.024    11167.543     4339.934        2.830        1.181      181.577       66.042        0.132      332.883        1.833      865.447
11/21/2013  16:16:00       97.935      117.270       25.197      115.754       72.716       58.673    13398.909     5287.551     3442.480        2.305        1.106      152.785       43.047        0.079      332.897        1.857      865.466
11/21/2013  16:17:00       65.892      124.956        6.162       57.186       77.014       47.330     3270.248     5931.194     2240.120        1.572        0.572      141.264       44.051        0.097      332.927        1.907      865.487
11/21/2013  16:18:00      106.140      117.360       -0.120       90.476       70.528       54.019     8185.824     4974.162     2918.046        2.056        0.804      158.238       44.999        0.081      332.900        1.862      865.490
11/21/2013  16:19:00       80.512      134.610       -9.767       63.004       89.805       46.603     3969.543     8064.877     2171.797        1.945        0.710      156.851       51.020        0.106      332.889        1.845      865.487
11/21/2013  16:20:00       71.013       39.613       19.391       61.490       49.260       38.984     3781.066     2426.589     1519.771        0.736        0.386       81.314       32.818        0.163      332.970        1.979      865.477
11/21/2013  16:21:00      172.353       97.787       17.405       81.114       57.811       60.240     6579.473     3342.144     3628.842        2.656        0.678      198.161       42.806        0.047      332.923        1.899      865.482
11/21/2013  16:22:00      165.689       97.356       39.355       88.658       65.623       66.450     7860.275     4306.384     4415.631        2.753        0.829      192.174       45.735        0.057      332.893        1.850      865.496
11/21/2013  16:23:00      118.839       58.466       33.560       82.637       75.487       55.979     6828.814     5698.224     3133.691        1.716        0.783      132.443       44.204        0.111      332.914        1.885      865.514
11/21/2013  16:24:00      157.308      102.340       33.357       84.222       66.638       55.933     7093.307     4440.591     3128.460        2.549        0.733      187.668       46.058        0.060      332.881        1.829      865.517
11/21/2013  16:25:00       66.664       63.880       42.220       75.436       53.864       54.855     5690.573     2901.279     3009.117        1.095        0.580       92.329       54.226        0.345      332.949        1.944      865.524
11/21/2013  16:26:00       85.740      102.262       27.588       74.433       54.382       44.695     5540.331     2957.391     1997.672        1.453        0.525      133.449       28.063        0.044      332.966        1.972      865.541
11/21/2013  16:27:00      168.279      137.673       22.074       87.039       78.404       73.401     7575.859     6147.235     5387.727        3.343        0.956      217.420       49.340        0.051      332.906        1.870      865.552
11/21/2013  16:28:00      214.767      144.393       33.272      105.861       70.365       78.390    11206.524     4951.179     6145.039        4.519        1.115      258.794       48.926        0.036      332.866        1.806      865.554
11/21/2013  16:29:00      210.811      136.982       26.319      113.060       97.250       74.297    12782.656     9457.599     5520.058        4.582        1.388      251.407       38.512        0.023      332.897        1.858      865.534
11/21/2013  16:30:00      195.711      112.135       10.453      100.462       73.016       60.996    10092.670     5331.302     3720.489        3.506        0.957      225.559       49.100        0.047      332.902        1.866      865.541
11/21/2013  16:31:00      133.810       82.049       28.989       83.671       44.331       45.834     7000.906     1965.237     2100.777        1.827        0.553      156.962       19.997        0.016      332.933        1.916      865.562
11/21/2013  16:32:00      124.277      105.312       15.412       72.992       58.085       52.769     5327.889     3373.854     2784.522        1.913        0.574      162.897       40.979        0.063      332.945        1.938      865.568
11/21/2013  16:33:00       83.228       41.964        8.293       62.302       34.806       34.791     3881.569     1211.470     1210.438        0.753        0.315       93.209       14.786        0.025      332.968        1.976      865.588
11/21/2013  16:34:00      120.110       83.519       20.045       81.715       54.735       52.301     6677.379     2995.883     2735.348        1.710        0.620      146.293       34.826        0.057      332.973        1.982      865.610
11/21/2013  16:35:00      145.527      100.331       37.749      104.943       55.299       54.601    11013.036     3057.990     2981.290        2.486        0.853      176.761       46.893        0.070      332.960        1.959      865.618
11/21/2013  16:36:00      132.262       98.619       13.902       93.730       51.884       42.364     8785.265     2691.899     1794.705        2.034        0.664      164.982       30.909        0.035      332.944        1.935      865.631
11/21/2013  16:37:00      110.850       60.258       13.047       58.128       43.109       35.222     3378.893     1858.402     1240.607        1.128        0.324      126.169       25.702        0.041      332.967        1.973      865.636
11/21/2013  16:38:00      110.220       65.791        8.371       51.546       56.308       37.434     2656.957     3170.546     1401.321        1.189        0.361      128.363       25.853        0.041      332.977        1.989      865.633
11/21/2013  16:39:00      110.317       33.198       24.664       61.169       67.106       45.162     3741.707     4503.248     2039.596        1.208        0.514      115.204       22.981        0.040      332.985        2.003      865.633
11/21/2013  16:40:00       51.784       37.738       34.436       42.119       35.060       31.662     1773.998     1229.190     1002.499        0.465        0.200       64.076       18.377        0.082      332.995        2.020      865.644
11/21/2013  16:41:00      148.785       84.482       14.665       58.729       43.435       31.678     3449.128     1886.565     1003.513        1.791        0.317      171.097       25.057        0.021      332.995        2.019      865.655
11/21/2013  16:42:00      220.457      124.494       44.209      118.593       78.329       69.406    14064.287     6135.482     4817.206        4.553        1.251      253.180       35.826        0.020      332.977        1.987      865.655
11/21/2013  16:43:00      105.038       74.770       27.981      101.580       63.179       59.693    10318.450     3991.589     3563.275        1.764        0.894      128.932       37.728        0.086      332.992        2.013      865.652
11/21/2013  16:44:00      246.299      166.895       25.054      123.657       92.901       58.772    15291.065     8630.684     3454.193        5.826        1.369      297.519       36.605        0.015      332.967        1.972      865.675
11/21/2013  16:45:00      154.546       86.117       24.302       97.670       65.172       50.593     9539.497     4247.432     2559.671        2.412        0.817      176.920       25.665        0.021      332.980        1.993      865.658
11/21/2013  16:46:00      185.133      162.939       16.580      102.985       76.944       66.610    10605.989     5920.444     4436.900        4.103        1.048      246.624       39.614        0.026      332.968        1.972      865.641
11/21/2013  16:47:00      124.450      216.386       -2.040      128.898      124.782       82.867    16614.631    15570.583     6866.902        5.068        1.953      249.621       70.668        0.080      332.970        1.976      865.643
11/21/2013  16:48:00      249.568      211.630       17.921      162.303      130.097      103.572    26342.307    16925.313    10727.238        8.068        2.700      327.218       73.379        0.050      332.964        1.966      865.640
11/21/2013  16:49:00      194.727      126.532        9.236       93.235       76.236       52.818     8692.698     5811.947     2789.723        3.565        0.865      232.227       34.503        0.022      332.993        2.015      865.659
11/21/2013  16:50:00      187.090      119.431       21.600      137.196       83.066       70.048    18822.683     6899.914     4906.782        4.017        1.531      221.960       45.205        0.041      332.988        2.007      865.679
11/21/2013  16:51:00      240.100      156.758       13.940       97.220       68.222       54.895     9451.804     4654.231     3013.470        4.976        0.856      286.742       42.061        0.022      332.981        1.994      865.677
11/21/2013  16:52:00      104.900       59.265       15.271       64.435       42.830       45.057     4151.818     1834.366     2030.163        1.138        0.401      120.484       18.751        0.024      333.043        2.099      865.682
11/21/2013  16:53:00      137.674       60.682       37.429       87.524       73.178       44.454     7660.448     5355.012     1976.194        1.951        0.750      150.454       33.720        0.050      333.034        2.084      865.688
11/21/2013  16:54:00      214.774      129.177       37.425      114.418       81.351       74.335    13091.496     6618.052     5525.690        4.472        1.262      250.629       56.154        0.050      332.989        2.005      865.690
11/21/2013  16:55:00      175.998      109.943       43.939      116.781       76.694       83.426    13637.807     5881.939     6959.863        3.573        1.324      207.516       71.248        0.118      333.003        2.032      865.698
11/21/2013  16:56:00      140.156      117.692       17.626       91.374       77.010       70.275     8349.229     5930.535     4938.525        2.651        0.961      183.017       44.298        0.059      332.990        2.011      865.685
11/21/2013  16:57:00      152.150       92.161       24.568      101.470       75.893       64.472    10296.128     5759.790     4156.610        2.623        1.011      177.886       44.712        0.063      333.004        2.032      865.670
11/21/2013  16:58:00      226.331      154.585       33.643       88.822       63.863       60.526     7889.315     4078.510     3663.399        4.594        0.782      274.085       30.118        0.012      332.974        1.982      865.664
11/21/2013  16:59:00      122.514       94.019       27.295       74.672       50.974       45.408     5575.915     2598.383     2061.932        1.741        0.512      154.432       30.248        0.038      333.000        2.027      865.675
11/21/2013  17:00:00      123.357       92.435       31.120       60.074       51.028       45.368     3608.919     2603.905     2058.294        1.650        0.414      154.146       22.910        0.022      333.050        2.110      865.691
11/21/2013  17:01:00      197.007      124.631       29.922      106.504       89.344       62.619    11343.051     7982.312     3921.178        3.924        1.162      233.119       35.137        0.023      332.993        2.015      865.707
11/21/2013  17:02:00      240.841      185.652       51.926      129.543       99.059       74.479    16781.271     9812.661     5547.131        6.365        1.607      304.091       54.553        0.032      332.978        1.989      865.716
11/21/2013  17:03:00      214.715      142.617       30.806      104.003       91.010       72.044    10816.715     8282.734     5190.313        4.584        1.214      257.764       24.800        0.009      332.982        1.996      865.730
11/21/2013  17:04:00      137.692      111.135        9.132       86.945       52.765       54.293     7559.356     2784.188     2947.727        2.234        0.665      176.946       22.820        0.017      332.999        2.025      865.739
11/21/2013  17:05:00      162.684       92.445       43.579       75.340       68.390       55.694     5676.172     4677.213     3101.794        2.518        0.673      187.116       34.723        0.034      333.045        2.102      865.743
11/21/2013  17:06:00      153.521      126.721       13.319      123.555       67.470       59.826    15265.786     4552.137     3579.120        3.160        1.170      199.066       25.520        0.016      333.013        2.048      865.770
11/21/2013  17:07:00      197.783      137.055       30.060       86.286       67.759       64.216     7445.297     4591.345     4123.739        3.748        0.808      240.629       31.573        0.017      332.989        2.007      865.789
11/21/2013  17:08:00      194.172      122.193       33.729       77.529       60.756       52.745     6010.680     3691.320     2782.086        3.313        0.624      229.420       32.157        0.020      333.045        2.100      865.800
11/21/2013  17:09:00      182.917      115.908       16.047       53.151       49.000       42.904     2825.000     2400.999     1840.792        2.711        0.353      216.549       17.437        0.006      333.057        2.120      865.800
11/21/2013  17:10:00      130.054       67.603       25.322       49.953       54.372       50.964     2495.287     2956.355     2597.329        1.509        0.402      146.575       30.237        0.043      333.010        2.045      865.788
11/21/2013  17:11:00      131.674       64.327        7.177       61.537       51.671       40.068     3786.774     2669.871     1605.479        1.479        0.403      146.547       33.828        0.053      333.003        2.032      865.793
11/21/2013  17:12:00       99.083       50.372       54.512       59.401       49.405       39.601     3528.469     2440.844     1568.203        1.143        0.377      111.152       34.813        0.098      333.020        2.061      865.807
11/21/2013  17:13:00      108.419       77.156      101.033       86.217       73.545       64.347     7433.343     5408.821     4140.518        2.245        0.849      133.071       49.526        0.139      333.021        2.062      865.811
11/21/2013  17:14:00      144.850      116.096      110.674      120.437       87.007       75.678    14505.035     7570.174     5727.159        3.725        1.390      185.633       74.761        0.162      332.991        2.010      865.817
11/21/2013  17:15:00      203.671       79.305       55.724      111.276       81.785       75.122    12382.374     6688.800     5643.300        3.779        1.236      218.566       65.887        0.091      332.978        1.988      865.829
11/21/2013  17:16:00      145.534       83.859       43.945       76.656       66.037       57.857     5876.132     4360.870     3347.440        2.186        0.679      167.965       53.561        0.102      332.970        1.977      865.831
11/21/2013  17:17:00      109.140       93.903       72.012      135.416      100.932      104.838    18337.392    10187.317    10991.025        3.271        1.976      143.977       81.118        0.317      332.985        2.001      865.824
11/21/2013  17:18:00      165.353       88.077       52.291      110.842       84.959       72.793    12286.036     7218.100     5298.880        3.131        1.240      187.348       65.928        0.124      332.971        1.977      865.832
11/21/2013  17:19:00      133.658       69.957       26.974       61.326       50.768       46.622     3760.829     2577.351     2173.603        1.600        0.426      150.859       10.982        0.005      332.982        1.997      865.834
11/21/2013  17:20:00      184.853       74.528       61.567       99.699       79.818       59.852     9939.927     6370.866     3582.250        3.170        0.995      199.311       52.303        0.069      332.962        1.963      865.827
11/21/2013  17:21:00      179.497       99.373       66.561      136.851       70.154       71.875    18728.107     4921.638     5166.082        3.766        1.441      205.168       52.268        0.065      332.956        1.954      865.822
11/21/2013  17:22:00      157.889       93.903       22.276       75.227       68.286       43.777     5659.030     4662.927     1916.409        2.324        0.612      183.702       33.814        0.034      332.972        1.981      865.845
11/21/2013  17:23:00      168.632      103.098       17.205       52.550       44.841       48.799     2761.546     2010.731     2381.309        2.326        0.358      197.651       33.949        0.030      332.938        1.925      865.849
11/21/2013  17:24:00       79.263       63.564        6.476       61.413       68.926       47.571     3771.528     4750.763     2263.014        1.057        0.539      101.603       36.121        0.126      332.976        1.989      865.849
11/21/2013  17:25:00      146.078       90.213        7.826       50.449       57.562       47.775     2545.140     3313.391     2282.443        1.884        0.407      171.690       12.587        0.005      332.991        2.012      865.865
11/21/2013  17:26:00      165.810       91.885       31.037       67.712       52.633       43.390     4584.887     2770.263     1882.695        2.307        0.462      189.568       30.286        0.026      332.957        1.955      865.882
11/21/2013  17:27:00      117.019       55.283       27.025       52.199       37.161       36.568     2724.690     1380.953     1337.220        1.146        0.272      129.421       16.875        0.017      333.006        2.037      865.891
11/21/2013  17:28:00      176.625       85.818       11.068       67.227       50.182       44.501     4519.463     2518.231     1980.337        2.385        0.451      196.370       27.998        0.020      332.945        1.935      865.907
11/21/2013  17:29:00       99.744       41.885       49.096       83.977       72.094       53.860     7052.072     5197.503     2900.854        1.463        0.758      108.181       36.605        0.114      332.986        2.004      865.914
11/21/2013  17:30:00      109.860       48.740       44.580      103.469       78.653       64.837    10705.875     6186.348     4203.894        1.876        1.055      120.186       56.358        0.220      332.951        1.945      865.927
11/21/2013  17:31:00      102.498       29.218       13.782       76.042       46.997       42.981     5782.344     2208.722     1847.374        1.069        0.492      106.581       33.254        0.097      332.946        1.937      865.946
11/21/2013  17:32:00       82.877       56.543       62.797       70.312       52.642       55.382     4943.727     2771.230     3067.189        1.239        0.539      100.328       36.065        0.129      332.970        1.978      865.961
11/21/2013  17:33:00      126.234       84.996       41.346       95.470       64.467       69.593     9114.493     4155.950     4843.136        2.149        0.906      152.182       57.022        0.140      332.946        1.936      865.981
11/21/2013  17:34:00      108.019       48.199       46.237       54.589       55.545       51.598     2979.962     3085.222     2662.310        1.243        0.436      118.285       28.571        0.058      332.965        1.970      865.991
11/21/2013  17:35:00       91.783       67.322       49.919       73.591       42.622       46.212     5415.572     1816.650     2135.564        1.241        0.468      113.826       42.642        0.140      332.966        1.971      866.012
11/21/2013  17:36:00      136.802       83.669       22.948       43.495       41.099       42.751     1891.783     1689.123     1827.620        1.582        0.270      160.360       31.903        0.040      332.963        1.967      866.033
11/21/2013  17:37:00      113.303       62.569       42.642       50.621       42.907       46.357     2562.491     1840.973     2149.015        1.256        0.328      129.431       23.521        0.033      332.978        1.991      866.031
11/21/2013  17:38:00      124.165       49.804       57.344       75.563       68.571       43.205     5709.839     4701.962     1866.653        1.673        0.614      133.781       29.231        0.048      332.992        2.014      866.034
11/21/2013  17:39:00       97.405       54.468       43.179       73.357       55.517       54.157     5381.263     3082.107     2932.946        1.286        0.570      111.600       46.196        0.171      332.980        1.996      866.064
11/21/2013  17:40:00       92.036       57.199       32.816       49.966       45.202       32.532     2496.583     2043.266     1058.327        0.921        0.280      108.363       16.366        0.023      332.948        1.943      866.089
11/21/2013  17:41:00       78.951       31.055       25.236       67.702       47.011       41.131     4583.592     2209.997     1691.729        0.816        0.424       84.839       29.937        0.125      332.947        1.941      866.084
11/21/2013  17:42:00      103.133       88.821       34.763       45.659       32.012       37.237     2084.784     1024.757     1386.618        1.211        0.225      136.109       26.205        0.037      332.925        1.906      866.101
11/21/2013  17:43:00      124.452       87.479       14.541       59.598       48.128       39.468     3551.908     2316.339     1557.730        1.539        0.371      152.121       13.490        0.008      332.925        1.905      866.103
11/21/2013  17:44:00      148.786       84.942       17.643       56.658       48.389       32.477     3210.081     2341.529     1054.771        1.813        0.330      171.325       19.561        0.013      332.878        1.828      866.106
11/21/2013  17:45:00      122.836       83.059       23.750       40.206       36.593       39.598     1616.552     1339.014     1567.967        1.354        0.226      148.282       26.227        0.031      332.881        1.834      866.115
11/21/2013  17:46:00      105.102       46.567       29.439       51.912       35.569       30.838     2694.844     1265.161      951.004        0.950        0.246      114.956       15.028        0.017      332.902        1.868      866.111
11/21/2013  17:47:00      110.238       43.194       11.073       38.193       37.420       26.978     1458.680     1400.293      727.794        0.886        0.179      118.398        8.352        0.005      332.926        1.908      866.107
11/21/2013  17:48:00      144.662      100.124       29.597       46.505       40.200       36.409     2162.671     1616.030     1325.582        1.847        0.255      175.931       29.793        0.029      332.884        1.838      866.108
11/21/2013  17:49:00       74.084       68.562       38.180       55.058       43.726       39.597     3031.395     1911.942     1567.962        0.908        0.326      100.941       34.226        0.115      332.924        1.905      866.101
11/21/2013  17:50:00      111.335       78.532       23.281       46.781       44.457       32.427     2188.508     1976.468     1051.492        1.216        0.261      136.245       12.244        0.008      332.932        1.917      866.107
11/21/2013  17:51:00      186.205      107.334       37.716       72.312       76.313       54.984     5229.025     5823.606     3023.247        3.084        0.704      214.926       35.696        0.028      332.942        1.930      866.118
11/21/2013  17:52:00      131.551       76.090       43.286       60.515       71.917       47.857     3662.059     5172.043     2290.336        1.804        0.556      151.971       23.596        0.024      332.946        1.939      866.130
11/21/2013  17:53:00      133.138       57.407       22.700       48.173       60.278       34.623     2320.629     3633.475     1198.734        1.434        0.358      144.987       26.528        0.033      332.949        1.945      866.157
11/21/2013  17:54:00       62.864       42.173       42.602       56.010       35.339       38.940     3137.163     1248.828     1516.353        0.672        0.295       75.699       26.502        0.123      332.982        1.998      866.170
11/21/2013  17:55:00       87.959       45.907       50.745       79.433       48.855       61.398     6309.648     2386.814     3769.729        1.244        0.623       99.218       53.750        0.293      332.997        2.024      866.194
11/21/2013  17:56:00      146.909       73.597       11.953       57.332       40.872       40.138     3287.002     1670.489     1611.073        1.685        0.328      164.313       17.245        0.011      332.950        1.944      866.207
11/21/2013  17:57:00       81.214       72.186        4.708       76.536       85.860       49.449     5857.684     7371.912     2445.155        1.375        0.784      108.657       25.299        0.054      333.030        2.077      866.186
11/21/2013  17:58:00       75.673      117.578       -7.951       74.777       84.803       53.509     5591.528     7191.549     2863.181        1.763        0.782      139.825       45.875        0.108      333.006        2.037      866.185
11/21/2013  17:59:00      123.388       84.581        7.045       53.539       58.800       37.290     2866.422     3457.394     1390.578        1.507        0.386      149.595       25.650        0.029      333.010        2.045      866.193
11/21/2013  18:00:00      115.170       78.062       23.817       48.569       43.897       32.776     2358.958     1926.947     1074.283        1.264        0.268      139.133       26.689        0.037      333.003        2.033      866.212
11/21/2013  18:01:00      136.141      107.830       -4.009       95.057       77.483       53.306     9035.861     6003.610     2841.560        2.403        0.894      173.671       46.652        0.072      333.025        2.068      866.238
11/21/2013  18:02:00      161.509      163.049       11.538      106.478      135.065       75.729    11337.609    18242.443     5734.815        4.405        1.766      229.500       62.380        0.074      333.091        2.178      866.216
11/21/2013  18:03:00      159.291      128.224        8.167      110.589       85.032       58.528    12230.031     7230.482     3425.566        3.238        1.144      204.487       41.972        0.042      333.113        2.215      866.228
11/21/2013  18:04:00      113.954       86.092       18.756       69.304       59.210       52.838     4803.099     3505.881     2791.890        1.592        0.555      142.819       30.881        0.047      333.126        2.238      866.242
11/21/2013  18:05:00      151.914      112.280       22.831       71.511       60.802       46.223     5113.752     3696.903     2136.546        2.357        0.547      188.904       27.386        0.021      333.166        2.303      866.249
11/21/2013  18:06:00      182.412      138.869       20.491       80.376       64.175       59.900     6460.267     4118.425     3588.042        3.357        0.708      229.257       37.842        0.027      333.141        2.258      866.268
11/21/2013  18:07:00      157.098      151.570       29.060      114.629       84.698       76.040    13139.713     7173.785     5782.045        3.729        1.305      218.296       46.756        0.046      333.135        2.250      866.269
11/21/2013  18:08:00      173.871      156.099        9.921      124.950       77.979       61.628    15612.578     6080.788     3797.994        4.009        1.275      233.662       41.340        0.031      333.124        2.233      866.267
11/21/2013  18:09:00      187.252      132.101       37.569       89.220       78.526       74.753     7960.257     6166.329     5588.038        3.682        0.986      229.159       51.548        0.051      333.147        2.271      866.275
11/21/2013  18:10:00      118.398      149.844       -0.223       90.495       77.201       53.596     8189.355     5959.920     2872.534        2.674        0.851      190.975       51.434        0.073      333.128        2.239      866.280
11/21/2013  18:11:00      210.612      194.504        9.691      121.118      117.326       99.602    14669.608    13765.325     9920.476        6.031        1.918      286.687       86.725        0.092      333.120        2.224      866.282
11/21/2013  18:12:00      217.585      193.944       18.752      134.577      127.974      106.459    18111.017    16377.235    11333.451        6.556        2.291      291.475       95.839        0.108      333.125        2.233      866.284
11/21/2013  18:13:00      150.794      145.580       36.178      177.625      114.609       81.543    31550.527    13135.218     6649.249        4.828        2.567      209.600       52.666        0.063      333.127        2.236      866.282
11/21/2013  18:14:00      163.261      172.756       -3.047      121.586      105.475       81.427    14783.267    11125.078     6630.342        4.452        1.627      237.695       56.997        0.058      333.128        2.238      866.314
11/21/2013  18:15:00       89.002       85.949        3.411       87.646       55.345       47.960     7681.740     3063.036     2300.137        1.418        0.652      123.728       35.301        0.081      333.119        2.226      866.331
11/21/2013  18:16:00      161.486      135.376       11.033      144.549      100.126       70.651    20894.297    10025.118     4991.595        4.021        1.796      210.724       46.851        0.049      333.118        2.224      866.341
11/21/2013  18:17:00      172.832      160.873       13.812       90.831      102.800       76.548     8250.190    10567.889     5859.650        4.030        1.234      236.116       63.750        0.073      333.114        2.216      866.340
11/21/2013  18:18:00      211.459      166.036       20.791      130.508       86.896       72.494    17032.237     7550.928     5255.439        5.127        1.492      268.855       59.809        0.049      333.128        2.239      866.364
11/21/2013  18:19:00      214.114      172.845       16.349      110.721       86.326       92.344    12259.078     7452.135     8527.334        5.211        1.412      275.172       61.409        0.050      333.112        2.211      866.366
11/21/2013  18:20:00      101.884      157.721       -7.010      101.659      136.690       61.027    10334.479    18684.237     3724.239        3.402        1.637      187.766       64.344        0.117      333.123        2.230      866.377
11/21/2013  18:21:00      239.790      173.687       31.868      101.716       75.571       62.163    10346.144     5710.987     3864.260        5.430        0.996      296.085       43.913        0.022      333.116        2.218      866.390
11/21/2013  18:22:00      256.673      188.073       32.239      138.358       87.699       82.534    19142.812     7691.139     6811.856        6.796        1.682      318.202       56.196        0.031      333.113        2.215      866.397
11/21/2013  18:23:00      183.134      135.002       13.135       92.750       76.666       62.322     8602.590     5877.671     3884.065        3.515        0.918      227.516       29.092        0.016      333.118        2.222      866.417
11/21/2013  18:24:00       81.108      132.450       -0.591       98.362      102.659       72.964     9675.000    10538.770     5323.813        2.482        1.277      155.311       63.420        0.167      333.118        2.224      866.414
11/21/2013  18:25:00      175.707      126.795       19.916      105.533       84.697       61.528    11137.253     7173.637     3785.642        3.472        1.105      216.679       31.186        0.021      333.121        2.226      866.406
11/21/2013  18:26:00      214.734      150.769        6.341      142.147      109.972       75.762    20205.770    12093.887     5739.897        5.345        1.902      262.377       52.644        0.040      333.124        2.232      866.390
11/21/2013  18:27:00      228.533      171.384       31.514      127.568       86.227       75.978    16273.576     7435.112     5772.717        5.603        1.474      285.657       42.809        0.022      333.129        2.241      866.393
11/21/2013  18:28:00      151.295      156.085       37.874      111.733      101.627       72.779    12484.325    10327.983     5296.753        3.839        1.405      217.377       39.803        0.034      333.135        2.251      866.409
11/21/2013  18:29:00      194.338      139.911       17.038      124.023       90.284       56.551    15381.827     8151.186     3198.027        4.218        1.337      239.462       28.417        0.014      333.140        2.258      866.412
11/21/2013  18:30:00      139.337      108.895       11.417      105.935       72.695       53.554    11222.155     5284.589     2868.062        2.539        0.969      176.842       44.677        0.064      333.135        2.252      866.410
11/21/2013  18:31:00      187.451      156.934       22.628      153.787      102.909       70.124    23650.295    10590.313     4917.392        4.971        1.958      244.471       44.607        0.033      333.139        2.258      866.394
11/21/2013  18:32:00      170.171      198.512       -5.081      129.148      170.173       89.743    16679.295    28959.008     8053.889        6.103        2.685      261.468       78.170        0.089      333.126        2.237      866.394
11/21/2013  18:33:00      110.739      144.991        1.862       99.944       99.011       69.374     9988.864     9803.251     4812.802        2.894        1.230      182.444       49.010        0.072      333.128        2.238      866.406
11/21/2013  18:34:00      123.581      150.013        9.669       90.166       79.379       63.289     8129.831     6301.005     4005.536        2.815        0.922      194.361       52.376        0.073      333.130        2.241      866.396
11/21/2013  18:35:00      232.193      192.429       22.702      177.960      105.163       73.370    31669.819    11059.311     5383.177        6.978        2.406      301.567       35.376        0.014      333.124        2.233      866.391
11/21/2013  18:36:00      161.276      213.783        3.483      156.793      122.605       92.737    24583.964    15032.009     8600.201        5.996        2.411      267.793       78.661        0.086      333.134        2.247      866.384
11/21/2013  18:37:00      265.690      218.995       15.585      150.157      103.089       82.325    22547.013    10627.422     6777.399        7.936        1.998      344.311       55.086        0.026      333.141        2.260      866.417
11/21/2013  18:38:00      196.096      191.790       21.714      159.608      124.669       89.655    25474.554    15542.345     8038.027        6.237        2.453      274.294       73.783        0.072      333.137        2.253      866.435
11/21/2013  18:39:00      197.215      168.103       19.346      144.686      107.335       99.667    20934.044    11520.800     9933.542        5.495        2.119      259.138       60.168        0.054      333.142        2.261      866.447
11/21/2013  18:40:00      154.957      136.816       11.521      109.586       64.672       66.984    12009.045     4182.468     4486.898        3.177        1.034      206.713       30.749        0.022      333.127        2.238      866.461
11/21/2013  18:41:00      221.426      148.764       25.300       90.767       78.799       72.401     8238.608     6209.357     5241.866        4.574        0.984      266.759       38.283        0.021      333.127        2.238      866.461
11/21/2013  18:42:00      167.930      142.806       34.081      130.599       93.287       66.351    17056.110     8702.449     4402.475        3.995        1.508      220.441       29.366        0.018      333.132        2.246      866.464
11/21/2013  18:43:00      228.010      168.921       21.445      112.469       91.372       64.764    12649.322     8348.929     4194.386        5.308        1.260      283.765       49.477        0.030      333.131        2.244      866.454
11/21/2013  18:44:00      187.891      150.466       23.248      133.021       87.744       71.293    17694.545     7699.032     5082.706        4.447        1.524      240.714       48.566        0.041      333.153        2.278      866.443
11/21/2013  18:45:00      175.176      128.510       15.819       86.562       80.918       69.262     7493.036     6547.654     4797.258        3.314        0.942      217.259       50.492        0.054      333.130        2.243      866.452
11/21/2013  18:46:00       96.909      178.633       -7.919       88.667      121.823       73.880     7861.918    14840.866     5458.311        3.476        1.408      203.227       65.505        0.104      333.138        2.255      866.465
11/21/2013  18:47:00      225.584      176.224        8.288       95.464       97.206       71.451     9113.330     9448.981     5105.179        5.283        1.183      286.257       59.191        0.043      333.142        2.262      866.451
11/21/2013  18:48:00      196.737      150.556        5.739      113.821       79.527       72.274    12955.155     6324.565     5223.481        4.295        1.225      247.735       42.148        0.029      333.145        2.265      866.439
11/21/2013  18:49:00      212.473      144.912       30.014      150.934       92.711       57.902    22781.145     8595.321     3352.673        5.088        1.736      257.185       44.487        0.030      333.155        2.282      866.453
11/21/2013  18:50:00      160.996      179.556       10.038      114.644      112.583       76.754    13143.224    12674.833     5891.138        4.498        1.585      241.164       70.077        0.084      333.147        2.269      866.450
11/21/2013  18:51:00      190.689      177.006        9.787      138.432       96.350       92.517    19163.453     9283.323     8559.306        5.239        1.850      260.180       61.140        0.055      333.156        2.282      866.447
11/21/2013  18:52:00      113.749      165.804       10.992       95.470      126.815       79.212     9114.469    16082.040     6274.469        3.600        1.574      201.071       73.029        0.132      333.148        2.272      866.456
11/21/2013  18:53:00      138.476      183.567      -14.206      101.243       98.566       62.431    10250.098     9715.282     3897.603        3.846        1.193      229.940       57.729        0.063      333.135        2.250      866.457
11/21/2013  18:54:00      288.551      202.554       32.788      112.002       94.062       77.751    12544.416     8847.612     6045.279        7.640        1.372      352.548       39.832        0.013      333.147        2.269      866.459
11/21/2013  18:55:00      196.251      163.734       26.957      124.408       96.506       77.055    15477.395     9313.473     5937.481        4.838        1.536      255.584       53.208        0.043      333.141        2.259      866.457
11/21/2013  18:56:00      156.653      164.975      -19.189      117.230       95.313       69.737    13742.971     9084.646     4863.223        3.990        1.385      227.502       54.863        0.058      333.122        2.229      866.465
11/21/2013  18:57:00      158.772      119.769       15.587       91.371       69.781       49.345     8348.619     4869.319     2434.974        2.772        0.783      198.880       39.836        0.040      333.112        2.212      866.477
11/21/2013  18:58:00      203.519      147.990       22.297      115.796       71.464       65.811    13408.730     5107.110     4331.140        4.333        1.142      251.636       26.217        0.011      333.132        2.245      866.493
11/21/2013  18:59:00      221.437      159.245       19.958      126.180      108.810       81.906    15921.303    11839.672     6708.511        5.462        1.723      272.752       53.036        0.038      333.152        2.277      866.496
11/21/2013  19:00:00      165.114      135.979       21.581       97.148       73.777       62.711     9437.640     5443.037     3932.614        3.251        0.941      213.899       40.298        0.035      333.137        2.253      866.502
11/21/2013  19:01:00      123.200      208.653       -5.735      124.255      135.023       67.503    15439.417    18231.187     4556.627        4.848        1.911      242.311       68.455        0.080      333.153        2.278      866.516
11/21/2013  19:02:00      164.611      186.772        7.982      127.762      138.145       93.060    16323.203    19084.177     8660.170        5.305        2.203      248.959       79.314        0.101      333.179        2.321      866.506
11/21/2013  19:03:00      207.851      216.442       22.930      140.350      116.182      100.949    19698.066    13498.144    10190.636        6.697        2.169      300.082       78.819        0.069      333.183        2.328      866.495
11/21/2013  19:04:00      136.267      166.059       12.723      137.962      103.197       80.131    19033.546    10649.594     6420.932        4.120        1.805      214.812       62.551        0.085      333.181        2.325      866.506
11/21/2013  19:05:00      111.370      149.952        5.770       88.805      104.724       70.154     7886.387    10967.083     4921.563        2.934        1.189      186.786       59.940        0.103      333.168        2.304      866.527
11/21/2013  19:06:00      180.598      171.675        6.732      119.112      104.245      100.865    14187.661    10867.062    10173.669        4.867        1.761      249.175       82.574        0.110      333.192        2.342      866.545
11/21/2013  19:07:00      185.602      128.567       20.990      105.804       84.527       63.303    11194.381     7144.744     4007.296        3.688        1.117      225.783       51.272        0.052      333.191        2.340      866.563
11/21/2013  19:08:00      179.766      127.385       19.982      110.318       80.157       63.266    12170.009     6425.107     4002.574        3.577        1.130      220.324       36.336        0.027      333.186        2.333      866.580
11/21/2013  19:09:00      380.831      249.019       50.953      124.096      114.255       96.387    15399.868    13054.185     9290.541       12.368        1.887      455.019       57.531        0.016      333.229        2.404      866.569
11/21/2013  19:10:00      253.559      196.751       29.864      172.234      119.770       88.422    29664.523    14344.853     7818.496        7.785        2.591      320.941       38.457        0.014      333.236        2.414      866.534
11/21/2013  19:11:00      182.421      172.799       11.401      127.219       93.371       72.287    16184.730     8718.090     5225.380        4.669        1.506      251.271       49.576        0.039      333.200        2.356      866.568
11/21/2013  19:12:00      227.620      159.659       38.936      146.193      100.636       74.171    21372.389    10127.686     5501.396        5.790        1.850      278.033       46.360        0.028      333.194        2.346      866.582
11/21/2013  19:13:00      192.760      128.506       36.983      128.056       75.845       59.213    16398.447     5752.485     3506.236        4.034        1.283      231.668       39.654        0.029      333.197        2.349      866.582
11/21/2013  19:14:00      202.753      129.821       28.283      116.487       83.159       62.488    13569.155     6915.376     3904.777        4.157        1.219      240.754       22.611        0.009      333.184        2.330      866.587
11/21/2013  19:15:00      149.955      101.592       18.565       88.890       66.242       58.177     7901.472     4387.995     3384.574        2.441        0.784      181.128       37.356        0.043      333.183        2.329      866.568
11/21/2013  19:16:00      194.804      166.647       12.537      136.077      104.841       87.473    18516.928    10991.729     7651.579        5.151        1.858      256.359       49.383        0.037      333.179        2.321      866.571
11/21/2013  19:17:00      205.820      148.032       18.506       95.019       74.144       64.592     9028.566     5497.265     4172.187        4.165        0.935      253.526       40.441        0.025      333.173        2.310      866.573
11/21/2013  19:18:00      138.858      161.938       -6.251      110.329       95.779       76.568    12172.493     9173.614     5862.629        3.637        1.360      213.320       67.688        0.101      333.156        2.283      866.585
11/21/2013  19:19:00      185.802      156.582        9.595       92.563       78.760       58.506     8567.829     6203.115     3422.921        3.866        0.910      242.982       41.647        0.029      333.180        2.321      866.588
11/21/2013  19:20:00      235.415      162.720       26.872       98.399       78.970       62.560     9682.375     6236.209     3913.793        5.122        0.992      286.178       43.380        0.023      333.173        2.310      866.591
11/21/2013  19:21:00      179.999      121.583       20.818       97.181       87.248       64.953     9444.108     7612.129     4218.871        3.444        1.064      217.214       47.785        0.048      333.184        2.329      866.600
11/21/2013  19:22:00      177.015      161.665       -5.463       99.504      129.451       71.638     9901.053    16757.689     5131.981        4.464        1.590      239.728       71.704        0.089      333.205        2.365      866.613
11/21/2013  19:23:00      145.971      188.101        0.446      106.231      108.859       69.777    11284.984    11850.222     4868.882        4.234        1.400      238.096       60.622        0.065      333.217        2.384      866.618
11/21/2013  19:24:00      323.686      240.112       52.240      203.891      119.961      104.852    41571.676    14390.552    10993.878       11.604        3.348      403.022       68.742        0.029      333.255        2.446      866.617
11/21/2013  19:25:00      286.408      230.484       49.142      170.624      118.534      125.441    29112.555    14050.369    15735.445        9.822        2.945      367.631       84.445        0.053      333.288        2.503      866.602
11/21/2013  19:26:00      277.514      216.967       26.647      164.242      108.573       93.698    26975.402    11788.086     8779.224        8.616        2.377      352.262       58.206        0.027      333.290        2.506      866.610
11/21/2013  19:27:00      171.888      152.056       21.567      126.255       90.145       72.892    15940.396     8126.092     5313.189        4.125        1.469      229.492       44.246        0.037      333.273        2.476      866.623
11/21/2013  19:28:00      157.894      144.207       18.189      114.395       87.445       66.159    13086.290     7646.633     4376.988        3.558        1.255      213.837       39.836        0.035      333.264        2.462      866.655
11/21/2013  19:29:00      221.661      209.102       10.134      146.544      104.769       83.693    21475.113    10976.589     7004.474        6.620        1.973      304.725       65.695        0.046      333.258        2.451      866.662
11/21/2013  19:30:00      226.498      191.813        6.829      161.251      111.607       97.638    26002.029    12456.030     9533.248        6.806        2.400      296.805       64.596        0.047      333.278        2.486      866.680
11/21/2013  19:31:00      231.929      252.621       14.836      181.412      109.989      100.367    32910.360    12097.661    10073.499        8.644        2.754      342.941       73.411        0.046      333.302        2.525      866.675
11/21/2013  19:32:00      217.446      155.639       40.634      140.070       91.506       92.848    19619.623     8373.358     8620.759        5.488        1.831      267.406       57.435        0.046      333.294        2.512      866.701
11/21/2013  19:33:00      162.253      199.484       -3.951      104.327      131.968       80.918    10884.024    17415.539     6547.684        5.048        1.742      257.138       70.564        0.075      333.298        2.518      866.719
11/21/2013  19:34:00      187.505      168.636       23.579      117.079       98.245       79.830    13707.469     9652.171     6372.804        4.694        1.487      252.183       61.102        0.059      333.291        2.505      866.728
11/21/2013  19:35:00      165.106      174.208        6.845      122.108      110.749       80.245    14910.342    12265.449     6439.335        4.563        1.681      240.017       65.017        0.073      333.283        2.493      866.724
11/21/2013  19:36:00      220.863      205.445        9.823      153.387      120.948      102.242    23527.445    14628.384    10453.436        6.984        2.430      301.642       71.817        0.057      333.278        2.485      866.723
11/21/2013  19:37:00      179.482      156.729        5.465      113.598       85.868       78.321    12904.579     7373.361     6134.249        4.160        1.321      238.280       57.608        0.058      333.267        2.466      866.727
11/21/2013  19:38:00      282.815      209.354       16.788      155.733       97.933       94.867    24252.869     9590.862     8999.685        8.346        2.142      351.871       59.587        0.029      333.261        2.457      866.724
11/21/2013  19:39:00      164.036      127.342       15.047       83.227       81.197       63.327     6926.793     6592.973     4010.344        3.044        0.877      207.663       42.079        0.041      333.254        2.446      866.709
11/21/2013  19:40:00      162.363      173.086        8.416       89.026      100.978       89.613     7925.590    10196.541     8030.486        4.127        1.308      237.320       70.437        0.088      333.244        2.430      866.706
11/21/2013  19:41:00      218.351      158.134       22.320      113.922      110.176       92.545    12978.324    12138.778     8564.610        5.342        1.684      269.598       66.905        0.062      333.240        2.421      866.692
11/21/2013  19:42:00      309.586      179.076        9.278      138.933       92.099       78.981    19302.481     8482.294     6238.043        8.100        1.701      357.647       51.585        0.021      333.256        2.449      866.700
11/21/2013  19:43:00      269.493      204.030       27.763      172.383      124.620       88.065    29715.820    15530.048     7755.367        8.400        2.650      338.016       57.265        0.029      333.267        2.466      866.666
11/21/2013  19:44:00      193.728      175.228       14.628      131.365      114.396       73.698    17256.801    13086.396     5431.412        5.210        1.789      261.219       53.999        0.043      333.251        2.442      866.679
11/21/2013  19:45:00      266.561      183.284       33.581      179.912      117.502       91.670    32368.332    13806.613     8403.310        8.017        2.729      323.493       60.367        0.035      333.257        2.450      866.670
11/21/2013  19:46:00      228.175      193.510       19.499      178.977      131.247      105.160    32032.661    17225.760    11058.666        7.509        3.016      299.182       73.458        0.060      333.262        2.458      866.663
11/21/2013  19:47:00      268.241      190.189       24.362      139.355      120.756       74.957    19419.859    14582.004     5618.572        7.416        1.981      328.824       57.326        0.030      333.274        2.480      866.655
11/21/2013  19:48:00      265.844      184.441       31.832      177.838      126.252       77.180    31626.187    15939.539     5956.749        7.960        2.676      323.561       46.761        0.021      333.267        2.466      866.658
11/21/2013  19:49:00      201.073      167.966       18.280      141.396      103.093       88.548    19992.791    10628.096     7840.679        5.371        1.923      261.998       61.175        0.055      333.260        2.456      866.673
11/21/2013  19:50:00       90.994      177.331       -0.584      127.522      162.855      104.197    16261.758    26521.821    10856.997        4.667        2.682      199.314       87.500        0.193      333.247        2.436      866.674
11/21/2013  19:51:00      167.705      122.111       33.688       92.976       82.979       66.452     8644.551     6885.592     4415.933        3.205        0.997      207.452       50.380        0.059      333.229        2.404      866.679
11/21/2013  19:52:00      201.826      233.464       16.758      143.163      133.777       96.520    20495.723    17896.314     9316.067        7.160        2.385      308.608       85.953        0.078      333.242        2.425      866.675
11/21/2013  19:53:00      231.647      164.428       18.940      131.707       98.069       71.254    17346.691     9617.616     5077.153        5.654        1.602      284.072       53.824        0.036      333.236        2.416      866.675
11/21/2013  19:54:00      271.637      230.863       14.848      155.272      131.954      107.305    24109.408    17411.930    11514.284        9.016        2.652      356.489       83.102        0.054      333.251        2.439      866.665
11/21/2013  19:55:00      165.859      176.689       -0.443      139.710       98.164       79.840    19518.928     9636.135     6374.419        4.712        1.776      242.339       61.345        0.064      333.238        2.418      866.674
11/21/2013  19:56:00      250.066      180.549       34.306      123.987       96.743       68.587    15372.862     9359.164     4704.122        6.287        1.472      308.434       39.265        0.016      333.242        2.425      866.662
11/21/2013  19:57:00      168.690      112.726       25.725      152.841       85.271       64.093    23360.406     7271.063     4107.947        3.828        1.737      202.888       46.225        0.052      333.221        2.391      866.658
11/21/2013  19:58:00      221.845      166.263       16.908       85.044       82.726       74.104     7232.418     6843.553     5491.464        4.835        0.978      277.233       44.773        0.026      333.193        2.344      866.673
11/21/2013  19:59:00      264.225      137.709       49.216      189.376      123.085      102.000    35863.084    15149.853    10403.965        7.630        3.071      297.957       33.370        0.013      333.204        2.363      866.647
11/21/2013  20:00:00      111.049      146.917       10.640      115.207      105.306       72.148    13272.582    11089.257     5205.315        3.179        1.478      184.164       58.886        0.102      333.169        2.305      866.644
11/21/2013  20:01:00      144.490      153.642       14.092      121.516      104.907       97.198    14766.085    11005.417     9447.405        3.994        1.761      210.911       81.378        0.149      333.195        2.347      866.648
11/21/2013  20:02:00      226.840      257.859       -2.292      146.256      136.196       97.481    21390.782    18549.235     9502.614        8.369        2.472      343.435       85.310        0.062      333.206        2.366      866.625
11/21/2013  20:03:00      327.706      236.314       39.877      161.407      120.095      101.683    26052.355    14422.825    10339.338       10.781        2.541      404.024       62.762        0.024      333.227        2.401      866.606
11/21/2013  20:04:00      240.682      169.814       22.958      114.298      110.519       81.051    13064.133    12214.346     6569.238        5.956        1.592      294.559       73.056        0.062      333.222        2.391      866.626
11/21/2013  20:05:00      347.605      232.225       33.623      159.452      125.604       84.238    25425.024    15776.380     7096.098       11.208        2.415      418.040       58.821        0.020      333.211        2.375      866.619
11/21/2013  20:06:00      234.946      163.960       23.221      134.755      115.821       73.982    18158.816    13414.612     5473.265        5.983        1.852      286.501       50.409        0.031      333.196        2.350      866.628
11/21/2013  20:07:00      232.953      184.180       28.082      132.395       97.855       82.460    17528.546     9575.638     6799.646        6.143        1.695      296.967       59.018        0.039      333.190        2.339      866.654
11/21/2013  20:08:00      214.673      189.565       19.503      144.038      129.133      119.127    20746.865    16675.429    14191.206        6.700        2.581      286.391       92.299        0.104      333.198        2.353      866.653
11/21/2013  20:09:00      225.935      145.263       22.927       87.185       76.842       63.757     7601.305     5904.618     4065.014        4.512        0.879      268.604       30.499        0.013      333.187        2.333      866.677
11/21/2013  20:10:00      231.062      182.278       54.491      175.714       96.831       87.317    30875.326     9376.236     7624.307        6.872        2.394      294.304       50.192        0.029      333.185        2.331      866.676
11/21/2013  20:11:00      191.088      128.763       27.472      129.577       87.498       74.667    16790.148     7655.875     5575.166        4.193        1.501      230.422       57.104        0.061      333.164        2.298      866.697
11/21/2013  20:12:00      248.999      171.352       27.572      124.891       95.153       73.169    15597.802     9054.013     5353.642        6.106        1.500      302.262       57.624        0.036      333.161        2.293      866.720
11/21/2013  20:13:00      173.922      125.278        7.460      105.416       74.111       70.505    11112.636     5492.371     4970.928        3.378        1.079      214.344       44.522        0.043      333.158        2.285      866.722
11/21/2013  20:14:00      143.590       88.902       26.976       65.617       56.778       46.529     4305.605     3223.778     2164.982        1.947        0.485      168.884       29.282        0.030      333.138        2.255      866.717
11/21/2013  20:15:00      151.305       99.188       16.819       66.513       45.706       48.277     4424.006     2089.045     2330.641        2.093        0.442      180.919       28.039        0.024      333.132        2.246      866.727
11/21/2013  20:16:00      254.204      153.257       41.301      101.572       68.344       55.015    10316.852     4670.928     3026.648        5.391        0.901      296.829       38.988        0.017      333.149        2.271      866.723
11/21/2013  20:17:00      174.356      125.340       35.953      102.005       90.143       59.976    10405.059     8125.820     3597.149        3.476        1.106      214.732       39.160        0.033      333.140        2.258      866.733
11/21/2013  20:18:00      223.607      134.809       21.011      106.571       81.192       51.871    11357.397     6592.175     2690.576        4.462        1.032      261.101       24.264        0.009      333.158        2.287      866.748
11/21/2013  20:19:00      172.980      118.657       43.518       80.182       69.739       59.320     6429.174     4863.495     3518.896        3.035        0.741      209.765       28.391        0.018      333.142        2.261      866.747
11/21/2013  20:20:00      168.473      112.992       39.058       82.147       58.226       48.751     6748.198     3390.291     2376.640        2.759        0.626      202.856       20.946        0.011      333.134        2.250      866.739
11/21/2013  20:21:00      178.302      123.991        9.833       76.016       66.294       47.274     5778.373     4394.894     2234.836        2.983        0.620      217.176       28.342        0.017      333.123        2.229      866.753
11/21/2013  20:22:00      214.703      142.773       11.228      121.532      105.058       86.737    14769.967    11037.277     7523.333        4.996        1.667      257.840       65.964        0.065      333.155        2.283      866.748
11/21/2013  20:23:00      285.596      190.970       34.532      141.667      101.070       96.628    20069.501    10215.198     9337.049        7.942        1.981      343.562       48.970        0.020      333.161        2.291      866.753
11/21/2013  20:24:00      217.001      163.468       35.147      122.838      103.515       85.546    15089.091    10715.449     7318.150        5.408        1.656      271.682       61.776        0.052      333.167        2.302      866.740
11/21/2013  20:25:00      245.839      150.299       25.040      140.574      106.131       69.142    19760.922    11263.843     4780.659        5.972        1.790      288.143       43.688        0.023      333.165        2.299      866.755
11/21/2013  20:26:00      274.073      187.170       26.243      124.312       92.269       65.115    15453.580     8513.610     4240.009        6.952        1.410      331.886       44.058        0.018      333.173        2.311      866.783
11/21/2013  20:27:00      343.945      196.392       52.045      122.243      119.317       85.946    14943.431    14236.518     7386.764        9.806        1.828      396.066       50.256        0.016      333.190        2.340      866.741
11/21/2013  20:28:00      356.752      237.758       36.700      153.467      112.819       89.968    23552.128    12728.154     8094.284       11.475        2.219      428.720       45.822        0.011      333.204        2.362      866.762
11/21/2013  20:29:00      264.691      186.757       21.189      147.742      103.235       86.409    21827.789    10657.424     7466.436        7.266        1.998      323.944       49.879        0.024      333.192        2.341      866.800
11/21/2013  20:30:00      316.710      230.469       56.783      128.022       95.384       87.269    16389.740     9098.070     7615.818        9.487        1.655      391.690       37.707        0.009      333.182        2.326      866.812
11/21/2013  20:31:00      226.793      146.635       13.086      109.253      103.594       69.863    11936.317    10731.677     4880.908        5.032        1.377      270.068       48.419        0.032      333.172        2.311      866.826
11/21/2013  20:32:00      285.050      189.418       23.044       98.312       91.012       85.411     9665.229     8283.121     7295.099        7.145        1.262      342.246       51.975        0.023      333.149        2.272      866.833
11/21/2013  20:33:00      313.347      200.519       20.117       82.692       70.351       63.354     6838.000     4949.226     4013.744        7.730        0.790      372.013       38.143        0.011      333.122        2.230      866.844
11/21/2013  20:34:00      260.293      178.569       14.429      101.810       79.277       67.918    10365.355     6284.843     4612.857        6.055        1.063      315.657       28.797        0.008      333.094        2.182      866.849
11/21/2013  20:35:00      248.913      155.055       31.274      131.969       89.120       61.707    17415.690     7942.454     3807.799        5.807        1.458      293.257       34.096        0.014      333.123        2.231      866.853
11/21/2013  20:36:00      328.960      237.548       44.964      112.053      106.328       93.903    12555.963    11305.580     8817.683        9.967        1.634      405.763       60.024        0.022      333.136        2.250      866.844
11/21/2013  20:37:00      300.051      213.966       41.917      120.619       84.074       86.320    14549.063     7068.498     7451.204        8.331        1.453      368.527       56.156        0.023      333.142        2.263      866.825
11/21/2013  20:38:00      236.778      140.340       18.410      115.674       92.167       70.712    13380.587     8494.733     5000.118        5.148        1.344      275.244       46.895        0.029      333.122        2.228      866.840
11/21/2013  20:39:00      219.013      173.187       27.653      178.003      123.031       90.650    31684.974    15136.745     8217.475        6.687        2.752      279.214       61.712        0.049      333.119        2.223      866.853
11/21/2013  20:40:00      240.758      148.957       47.395      118.930      113.390       69.984    14144.403    12857.200     4897.766        5.714        1.595      283.112       40.522        0.020      333.109        2.209      866.854
11/21/2013  20:41:00      145.776       89.222       20.088       92.782       78.768       56.598     8608.582     6204.422     3203.367        2.381        0.901      170.913       32.496        0.036      333.061        2.129      866.867
11/21/2013  20:42:00      225.923      154.085       35.268      136.994      106.803       76.114    18767.342    11406.927     5793.342        5.599        1.798      273.466       54.945        0.040      333.091        2.176      866.854
11/21/2013  20:43:00      297.237      222.267       29.014      124.376       80.335       84.663    15469.282     6453.686     7167.824        8.384        1.455      371.150       43.933        0.014      333.099        2.190      866.853
11/21/2013  20:44:00      257.471      199.038       22.117      119.873       97.705       65.635    14369.431     9546.303     4307.921        6.730        1.411      325.434       46.031        0.020      333.074        2.149      866.865
11/21/2013  20:45:00      285.751      180.567       36.405      114.608       87.847       68.307    13135.094     7717.118     4665.874        7.055        1.276      338.021       27.484        0.007      333.050        2.107      866.872
11/21/2013  20:46:00      293.272      174.381       36.772      164.965      108.951       71.931    27213.414    11870.403     5174.049        8.100        2.213      341.200       51.782        0.023      333.078        2.156      866.843
11/21/2013  20:47:00      197.374      148.433       27.022      128.102       82.266       70.301    16410.241     6767.651     4942.292        4.491        1.406      246.959       44.521        0.032      333.058        2.122      866.855
11/21/2013  20:48:00      192.725      128.769       19.674      122.796       76.740       63.143    15078.869     5888.962     3987.032        3.953        1.248      231.785       33.612        0.021      333.049        2.108      866.850
11/21/2013  20:49:00      271.035      175.177       25.585      121.191       93.307       69.054    14687.231     8706.168     4768.455        6.648        1.408      322.718       18.572        0.003      333.052        2.112      866.852
11/21/2013  20:50:00      230.611      149.891       27.125      151.339      104.874       60.893    22903.374    10998.535     3707.897        5.699        1.880      275.044       40.817        0.022      333.064        2.133      866.877
11/21/2013  20:51:00      133.186       93.133       23.163      138.226       72.970       67.971    19106.290     5324.639     4620.044        2.799        1.453      162.518       41.605        0.066      333.059        2.125      866.880
11/21/2013  20:52:00      274.866      189.121       33.642      120.771       80.238       60.696    14585.642     6438.132     3684.056        6.857        1.235      333.643       54.351        0.027      333.059        2.124      866.899
11/21/2013  20:53:00      243.550      192.640       19.681      149.420      113.479       95.574    22326.189    12877.560     9134.430        7.057        2.217      310.527       61.705        0.039      333.084        2.166      866.908
11/21/2013  20:54:00      190.125      151.796       10.434      131.803       78.093       59.432    17371.907     6098.569     3532.159        4.315        1.350      243.289       37.797        0.024      333.081        2.162      866.938
11/21/2013  20:55:00      220.814      128.373       25.837      102.883       89.989       68.995    10584.816     8097.935     4760.296        4.467        1.172      255.419       46.779        0.034      333.066        2.136      866.946
11/21/2013  20:56:00      177.164      158.017       -6.397      133.891      110.557       95.902    17926.732    12222.870     9197.175        4.786        1.967      237.395       78.127        0.108      333.115        2.217      866.958
11/21/2013  20:57:00      102.380      103.904        5.137       78.066       74.489       59.838     6094.320     5548.568     3580.617        1.826        0.761      145.869       45.760        0.098      333.085        2.170      866.952
11/21/2013  20:58:00      162.373      100.593       27.055       90.126       59.620       57.095     8122.733     3554.557     3259.818        2.607        0.747      191.008       39.092        0.042      333.083        2.165      866.960
11/21/2013  20:59:00      193.363      117.004       27.511       71.978       59.290       53.337     5180.882     3515.360     2844.820        3.169        0.577      226.007       29.852        0.017      333.098        2.188      867.001
11/21/2013  21:00:00      169.666      117.491       16.495      119.848       66.880       67.282    14363.438     4472.970     4526.916        3.311        1.168      206.375       45.140        0.048      333.094        2.183      867.038
11/21/2013  21:01:00      166.855      105.901       37.097      114.615       68.230       63.668    13136.649     4655.312     4053.670        3.113        1.092      197.625       41.973        0.045      333.100        2.194      867.066
11/21/2013  21:02:00      161.821      121.863       24.090      124.974       72.002       46.327    15618.535     5184.353     2146.193        3.228        1.147      202.575       32.759        0.026      333.089        2.174      867.093
11/21/2013  21:03:00      274.418      191.314       34.297       90.772       65.848       67.109     8239.527     4336.002     4503.631        6.508        0.854      334.524       31.568        0.009      333.118        2.222      867.078
11/21/2013  21:04:00      204.189      140.784       12.903       88.492       70.590       55.032     7830.813     4982.962     3028.523        3.876        0.792      248.019       39.746        0.026      333.088        2.172      867.062
11/21/2013  21:05:00      173.965      105.563       43.973       77.800       67.343       37.595     6052.891     4535.029     1413.379        2.767        0.600      203.488       29.308        0.021      333.069        2.141      867.066
11/21/2013  21:06:00      262.525      163.193       30.509      115.873       86.667       69.070    13426.456     7511.158     4770.619        6.109        1.285      309.113       54.061        0.031      333.122        2.228      867.063
11/21/2013  21:07:00      238.713      181.084       32.113      111.981       84.263       71.835    12539.790     7100.210     5160.216        5.780        1.240      299.625       44.974        0.023      333.119        2.224      867.088
11/21/2013  21:08:00      138.444      131.328       11.438      126.558       88.650       72.610    16016.814     7858.909     5272.249        3.284        1.457      190.823       55.221        0.084      333.096        2.187      867.116
11/21/2013  21:09:00      230.653      141.260       33.602      119.015       85.208       54.116    14164.614     7260.342     2928.560        4.931        1.218      270.472       33.260        0.015      333.101        2.194      867.135
11/21/2013  21:10:00      243.093      144.404       32.717       99.629       72.017       62.677     9925.894     5186.500     3928.391        5.003        0.952      282.748       23.980        0.007      333.100        2.192      867.145
11/21/2013  21:11:00      163.069      116.550        6.969      108.095       78.939       77.674    11684.454     6231.330     6033.294        3.208        1.197      200.438       53.038        0.070      333.090        2.178      867.153
11/21/2013  21:12:00      129.179      145.921      -11.571       92.517       86.210       76.241     8559.404     7432.245     5812.627        2.995        1.090      194.885       57.681        0.088      333.072        2.147      867.167
11/21/2013  21:13:00      183.626      166.013        2.788      107.994       92.155       78.247    11662.726     8492.474     6122.624        4.378        1.314      247.545       46.317        0.035      333.069        2.142      867.180
11/21/2013  21:14:00      237.047      171.819       22.725      111.373       70.078       76.957    12404.003     4910.912     5922.317        5.473        1.162      292.768       34.595        0.014      333.064        2.134      867.179
11/21/2013  21:15:00      195.590      132.266       20.335      100.084       81.014       66.477    10016.812     6563.197     4419.229        3.858        1.050      236.114       46.372        0.039      333.052        2.112      867.168
11/21/2013  21:16:00      198.421      130.554       38.992      132.010       96.901       61.921    17426.570     9389.846     3834.212        4.429        1.533      237.518       45.061        0.036      333.060        2.126      867.160
11/21/2013  21:17:00      221.878      157.644       27.036       99.780       69.638       70.926     9956.148     4849.415     5030.471        4.732        0.992      272.179       38.887        0.020      333.043        2.098      867.171
11/21/2013  21:18:00      257.637      150.805       40.240      154.242      112.128       70.356    23790.609    12572.701     4949.982        6.602        2.066      298.528       62.675        0.044      333.091        2.176      867.193
11/21/2013  21:19:00      179.929      124.500       25.309       99.360       76.664       75.448     9872.444     5877.416     5692.387        3.497        1.072      218.803       45.851        0.044      333.040        2.092      867.207
11/21/2013  21:20:00      163.521      106.517       46.819       90.063       55.008       51.963     8111.267     3025.904     2700.121        2.705        0.692      195.154       42.203        0.047      333.041        2.093      867.219
11/21/2013  21:21:00      206.863      142.782       34.756      105.686       84.312       50.555    11169.503     7108.505     2555.854        4.261        1.042      251.355       44.078        0.031      333.025        2.068      867.235
11/21/2013  21:22:00      234.482      153.924       47.090       68.919       71.529       72.762     4749.834     5116.458     5294.330        4.802        0.758      280.489       33.298        0.014      333.031        2.078      867.242
11/21/2013  21:23:00      227.648      146.710       26.547       79.238       66.600       57.152     6278.590     4435.572     3266.350        4.401        0.699      270.827       30.772        0.013      333.003        2.030      867.278
11/21/2013  21:24:00      253.914      169.425       25.818       75.701       68.522       57.629     5730.588     4695.273     3321.095        5.379        0.687      305.249       38.612        0.016      333.012        2.045      867.295
11/21/2013  21:25:00      142.415       90.394       19.794       67.397       63.655       40.415     4542.379     4051.915     1633.385        1.953        0.511      168.680       32.243        0.037      332.950        1.944      867.308
11/21/2013  21:26:00      134.964       63.185        9.786       60.104       52.069       39.367     3612.456     2711.146     1549.759        1.509        0.394      149.022       23.815        0.026      332.927        1.908      867.319
11/21/2013  21:27:00      102.822       44.719       17.587       60.810       44.961       37.558     3697.898     2021.486     1410.615        1.000        0.357      112.126       31.462        0.079      332.921        1.897      867.338
11/21/2013  21:28:00      112.150       55.258       18.245       64.395       49.688       43.600     4146.692     2468.910     1900.971        1.224        0.426      125.024       21.716        0.030      332.915        1.888      867.348
11/21/2013  21:29:00       88.269       74.527       21.951       52.314       32.106       36.418     2736.713     1030.770     1326.283        0.946        0.255      115.523       20.834        0.033      332.892        1.850      867.359
11/21/2013  21:30:00      116.494       84.775       30.336       46.452       37.540       34.507     2157.799     1409.264     1190.730        1.322        0.238      144.076       14.886        0.011      332.899        1.861      867.372
11/21/2013  21:31:00      203.532      125.229       25.399       42.666       34.513       35.006     1820.399     1191.157     1225.455        3.099        0.212      238.972       11.675        0.002      332.915        1.885      867.374
11/21/2013  21:32:00      151.434       97.416       12.773       62.702       45.258       44.716     3931.494     2048.281     1999.503        2.028        0.399      180.062       29.891        0.028      332.909        1.878      867.367
11/21/2013  21:33:00      142.458       69.794       38.759       61.982       46.970       36.712     3841.829     2206.157     1347.755        1.703        0.370      158.636       25.792        0.026      332.869        1.812      867.369
11/21/2013  21:34:00       58.072       44.147       27.199       69.980       34.815       40.530     4897.208     1212.105     1642.663        0.691        0.388       72.947       32.571        0.199      332.887        1.843      867.372
11/21/2013  21:35:00      139.906       91.922       25.541       80.873       37.775       47.274     6540.384     1426.987     2234.867        1.944        0.510      167.401       27.398        0.027      332.865        1.805      867.376
11/21/2013  21:36:00      230.173      149.645       31.511      134.336      100.009       79.091    18046.082    10001.706     6255.438        5.533        1.715      274.542       46.748        0.029      332.927        1.905      867.398
11/21/2013  21:37:00      153.340       97.744       19.680       98.864       64.006       52.551     9774.011     4096.749     2761.648        2.504        0.832      181.844       28.430        0.024      332.892        1.847      867.432
11/21/2013  21:38:00      135.229      163.443       16.101      132.587       98.035       68.030    17579.235     9610.779     4628.055        3.853        1.591      212.134       60.087        0.080      332.910        1.876      867.447
11/21/2013  21:39:00      175.464      130.655       27.401      128.991      113.841       93.134    16638.654    12959.747     8673.957        4.343        1.914      218.765       66.985        0.094      332.933        1.915      867.453
11/21/2013  21:40:00      177.017      157.989       31.521      123.679       75.164       78.471    15296.504     5649.677     6157.665        4.219        1.355      237.267       58.930        0.062      332.947        1.937      867.467
11/21/2013  21:41:00      175.053      115.204       33.183       85.672       59.771       56.958     7339.616     3572.564     3244.192        2.958        0.708      209.560       41.780        0.040      332.948        1.940      867.496
11/21/2013  21:42:00      164.681      133.184       15.254      103.217       69.681       69.043    10653.659     4855.508     4766.970        3.268        1.014      211.797       47.613        0.051      332.955        1.951      867.515
11/21/2013  21:43:00      195.600      119.182       19.440       94.422       80.216       49.459     8915.429     6434.625     2446.202        3.532        0.890      229.050       25.003        0.012      332.938        1.924      867.539
11/21/2013  21:44:00      111.424       71.857       21.206       88.171       70.231       44.758     7774.115     4932.428     2003.274        1.637        0.735      132.584       27.048        0.042      332.879        1.827      867.551
11/21/2013  21:45:00      192.441      118.230        4.092      100.963       88.675       62.986    10193.599     7863.261     3967.239        3.652        1.101      225.858       38.944        0.030      332.914        1.883      867.569
11/21/2013  21:46:00      235.422      177.153       30.322       95.153       84.383       72.269     9054.188     7120.550     5222.841        5.456        1.070      294.629       37.104        0.016      332.906        1.869      867.591
11/21/2013  21:47:00      164.619      118.939       13.825       89.857       74.079       59.013     8074.275     5487.711     3482.484        2.924        0.852      203.091       42.104        0.043      332.878        1.825      867.624
11/21/2013  21:48:00      107.653       82.938       16.557      103.753       69.974       54.508    10764.670     4896.299     2971.091        1.868        0.932      135.897       21.905        0.026      332.860        1.796      867.650
11/21/2013  21:49:00      128.423       90.180       25.582       82.556       64.091       45.326     6815.559     4107.703     2054.471        1.913        0.649      156.923       30.649        0.038      332.825        1.738      867.672
11/21/2013  21:50:00      134.252       98.496       19.318       76.818       62.190       53.633     5900.975     3867.577     2876.449        2.037        0.632      166.508       37.705        0.051      332.829        1.744      867.676
11/21/2013  21:51:00       94.081       97.442       24.774       76.435       56.940       58.536     5842.320     3242.155     3426.497        1.573        0.626      135.448       45.621        0.113      332.811        1.715      867.656
11/21/2013  21:52:00       96.159      100.350        1.569       76.498       72.049       63.014     5852.011     5191.008     3970.754        1.716        0.751      138.984       50.587        0.132      332.808        1.709      867.658
11/21/2013  21:53:00       75.633      110.301      -12.537       62.788       55.068       46.849     3942.371     3032.504     2194.785        1.360        0.458      133.741       36.450        0.074      332.787        1.676      867.687
11/21/2013  21:54:00       51.623       99.602        2.886       53.861       74.079       46.218     2901.004     5487.729     2136.147        1.156        0.526      112.185       41.678        0.138      332.749        1.614      867.708
11/21/2013  21:55:00       43.200       87.732      -11.978       63.726       74.909       44.735     4061.007     5611.363     2001.245        1.069        0.584       97.791       46.284        0.224      332.741        1.600      867.713
11/21/2013  21:56:00       86.539       77.394       12.293       80.615       61.515       36.328     6498.823     3784.047     1319.740        1.261        0.580      116.098       28.983        0.062      332.721        1.566      867.704
11/21/2013  21:57:00       90.769      129.637        2.607       81.012       71.475       51.784     6562.997     5108.660     2681.606        1.970        0.718      158.255       42.625        0.073      332.713        1.552      867.692
11/21/2013  21:58:00      115.422      102.208       12.125       83.819       61.978       55.150     7025.622     3841.237     3041.545        1.891        0.695      154.171       37.251        0.058      332.708        1.545      867.675
11/21/2013  21:59:00       98.060       56.511       19.407       63.607       41.958       38.810     4045.856     1760.446     1506.226        1.025        0.366      113.178       31.897        0.079      332.669        1.482      867.664
11/21/2013  22:00:00      182.931      148.185       17.544       64.759       55.184       42.330     4193.746     3045.236     1791.791        3.238        0.452      235.420       31.037        0.017      332.686        1.506      867.664
11/21/2013  22:01:00      214.269      144.781       31.120      125.982       78.535       63.023    15871.414     6167.788     3971.892        4.692        1.301      258.598       48.795        0.036      332.712        1.550      867.684
11/21/2013  22:02:00      120.311       98.473       25.008      127.235       76.949       54.531    16188.688     5921.192     2973.596        2.494        1.254      155.472       39.421        0.064      332.677        1.493      867.692
11/21/2013  22:03:00      123.663      118.130        3.427       78.189       74.811       65.363     6113.542     5596.660     4272.310        2.262        0.799      171.018       47.457        0.077      332.668        1.478      867.710
11/21/2013  22:04:00      180.712      141.261       25.415       94.859       66.298       65.988     8998.232     4395.360     4354.381        3.550        0.887      229.372       43.681        0.036      332.683        1.501      867.715
11/21/2013  22:05:00      141.113      115.125        8.664      108.923       81.982       64.573    11864.136     6721.022     4169.708        2.799        1.138      182.117       48.095        0.070      332.674        1.488      867.723
11/21/2013  22:06:00      199.092      130.726       43.318       98.294       81.569       66.992     9661.793     6653.436     4487.984        3.970        1.040      238.174       31.803        0.018      332.692        1.517      867.740
11/21/2013  22:07:00      232.384      137.668       33.290      114.960       86.155       66.760    13215.780     7422.600     4456.955        4.957        1.255      270.101       33.249        0.015      332.703        1.536      867.743
11/21/2013  22:08:00      188.041      141.894        5.568      125.582       91.425       70.428    15770.939     8358.570     4960.111        4.230        1.454      235.570       54.154        0.053      332.754        1.620      867.720
11/21/2013  22:09:00      247.070      162.959       24.843      120.642       91.584       69.177    14554.449     8387.561     4785.437        5.797        1.386      295.972       36.177        0.015      332.750        1.611      867.715
11/21/2013  22:10:00      144.031      120.127       20.326      111.172       86.264       75.354    12359.275     7441.557     5678.227        3.053        1.274      187.551       57.781        0.095      332.726        1.574      867.713
11/21/2013  22:11:00      121.388       95.469       28.915       83.806       60.150       60.933     7023.431     3618.008     3712.861        1.952        0.718      154.433       29.887        0.037      332.692        1.518      867.715
11/21/2013  22:12:00      230.243      143.623       23.231       93.589       75.103       70.933     8758.956     5640.446     5031.525        4.680        0.972      271.366       55.970        0.043      332.718        1.557      867.730
11/21/2013  22:13:00      148.077       96.304       36.842       96.555       69.305       46.571     9322.871     4803.212     2168.893        2.442        0.815      176.639       15.007        0.007      332.671        1.484      867.730
11/21/2013  22:14:00      119.105      104.416       22.157      127.892       83.615       56.928    16356.462     6991.513     3240.791        2.608        1.329      158.394       41.405        0.068      332.646        1.443      867.750
11/21/2013  22:15:00      181.250      174.429       -3.831      107.218      130.318       74.790    11495.805    16982.858     5593.520        4.868        1.704      251.549       70.950        0.080      332.694        1.520      867.761
11/21/2013  22:16:00      173.830      145.970        6.362      117.363      117.566       90.051    13774.063    13821.756     8109.234        4.363        1.785      226.989       70.932        0.098      332.675        1.490      867.773
11/21/2013  22:17:00      146.743      103.831       18.783      100.619       86.291       58.954    10124.273     7446.145     3475.534        2.685        1.052      179.762       50.702        0.080      332.643        1.437      867.797
11/21/2013  22:18:00      263.678      211.074       17.997      158.293      118.253       92.485    25056.619    13983.860     8553.480        8.099        2.380      337.755       71.335        0.045      332.672        1.484      867.796
11/21/2013  22:19:00       92.635      131.960       -3.811       98.512       94.449       60.623     9704.590     8920.699     3675.186        2.415        1.115      161.228       51.181        0.101      332.628        1.411      867.808
11/21/2013  22:20:00      145.378      190.756      -14.777      101.324      104.417       75.206    10266.612    10902.872     5655.973        4.228        1.341      239.838       64.747        0.073      332.628        1.410      867.843
11/21/2013  22:21:00      199.369      173.703       39.414      147.686      111.278       75.531    21811.082    12382.790     5704.995        5.568        1.995      264.425       59.984        0.051      332.655        1.457      867.819
11/21/2013  22:22:00      212.982      183.400        7.508      169.448      107.360       86.153    28712.544    11526.163     7422.391        6.335        2.383      281.064       59.072        0.044      332.615        1.390      867.838
11/21/2013  22:23:00      293.659      194.860       59.901      173.340      114.553      104.385    30046.677    13122.471    10896.139        9.092        2.703      352.428       72.312        0.042      332.684        1.504      867.810
11/21/2013  22:24:00      113.851      197.682       -5.914      124.762      143.045       96.266    15565.451    20461.899     9267.069        4.868        2.265      228.124       92.361        0.164      332.661        1.467      867.808
11/21/2013  22:25:00      187.897      136.593       29.302      114.755       86.930       87.259    13168.776     7556.855     7614.094        4.158        1.417      232.299       66.569        0.082      332.651        1.449      867.791
11/21/2013  22:26:00      241.378      136.454       10.999      104.674       88.896       61.812    10956.589     7902.527     3820.762        4.984        1.134      277.278       32.403        0.014      332.655        1.456      867.780
11/21/2013  22:27:00      177.325      116.285        0.096       83.412       74.154       64.063     6957.586     5498.814     4104.085        3.076        0.828      212.052       46.564        0.048      332.618        1.394      867.828
11/21/2013  22:28:00      106.011      124.566       15.893       83.961       84.217       64.106     7049.450     7092.489     4109.598        2.263        0.913      163.569       52.016        0.101      332.599        1.365      867.870
11/21/2013  22:29:00      104.802      130.280        9.914      109.332      110.137       74.865    11953.518    12130.244     5604.812        2.887        1.484      167.201       66.517        0.158      332.584        1.340      867.884
11/21/2013  22:30:00      206.517      150.965       12.650      117.123       81.870       86.954    13717.796     6702.709     7561.018        4.678        1.399      255.812       64.332        0.063      332.582        1.336      867.911
11/21/2013  22:31:00      158.949      144.092       18.038      146.929      106.910       80.253    21588.245    11429.734     6440.620        4.290        1.973      214.539       52.676        0.060      332.579        1.333      867.896
11/21/2013  22:32:00       96.096      116.402       11.548       83.012       80.232       59.409     6891.017     6437.144     3529.468        1.988        0.843      150.943       52.447        0.121      332.531        1.252      867.897
11/21/2013  22:33:00      205.203      125.457       22.160      117.735       74.730       66.250    13861.437     5584.541     4389.058        4.108        1.192      240.516       44.276        0.034      332.554        1.289      867.894
11/21/2013  22:34:00      128.078      143.963      -11.140      118.205       88.839       62.286    13972.511     7892.350     3879.592        3.149        1.287      192.690       43.241        0.050      332.521        1.235      867.897
11/21/2013  22:35:00       90.241      167.983        3.466      117.231      103.797       77.482    13743.014    10773.753     6003.492        3.344        1.526      190.687       64.644        0.115      332.514        1.224      867.919
11/21/2013  22:36:00      213.647      166.862       27.970      135.600       78.262       84.617    18387.463     6124.917     7159.958        5.296        1.584      271.087       54.873        0.041      332.540        1.265      867.921
11/21/2013  22:37:00      121.093      121.859        0.585      102.978       86.673       57.854    10604.562     7512.123     3347.089        2.548        1.073      171.794       43.600        0.064      332.507        1.211      867.920
11/21/2013  22:38:00      146.530      154.351       -2.075      111.196      107.648       75.382    12364.660    11588.084     5682.374        3.746        1.482      212.827       70.509        0.110      332.538        1.263      867.920
11/21/2013  22:39:00      119.363      175.324       -3.451      109.286      100.879       71.659    11943.365    10176.484     5135.046        3.612        1.363      212.099       66.335        0.098      332.486        1.178      867.936
11/21/2013  22:40:00      138.380      117.662       40.803      103.177       61.011       64.262    10645.439     3722.302     4129.659        2.657        0.925      181.641       42.360        0.054      332.467        1.147      867.945
11/21/2013  22:41:00      105.245      106.459       10.329       82.668       56.342       51.180     6834.067     3174.422     2619.377        1.757        0.631      149.700       36.595        0.060      332.444        1.109      867.946
11/21/2013  22:42:00       85.957      115.086        4.920       75.158       71.795       58.249     5648.738     5154.455     3392.906        1.742        0.710      143.643       46.752        0.106      332.433        1.091      867.952
11/21/2013  22:43:00      124.291      100.676       20.345       87.447       43.192       46.750     7646.919     1865.589     2185.609        1.885        0.585      159.950       34.025        0.045      332.396        1.029      867.949
11/21/2013  22:44:00      135.547      132.155        7.070      114.542       79.128       65.653    13119.792     6261.299     4310.358        2.978        1.185      189.309       46.876        0.061      332.469        1.148      867.939
11/21/2013  22:45:00      212.126      163.548       19.883      118.889       82.569       78.725    14134.598     6817.566     6197.626        4.964        1.357      267.854       50.021        0.035      332.488        1.181      867.939
11/21/2013  22:46:00      142.959      107.001       42.388      107.525       63.256       72.386    11561.672     4001.306     5239.693        2.724        1.040      178.568       41.943        0.055      332.446        1.113      867.946
11/21/2013  22:47:00      132.674       93.164       13.534       96.760       74.135       58.305     9362.543     5496.021     3399.422        2.236        0.913      162.117       43.157        0.071      332.415        1.060      867.947
11/21/2013  22:48:00       73.413       91.113        2.970       64.395       65.468       56.430     4146.681     4286.044     3184.383        1.266        0.581      117.009       45.059        0.148      332.380        1.004      867.929
11/21/2013  22:49:00       65.386      135.742      -11.079       56.258       82.770       53.249     3165.003     6850.920     2835.409        1.784        0.643      150.669       48.703        0.104      332.368        0.984      867.899
11/21/2013  22:50:00       88.440      151.167        1.619      105.860       94.676       79.782    11206.411     8963.589     6365.108        2.860        1.327      175.138       58.089        0.110      332.425        1.077      867.870
11/21/2013  22:51:00       95.372      129.146        1.840       94.190       81.907       76.391     8871.690     6708.773     5835.648        2.359        1.071      160.544       62.468        0.151      332.401        1.037      867.849
11/21/2013  22:52:00       60.421      155.256       -2.741       84.966      105.912       68.572     7219.179    11217.292     4702.177        2.545        1.157      166.599       66.679        0.160      332.401        1.037      867.846
11/21/2013  22:53:00      115.021      131.003       23.485      115.484       70.273       60.800    13336.446     4938.330     3696.612        2.645        1.099      174.332       44.850        0.066      332.410        1.052      867.859
11/21/2013  22:54:00      118.455      122.346       21.226      108.695      100.139       69.686    11814.704    10027.726     4856.096        2.807        1.335      170.294       58.658        0.119      332.406        1.047      867.867
11/21/2013  22:55:00      179.135      133.933       33.168      116.221       79.139       76.479    13507.295     6262.994     5848.994        3.837        1.281      223.668       49.788        0.050      332.434        1.092      867.880
11/21/2013  22:56:00      154.582      133.671       29.151      128.303       66.363       62.065    16461.686     4404.030     3852.022        3.366        1.236      204.362       51.552        0.064      332.411        1.055      867.888
11/21/2013  22:57:00       77.656      144.063        2.877       82.220       93.827       58.588     6760.098     8803.529     3432.560        2.289        0.950      163.660       53.114        0.105      332.392        1.025      867.896
11/21/2013  22:58:00      147.417      111.407       17.316       92.025       74.631       62.282     8468.556     5569.839     3879.077        2.618        0.896      184.779       48.139        0.068      332.430        1.085      867.896
11/21/2013  22:59:00      160.056      161.020       -5.169      118.275      100.482       72.651    13989.023    10096.652     5278.214        4.046        1.468      227.036       63.661        0.079      332.425        1.076      867.904
11/21/2013  23:00:00       98.428       82.741       16.075       95.511       68.961       53.131     9122.377     4755.614     2822.889        1.674        0.835      128.585       34.557        0.072      332.394        1.027      867.904
11/21/2013  23:01:00       54.232      184.994       -6.496       90.511      128.895       58.766     8192.309    16614.008     3453.397        3.273        1.413      192.779       58.088        0.091      332.395        1.028      867.914
11/21/2013  23:02:00      107.671      132.101        6.949      114.039       79.715       64.831    13004.943     6354.465     4203.001        2.632        1.178      170.422       43.556        0.065      332.415        1.061      867.912
11/21/2013  23:03:00      114.700      151.403        8.101      106.199      135.460       79.512    11278.161    18349.525     6322.153        3.604        1.797      189.945       76.310        0.161      332.445        1.111      867.926
11/21/2013  23:04:00      105.917      160.202      -12.142       86.244       98.639       63.852     7438.109     9729.642     4077.022        2.913        1.062      192.050       56.373        0.086      332.456        1.129      867.935
11/21/2013  23:05:00      101.811      165.575      -11.274      101.765      107.401       78.064    10356.120    11534.930     6093.954        3.294        1.399      194.372       67.330        0.120      332.463        1.140      867.927
11/21/2013  23:06:00      118.164      128.544       12.892      108.493      100.869       79.197    11770.679    10174.509     6272.169        2.943        1.411      174.603       70.178        0.162      332.459        1.134      867.926
11/21/2013  23:07:00      214.803      137.627       40.465      130.842       85.156       70.599    17119.562     7251.556     4984.269        4.803        1.468      255.111       40.584        0.025      332.456        1.130      867.939
11/21/2013  23:08:00      150.923      114.959       29.806      108.522       67.372       58.172    11777.105     4538.950     3383.960        2.829        0.985      189.719       42.521        0.050      332.433        1.090      867.944
11/21/2013  23:09:00      193.382      115.889       19.391      106.782       75.926       55.238    11402.338     5764.803     3051.286        3.571        1.011      225.448       40.684        0.033      332.415        1.062      867.949
11/21/2013  23:10:00      166.056      136.948       16.413      136.810       88.612       73.275    18717.112     7852.075     5369.227        3.926        1.597      215.242       58.363        0.074      332.445        1.111      867.967
11/21/2013  23:11:00      182.497      182.861        2.174      107.764      100.510       72.040    11613.045    10102.231     5189.693        4.682        1.345      258.347       53.538        0.043      332.436        1.095      867.976
11/21/2013  23:12:00      167.560      152.848       27.247      119.015       99.043       77.693    14164.671     9809.499     6036.273        4.109        1.501      226.802       58.771        0.067      332.430        1.084      867.990
11/21/2013  23:13:00      181.069      174.032       -8.965      116.642      113.469       81.790    13605.394    12875.187     6689.647        4.816        1.659      251.143       71.129        0.080      332.447        1.115      867.979
11/21/2013  23:14:00      145.203      154.828       11.809      138.993      111.495       77.162    19319.145    12431.113     5954.013        4.144        1.885      212.263       58.172        0.075      332.416        1.064      867.987
11/21/2013  23:15:00      130.289      137.567       20.959      104.815       96.815       81.444    10986.087     9373.182     6633.071        3.166        1.350      189.473       64.560        0.116      332.419        1.067      868.006
11/21/2013  23:16:00      140.073      118.697       17.128      107.965       87.729       61.300    11656.427     7696.342     3757.722        2.855        1.156      183.601       45.681        0.062      332.402        1.040      868.020
11/21/2013  23:17:00      153.137      132.481       23.332      120.722       86.751       81.123    14573.801     7525.704     6580.867        3.511        1.434      202.490       55.868        0.076      332.403        1.040      868.025
11/21/2013  23:18:00      187.258      170.995       21.558      154.749      106.903       85.547    23947.105    11428.349     7318.270        5.372        2.135      253.584       77.330        0.093      332.397        1.031      868.038
11/21/2013  23:19:00       97.302      164.106        5.343      122.849      108.720       69.534    15091.833    11819.994     4834.985        3.408        1.587      190.784       61.715        0.105      332.383        1.007      868.029
11/21/2013  23:20:00      205.356      157.189       24.160      135.504       94.936       83.024    18361.253     9012.936     6892.985        5.086        1.713      258.611       59.241        0.052      332.447        1.113      868.012
11/21/2013  23:21:00      153.112      117.794       14.531      105.855       86.053       68.366    11205.370     7405.085     4673.861        3.040        1.164      193.180       56.260        0.085      332.387        1.015      868.045
11/21/2013  23:22:00      160.979      153.438       13.172      139.176      103.462       93.459    19369.967    10704.444     8734.612        4.421        1.940      222.390       65.757        0.087      332.399        1.034      868.087
11/21/2013  23:23:00      136.877      128.040       23.119      112.958       73.060       52.710    12759.610     5337.774     2778.316        2.827        1.044      187.429       41.177        0.048      332.336        0.931      868.142
11/21/2013  23:24:00      112.897      175.120       -0.555       94.590      101.954       66.811     8947.344    10394.696     4463.682        3.360        1.190      208.358       58.288        0.078      332.350        0.953      868.153
11/21/2013  23:25:00      177.481      128.610       56.243      110.196       72.653       74.965    12143.074     5278.409     5619.786        3.712        1.152      219.181       41.217        0.035      332.373        0.989      868.149
11/21/2013  23:26:00      124.987      127.592        4.494       82.188       72.968       59.931     6754.912     5324.366     3591.760        2.379        0.784      178.610       52.776        0.087      332.363        0.975      868.147
11/21/2013  23:27:00       65.550       75.368       14.299       88.073       59.436       36.991     7756.836     3532.636     1368.326        1.142        0.633       99.885       24.462        0.060      332.342        0.941      868.155
11/21/2013  23:28:00       55.145      176.171      -12.359       80.696      119.805       63.444     6511.769    14353.178     4025.158        2.956        1.245      184.600       62.850        0.116      332.329        0.919      868.164
11/21/2013  23:29:00       86.124       75.465        7.780      101.576       68.858       68.728    10317.649     4741.437     4723.502        1.647        0.989      114.509       41.286        0.130      332.293        0.860      868.158
11/21/2013  23:30:00       28.993       72.170        9.387       59.999       57.888       43.472     3599.904     3350.999     1889.821        0.749        0.442       77.776       37.341        0.231      332.245        0.782      868.143
11/21/2013  23:31:00       53.249      102.431        3.508       49.371       68.334       46.940     2437.469     4669.557     2203.410        1.132        0.466      115.445       50.016        0.188      332.217        0.737      868.152
11/21/2013  23:32:00       50.105       99.039      -11.598       51.639       56.547       32.942     2666.542     3197.512     1085.145        0.970        0.347      110.993       33.190        0.089      332.171        0.661      868.167
11/21/2013  23:33:00       32.564       64.860       -0.452       50.795       43.809       36.345     2580.092     1919.271     1320.961        0.554        0.291       72.576       27.286        0.141      332.140        0.608      868.185
11/21/2013  23:34:00       13.785      115.269      -11.739       39.437       65.086       36.503     1555.305     4236.228     1332.467        1.037        0.356      116.090       37.122        0.102      332.085        0.518      868.193
11/21/2013  23:35:00       11.324      151.988      -23.555       38.413       51.140       24.903     1475.594     2615.255      620.135        1.425        0.236      152.409       28.332        0.035      332.063        0.482      868.199
11/21/2013  23:36:00       -0.864       84.111       -5.276       26.482       38.760       27.777      701.299     1502.364      771.557        0.504        0.149       84.116       19.163        0.052      332.049        0.460      868.203
11/21/2013  23:37:00       11.202       94.671       -8.995       29.040       31.343       23.163      843.319      982.376      536.518        0.577        0.118       95.331       19.339        0.041      332.048        0.456      868.222
11/21/2013  23:38:00       -1.562      104.438       -7.451       31.659       54.870       27.623     1002.278     3010.771      763.012        0.787        0.239      104.450       31.193        0.089      332.010        0.394      868.241
11/21/2013  23:39:00       23.231       80.229       -4.332       34.479       41.607       31.931     1188.793     1731.154     1019.597        0.547        0.197       83.525       31.074        0.138      332.008        0.391      868.247
11/21/2013  23:40:00       35.040       99.133        5.965       44.786       51.120       37.493     2005.783     2613.225     1405.722        0.856        0.301      105.143       31.025        0.087      332.007        0.389      868.249
11/21/2013  23:41:00       24.327       34.247        9.016       42.485       30.959       22.847     1804.979      958.455      521.991        0.257        0.164       42.008       16.797        0.160      332.011        0.397      868.260
11/21/2013  23:42:00       28.642       98.662      -11.604       38.581       36.739       23.383     1488.456     1349.787      546.755        0.704        0.169      102.735       20.952        0.042      331.993        0.366      868.259
11/21/2013  23:43:00       41.645       83.192       -7.268       43.129       51.852       39.800     1860.123     2688.595     1584.051        0.742        0.307       93.033       36.344        0.153      331.966        0.320      868.260
11/21/2013  23:44:00       46.595       51.518        9.799       34.811       29.054       21.224     1211.806      844.125      450.471        0.371        0.125       69.464       17.509        0.064      331.961        0.314      868.236
11/21/2013  23:45:00       50.124       87.909      -11.159       34.012       41.990       30.485     1156.845     1763.156      929.305        0.711        0.192      101.195       28.350        0.078      331.971        0.330      868.231
11/21/2013  23:46:00       35.796       56.992       -1.483       20.236       37.844       24.493      409.484     1432.132      599.923        0.349        0.122       67.301       24.288        0.130      331.970        0.328      868.226
11/21/2013  23:47:00       55.557       50.784       17.926       44.759       34.193       23.509     2003.358     1169.138      552.681        0.486        0.186       75.270       18.193        0.058      332.024        0.418      868.238
11/21/2013  23:48:00       32.099       50.747        4.693       32.375       50.751       37.383     1048.134     2575.690     1397.516        0.432        0.251       60.047       26.562        0.196      332.021        0.413      868.242
11/21/2013  23:49:00       72.720       63.783       13.931       57.752       41.010       32.011     3335.335     1681.794     1024.713        0.779        0.302       96.729       24.598        0.065      332.043        0.449      868.243
11/21/2013  23:50:00       55.404       71.148        9.734       47.150       52.584       33.480     2223.134     2765.038     1120.897        0.717        0.305       90.175       29.582        0.108      332.054        0.467      868.233
11/21/2013  23:51:00        7.815       66.954       -8.998       17.599       25.763       13.171      309.715      663.713      173.478        0.289        0.057       67.408       10.048        0.022      331.991        0.365      868.232
11/21/2013  23:52:00        8.747      126.773      -18.267       20.794       24.619       15.599      432.408      606.074      243.340        0.888        0.064      127.074        8.215        0.004      332.005        0.386      868.239
11/21/2013  23:53:00       18.021      115.635      -15.055       20.501       23.181       20.550      420.299      537.346      422.294        0.765        0.069      117.031       14.245        0.015      331.997        0.373      868.228
11/21/2013  23:54:00       28.717      107.234       -6.988       28.245       50.621       26.775      797.753     2562.474      716.908        0.822        0.204      111.012       24.093        0.047      331.938        0.276      868.231
11/21/2013  23:55:00       33.630       72.470       -3.104       25.313       49.130       24.993      640.747     2413.784      624.641        0.504        0.184       79.893       25.864        0.105      331.958        0.310      868.234
11/21/2013  23:56:00       30.097       35.262       18.892       64.476       40.044       23.068     4157.212     1603.547      532.134        0.440        0.315       46.360       20.467        0.195      331.965        0.319      868.221
11/21/2013  23:57:00      -18.748      120.542      -12.854       32.128       31.509       26.423     1032.219      992.848      698.183        0.888        0.136      121.992       19.457        0.025      332.066        0.487      868.241
11/21/2013  23:58:00       18.928       99.140        1.476       83.816       49.280       37.691     7025.072     2428.531     1420.593        1.053        0.544      100.931       41.980        0.173      332.123        0.581      868.265
11/21/2013  23:59:00       39.611       66.085        7.649      119.521       62.354       37.264    14285.172     3887.983     1388.598        1.277        0.978       77.047       43.440        0.318      332.090        0.526      868.264
